<?xml version="1.0" encoding="UTF-8" standalone="no" ?>
<gpx xmlns="http://www.topografix.com/GPX/1/1" xmlns:xsi="http://www.w3.org/2001/XMLSchema-instance" xsi:schemaLocation="http://www.topografix.com/GPX/1/1 http://www.topografix.com/GPX/1/1/gpx.xsd" version="1.1" creator="VisuGPX - https://www.visugpx.com">
  <metadata>
    <name>Montaigu de quercy 2015</name>
    <desc><![CDATA[Randonnée vtt]]></desc>
  </metadata>
  <trk>
    <name><![CDATA[Montaigu 2015]]></name>
    <trkseg>
      <trkpt lat="44.33658" lon="1.0337">
        <ele>192.4</ele>
        <time>2015-09-27T07:30:10Z</time>
      </trkpt>
      <trkpt lat="44.33658" lon="1.03371">
        <ele>192.88</ele>
        <time>2015-09-27T07:30:39Z</time>
      </trkpt>
      <trkpt lat="44.33658" lon="1.03372">
        <ele>191.92</ele>
        <time>2015-09-27T07:30:53Z</time>
      </trkpt>
      <trkpt lat="44.33657" lon="1.03371">
        <ele>191.92</ele>
        <time>2015-09-27T07:30:56Z</time>
      </trkpt>
      <trkpt lat="44.33654" lon="1.03368">
        <ele>190.48</ele>
        <time>2015-09-27T07:31:09Z</time>
      </trkpt>
      <trkpt lat="44.33654" lon="1.0337">
        <ele>188.08</ele>
        <time>2015-09-27T07:31:34Z</time>
      </trkpt>
      <trkpt lat="44.33653" lon="1.03372">
        <ele>187.11</ele>
        <time>2015-09-27T07:32:00Z</time>
      </trkpt>
      <trkpt lat="44.33652" lon="1.03372">
        <ele>188.08</ele>
        <time>2015-09-27T07:32:24Z</time>
      </trkpt>
      <trkpt lat="44.33652" lon="1.03374">
        <ele>187.59</ele>
        <time>2015-09-27T07:32:51Z</time>
      </trkpt>
      <trkpt lat="44.33652" lon="1.03374">
        <ele>188.08</ele>
        <time>2015-09-27T07:33:19Z</time>
      </trkpt>
      <trkpt lat="44.33652" lon="1.03373">
        <ele>187.59</ele>
        <time>2015-09-27T07:33:47Z</time>
      </trkpt>
      <trkpt lat="44.33651" lon="1.03374">
        <ele>186.15</ele>
        <time>2015-09-27T07:34:25Z</time>
      </trkpt>
      <trkpt lat="44.33651" lon="1.03375">
        <ele>186.63</ele>
        <time>2015-09-27T07:35:01Z</time>
      </trkpt>
      <trkpt lat="44.33652" lon="1.03375">
        <ele>187.11</ele>
        <time>2015-09-27T07:35:26Z</time>
      </trkpt>
      <trkpt lat="44.33654" lon="1.03378">
        <ele>188.08</ele>
        <time>2015-09-27T07:35:35Z</time>
      </trkpt>
      <trkpt lat="44.33653" lon="1.03376">
        <ele>189.04</ele>
        <time>2015-09-27T07:35:47Z</time>
      </trkpt>
      <trkpt lat="44.3365" lon="1.03382">
        <ele>190</ele>
        <time>2015-09-27T07:35:51Z</time>
      </trkpt>
      <trkpt lat="44.3365" lon="1.03384">
        <ele>190.48</ele>
        <time>2015-09-27T07:35:52Z</time>
      </trkpt>
      <trkpt lat="44.33648" lon="1.03386">
        <ele>190.48</ele>
        <time>2015-09-27T07:35:53Z</time>
      </trkpt>
      <trkpt lat="44.33647" lon="1.03386">
        <ele>190.96</ele>
        <time>2015-09-27T07:35:54Z</time>
      </trkpt>
      <trkpt lat="44.33645" lon="1.03386">
        <ele>191.44</ele>
        <time>2015-09-27T07:35:55Z</time>
      </trkpt>
      <trkpt lat="44.33643" lon="1.03386">
        <ele>191.44</ele>
        <time>2015-09-27T07:35:56Z</time>
      </trkpt>
      <trkpt lat="44.33642" lon="1.03385">
        <ele>191.92</ele>
        <time>2015-09-27T07:35:57Z</time>
      </trkpt>
      <trkpt lat="44.3364" lon="1.03383">
        <ele>191.92</ele>
        <time>2015-09-27T07:35:58Z</time>
      </trkpt>
      <trkpt lat="44.33637" lon="1.03381">
        <ele>191.92</ele>
        <time>2015-09-27T07:35:59Z</time>
      </trkpt>
      <trkpt lat="44.33597" lon="1.03347">
        <ele>191.44</ele>
        <time>2015-09-27T07:36:12Z</time>
      </trkpt>
      <trkpt lat="44.33558" lon="1.03313">
        <ele>190.48</ele>
        <time>2015-09-27T07:36:25Z</time>
      </trkpt>
      <trkpt lat="44.33527" lon="1.03316">
        <ele>192.88</ele>
        <time>2015-09-27T07:36:35Z</time>
      </trkpt>
      <trkpt lat="44.33507" lon="1.03346">
        <ele>194.8</ele>
        <time>2015-09-27T07:36:43Z</time>
      </trkpt>
      <trkpt lat="44.3347" lon="1.03376">
        <ele>197.69</ele>
        <time>2015-09-27T07:36:55Z</time>
      </trkpt>
      <trkpt lat="44.33466" lon="1.03377">
        <ele>197.69</ele>
        <time>2015-09-27T07:36:56Z</time>
      </trkpt>
      <trkpt lat="44.33462" lon="1.03377">
        <ele>198.17</ele>
        <time>2015-09-27T07:36:57Z</time>
      </trkpt>
      <trkpt lat="44.3344" lon="1.03381">
        <ele>198.17</ele>
        <time>2015-09-27T07:37:02Z</time>
      </trkpt>
      <trkpt lat="44.33435" lon="1.03383">
        <ele>198.17</ele>
        <time>2015-09-27T07:37:03Z</time>
      </trkpt>
      <trkpt lat="44.3343" lon="1.03388">
        <ele>198.17</ele>
        <time>2015-09-27T07:37:04Z</time>
      </trkpt>
      <trkpt lat="44.33427" lon="1.03395">
        <ele>198.17</ele>
        <time>2015-09-27T07:37:05Z</time>
      </trkpt>
      <trkpt lat="44.33426" lon="1.03403">
        <ele>197.69</ele>
        <time>2015-09-27T07:37:06Z</time>
      </trkpt>
      <trkpt lat="44.33426" lon="1.03412">
        <ele>197.69</ele>
        <time>2015-09-27T07:37:07Z</time>
      </trkpt>
      <trkpt lat="44.33426" lon="1.0342">
        <ele>197.69</ele>
        <time>2015-09-27T07:37:08Z</time>
      </trkpt>
      <trkpt lat="44.33426" lon="1.03429">
        <ele>197.69</ele>
        <time>2015-09-27T07:37:09Z</time>
      </trkpt>
      <trkpt lat="44.33429" lon="1.03469">
        <ele>197.21</ele>
        <time>2015-09-27T07:37:14Z</time>
      </trkpt>
      <trkpt lat="44.33428" lon="1.03484">
        <ele>196.73</ele>
        <time>2015-09-27T07:37:16Z</time>
      </trkpt>
      <trkpt lat="44.33427" lon="1.03491">
        <ele>196.73</ele>
        <time>2015-09-27T07:37:17Z</time>
      </trkpt>
      <trkpt lat="44.33426" lon="1.03498">
        <ele>196.73</ele>
        <time>2015-09-27T07:37:18Z</time>
      </trkpt>
      <trkpt lat="44.33424" lon="1.03504">
        <ele>196.73</ele>
        <time>2015-09-27T07:37:19Z</time>
      </trkpt>
      <trkpt lat="44.33422" lon="1.0351">
        <ele>196.73</ele>
        <time>2015-09-27T07:37:20Z</time>
      </trkpt>
      <trkpt lat="44.33398" lon="1.03558">
        <ele>197.21</ele>
        <time>2015-09-27T07:37:28Z</time>
      </trkpt>
      <trkpt lat="44.33394" lon="1.03562">
        <ele>197.21</ele>
        <time>2015-09-27T07:37:29Z</time>
      </trkpt>
      <trkpt lat="44.33384" lon="1.03575">
        <ele>197.69</ele>
        <time>2015-09-27T07:37:32Z</time>
      </trkpt>
      <trkpt lat="44.33381" lon="1.03581">
        <ele>197.69</ele>
        <time>2015-09-27T07:37:33Z</time>
      </trkpt>
      <trkpt lat="44.3338" lon="1.03589">
        <ele>197.21</ele>
        <time>2015-09-27T07:37:34Z</time>
      </trkpt>
      <trkpt lat="44.3338" lon="1.03598">
        <ele>197.21</ele>
        <time>2015-09-27T07:37:35Z</time>
      </trkpt>
      <trkpt lat="44.33381" lon="1.03607">
        <ele>197.21</ele>
        <time>2015-09-27T07:37:36Z</time>
      </trkpt>
      <trkpt lat="44.33382" lon="1.03615">
        <ele>197.21</ele>
        <time>2015-09-27T07:37:37Z</time>
      </trkpt>
      <trkpt lat="44.33385" lon="1.03623">
        <ele>197.21</ele>
        <time>2015-09-27T07:37:38Z</time>
      </trkpt>
      <trkpt lat="44.33388" lon="1.03629">
        <ele>196.73</ele>
        <time>2015-09-27T07:37:39Z</time>
      </trkpt>
      <trkpt lat="44.33392" lon="1.03635">
        <ele>196.25</ele>
        <time>2015-09-27T07:37:40Z</time>
      </trkpt>
      <trkpt lat="44.33396" lon="1.0364">
        <ele>195.77</ele>
        <time>2015-09-27T07:37:41Z</time>
      </trkpt>
      <trkpt lat="44.334" lon="1.03646">
        <ele>195.77</ele>
        <time>2015-09-27T07:37:42Z</time>
      </trkpt>
      <trkpt lat="44.33404" lon="1.03652">
        <ele>195.28</ele>
        <time>2015-09-27T07:37:43Z</time>
      </trkpt>
      <trkpt lat="44.33412" lon="1.03663">
        <ele>194.32</ele>
        <time>2015-09-27T07:37:45Z</time>
      </trkpt>
      <trkpt lat="44.33416" lon="1.03667">
        <ele>193.84</ele>
        <time>2015-09-27T07:37:46Z</time>
      </trkpt>
      <trkpt lat="44.33421" lon="1.0367">
        <ele>193.84</ele>
        <time>2015-09-27T07:37:47Z</time>
      </trkpt>
      <trkpt lat="44.33426" lon="1.03671">
        <ele>193.84</ele>
        <time>2015-09-27T07:37:48Z</time>
      </trkpt>
      <trkpt lat="44.33431" lon="1.03671">
        <ele>194.32</ele>
        <time>2015-09-27T07:37:49Z</time>
      </trkpt>
      <trkpt lat="44.33437" lon="1.03669">
        <ele>194.32</ele>
        <time>2015-09-27T07:37:50Z</time>
      </trkpt>
      <trkpt lat="44.33442" lon="1.03665">
        <ele>194.32</ele>
        <time>2015-09-27T07:37:51Z</time>
      </trkpt>
      <trkpt lat="44.33445" lon="1.03661">
        <ele>194.32</ele>
        <time>2015-09-27T07:37:52Z</time>
      </trkpt>
      <trkpt lat="44.33448" lon="1.03656">
        <ele>194.32</ele>
        <time>2015-09-27T07:37:53Z</time>
      </trkpt>
      <trkpt lat="44.33455" lon="1.03646">
        <ele>193.84</ele>
        <time>2015-09-27T07:37:55Z</time>
      </trkpt>
      <trkpt lat="44.33457" lon="1.03641">
        <ele>193.36</ele>
        <time>2015-09-27T07:37:56Z</time>
      </trkpt>
      <trkpt lat="44.33463" lon="1.03625">
        <ele>192.4</ele>
        <time>2015-09-27T07:37:59Z</time>
      </trkpt>
      <trkpt lat="44.3347" lon="1.03601">
        <ele>190.96</ele>
        <time>2015-09-27T07:38:03Z</time>
      </trkpt>
      <trkpt lat="44.33473" lon="1.03595">
        <ele>190.96</ele>
        <time>2015-09-27T07:38:04Z</time>
      </trkpt>
      <trkpt lat="44.33483" lon="1.0358">
        <ele>190.96</ele>
        <time>2015-09-27T07:38:07Z</time>
      </trkpt>
      <trkpt lat="44.33486" lon="1.03574">
        <ele>190.96</ele>
        <time>2015-09-27T07:38:08Z</time>
      </trkpt>
      <trkpt lat="44.33507" lon="1.03535">
        <ele>190.48</ele>
        <time>2015-09-27T07:38:15Z</time>
      </trkpt>
      <trkpt lat="44.3351" lon="1.0353">
        <ele>190.48</ele>
        <time>2015-09-27T07:38:16Z</time>
      </trkpt>
      <trkpt lat="44.33514" lon="1.03526">
        <ele>190.96</ele>
        <time>2015-09-27T07:38:17Z</time>
      </trkpt>
      <trkpt lat="44.33518" lon="1.03522">
        <ele>190.96</ele>
        <time>2015-09-27T07:38:18Z</time>
      </trkpt>
      <trkpt lat="44.33522" lon="1.03518">
        <ele>191.44</ele>
        <time>2015-09-27T07:38:19Z</time>
      </trkpt>
      <trkpt lat="44.33525" lon="1.03515">
        <ele>191.44</ele>
        <time>2015-09-27T07:38:20Z</time>
      </trkpt>
      <trkpt lat="44.33529" lon="1.03512">
        <ele>191.92</ele>
        <time>2015-09-27T07:38:21Z</time>
      </trkpt>
      <trkpt lat="44.33548" lon="1.03501">
        <ele>191.92</ele>
        <time>2015-09-27T07:38:25Z</time>
      </trkpt>
      <trkpt lat="44.33552" lon="1.03498">
        <ele>191.92</ele>
        <time>2015-09-27T07:38:26Z</time>
      </trkpt>
      <trkpt lat="44.33571" lon="1.03485">
        <ele>191.92</ele>
        <time>2015-09-27T07:38:30Z</time>
      </trkpt>
      <trkpt lat="44.33576" lon="1.03483">
        <ele>191.92</ele>
        <time>2015-09-27T07:38:31Z</time>
      </trkpt>
      <trkpt lat="44.3358" lon="1.03482">
        <ele>191.92</ele>
        <time>2015-09-27T07:38:32Z</time>
      </trkpt>
      <trkpt lat="44.33585" lon="1.03482">
        <ele>191.92</ele>
        <time>2015-09-27T07:38:33Z</time>
      </trkpt>
      <trkpt lat="44.3359" lon="1.03484">
        <ele>191.92</ele>
        <time>2015-09-27T07:38:34Z</time>
      </trkpt>
      <trkpt lat="44.33594" lon="1.03487">
        <ele>191.92</ele>
        <time>2015-09-27T07:38:35Z</time>
      </trkpt>
      <trkpt lat="44.33598" lon="1.03491">
        <ele>191.92</ele>
        <time>2015-09-27T07:38:36Z</time>
      </trkpt>
      <trkpt lat="44.33602" lon="1.03495">
        <ele>191.92</ele>
        <time>2015-09-27T07:38:37Z</time>
      </trkpt>
      <trkpt lat="44.33605" lon="1.03499">
        <ele>191.92</ele>
        <time>2015-09-27T07:38:38Z</time>
      </trkpt>
      <trkpt lat="44.33608" lon="1.03504">
        <ele>191.92</ele>
        <time>2015-09-27T07:38:39Z</time>
      </trkpt>
      <trkpt lat="44.33634" lon="1.03547">
        <ele>196.25</ele>
        <time>2015-09-27T07:38:50Z</time>
      </trkpt>
      <trkpt lat="44.33652" lon="1.03594">
        <ele>203.94</ele>
        <time>2015-09-27T07:39:02Z</time>
      </trkpt>
      <trkpt lat="44.33665" lon="1.03638">
        <ele>209.22</ele>
        <time>2015-09-27T07:39:13Z</time>
      </trkpt>
      <trkpt lat="44.33668" lon="1.03645">
        <ele>209.22</ele>
        <time>2015-09-27T07:39:15Z</time>
      </trkpt>
      <trkpt lat="44.33672" lon="1.03704">
        <ele>211.63</ele>
        <time>2015-09-27T07:39:28Z</time>
      </trkpt>
      <trkpt lat="44.33673" lon="1.0372">
        <ele>211.63</ele>
        <time>2015-09-27T07:39:32Z</time>
      </trkpt>
      <trkpt lat="44.33673" lon="1.03725">
        <ele>211.63</ele>
        <time>2015-09-27T07:39:33Z</time>
      </trkpt>
      <trkpt lat="44.33674" lon="1.03729">
        <ele>211.63</ele>
        <time>2015-09-27T07:39:34Z</time>
      </trkpt>
      <trkpt lat="44.33674" lon="1.03734">
        <ele>211.63</ele>
        <time>2015-09-27T07:39:35Z</time>
      </trkpt>
      <trkpt lat="44.33674" lon="1.03738">
        <ele>211.63</ele>
        <time>2015-09-27T07:39:36Z</time>
      </trkpt>
      <trkpt lat="44.33675" lon="1.03743">
        <ele>211.63</ele>
        <time>2015-09-27T07:39:37Z</time>
      </trkpt>
      <trkpt lat="44.33675" lon="1.03747">
        <ele>211.63</ele>
        <time>2015-09-27T07:39:38Z</time>
      </trkpt>
      <trkpt lat="44.33684" lon="1.03777">
        <ele>213.55</ele>
        <time>2015-09-27T07:39:50Z</time>
      </trkpt>
      <trkpt lat="44.3368" lon="1.03785">
        <ele>213.07</ele>
        <time>2015-09-27T07:39:54Z</time>
      </trkpt>
      <trkpt lat="44.33675" lon="1.03795">
        <ele>214.03</ele>
        <time>2015-09-27T07:40:00Z</time>
      </trkpt>
      <trkpt lat="44.33658" lon="1.03831">
        <ele>215.95</ele>
        <time>2015-09-27T07:40:06Z</time>
      </trkpt>
      <trkpt lat="44.33655" lon="1.03855">
        <ele>217.4</ele>
        <time>2015-09-27T07:40:13Z</time>
      </trkpt>
      <trkpt lat="44.33663" lon="1.03889">
        <ele>221.24</ele>
        <time>2015-09-27T07:40:26Z</time>
      </trkpt>
      <trkpt lat="44.33666" lon="1.03918">
        <ele>221.72</ele>
        <time>2015-09-27T07:40:38Z</time>
      </trkpt>
      <trkpt lat="44.33668" lon="1.03931">
        <ele>222.2</ele>
        <time>2015-09-27T07:40:44Z</time>
      </trkpt>
      <trkpt lat="44.33667" lon="1.03965">
        <ele>224.61</ele>
        <time>2015-09-27T07:40:58Z</time>
      </trkpt>
      <trkpt lat="44.33666" lon="1.03968">
        <ele>224.61</ele>
        <time>2015-09-27T07:40:59Z</time>
      </trkpt>
      <trkpt lat="44.33665" lon="1.03973">
        <ele>225.57</ele>
        <time>2015-09-27T07:41:01Z</time>
      </trkpt>
      <trkpt lat="44.33666" lon="1.03987">
        <ele>226.53</ele>
        <time>2015-09-27T07:41:06Z</time>
      </trkpt>
      <trkpt lat="44.33667" lon="1.03992">
        <ele>227.49</ele>
        <time>2015-09-27T07:41:08Z</time>
      </trkpt>
      <trkpt lat="44.33666" lon="1.04024">
        <ele>229.89</ele>
        <time>2015-09-27T07:41:22Z</time>
      </trkpt>
      <trkpt lat="44.33663" lon="1.04054">
        <ele>230.37</ele>
        <time>2015-09-27T07:41:36Z</time>
      </trkpt>
      <trkpt lat="44.33665" lon="1.04073">
        <ele>229.89</ele>
        <time>2015-09-27T07:41:45Z</time>
      </trkpt>
      <trkpt lat="44.33666" lon="1.04079">
        <ele>229.41</ele>
        <time>2015-09-27T07:41:48Z</time>
      </trkpt>
      <trkpt lat="44.33672" lon="1.04107">
        <ele>229.41</ele>
        <time>2015-09-27T07:42:02Z</time>
      </trkpt>
      <trkpt lat="44.33679" lon="1.04118">
        <ele>229.41</ele>
        <time>2015-09-27T07:42:08Z</time>
      </trkpt>
      <trkpt lat="44.33685" lon="1.04131">
        <ele>230.85</ele>
        <time>2015-09-27T07:42:15Z</time>
      </trkpt>
      <trkpt lat="44.33688" lon="1.04138">
        <ele>231.33</ele>
        <time>2015-09-27T07:42:19Z</time>
      </trkpt>
      <trkpt lat="44.33693" lon="1.04149">
        <ele>232.3</ele>
        <time>2015-09-27T07:42:25Z</time>
      </trkpt>
      <trkpt lat="44.33698" lon="1.04151">
        <ele>234.22</ele>
        <time>2015-09-27T07:42:29Z</time>
      </trkpt>
      <trkpt lat="44.3372" lon="1.04139">
        <ele>240.47</ele>
        <time>2015-09-27T07:42:44Z</time>
      </trkpt>
      <trkpt lat="44.33735" lon="1.04106">
        <ele>240.95</ele>
        <time>2015-09-27T07:42:57Z</time>
      </trkpt>
      <trkpt lat="44.33753" lon="1.04063">
        <ele>239.51</ele>
        <time>2015-09-27T07:43:08Z</time>
      </trkpt>
      <trkpt lat="44.33761" lon="1.04031">
        <ele>239.02</ele>
        <time>2015-09-27T07:43:14Z</time>
      </trkpt>
      <trkpt lat="44.33771" lon="1.04017">
        <ele>239.02</ele>
        <time>2015-09-27T07:43:18Z</time>
      </trkpt>
      <trkpt lat="44.33811" lon="1.03993">
        <ele>239.51</ele>
        <time>2015-09-27T07:43:31Z</time>
      </trkpt>
      <trkpt lat="44.33828" lon="1.03985">
        <ele>239.99</ele>
        <time>2015-09-27T07:43:36Z</time>
      </trkpt>
      <trkpt lat="44.33845" lon="1.03972">
        <ele>238.06</ele>
        <time>2015-09-27T07:43:40Z</time>
      </trkpt>
      <trkpt lat="44.33867" lon="1.03976">
        <ele>237.1</ele>
        <time>2015-09-27T07:43:46Z</time>
      </trkpt>
      <trkpt lat="44.33906" lon="1.04017">
        <ele>234.7</ele>
        <time>2015-09-27T07:43:58Z</time>
      </trkpt>
      <trkpt lat="44.33932" lon="1.04061">
        <ele>235.66</ele>
        <time>2015-09-27T07:44:09Z</time>
      </trkpt>
      <trkpt lat="44.33945" lon="1.04097">
        <ele>239.51</ele>
        <time>2015-09-27T07:44:19Z</time>
      </trkpt>
      <trkpt lat="44.33951" lon="1.04116">
        <ele>240.95</ele>
        <time>2015-09-27T07:44:25Z</time>
      </trkpt>
      <trkpt lat="44.33961" lon="1.04144">
        <ele>243.83</ele>
        <time>2015-09-27T07:44:36Z</time>
      </trkpt>
      <trkpt lat="44.33981" lon="1.04132">
        <ele>247.2</ele>
        <time>2015-09-27T07:44:48Z</time>
      </trkpt>
      <trkpt lat="44.33987" lon="1.0412">
        <ele>249.6</ele>
        <time>2015-09-27T07:44:56Z</time>
      </trkpt>
      <trkpt lat="44.33989" lon="1.04117">
        <ele>250.56</ele>
        <time>2015-09-27T07:44:58Z</time>
      </trkpt>
      <trkpt lat="44.34023" lon="1.04096">
        <ele>250.56</ele>
        <time>2015-09-27T07:45:10Z</time>
      </trkpt>
      <trkpt lat="44.34067" lon="1.041">
        <ele>251.04</ele>
        <time>2015-09-27T07:45:24Z</time>
      </trkpt>
      <trkpt lat="44.34112" lon="1.04099">
        <ele>252.48</ele>
        <time>2015-09-27T07:45:38Z</time>
      </trkpt>
      <trkpt lat="44.34126" lon="1.0414">
        <ele>251.52</ele>
        <time>2015-09-27T07:45:48Z</time>
      </trkpt>
      <trkpt lat="44.34126" lon="1.04145">
        <ele>251.52</ele>
        <time>2015-09-27T07:45:49Z</time>
      </trkpt>
      <trkpt lat="44.34139" lon="1.04221">
        <ele>251.52</ele>
        <time>2015-09-27T07:46:04Z</time>
      </trkpt>
      <trkpt lat="44.34156" lon="1.04245">
        <ele>250.56</ele>
        <time>2015-09-27T07:46:11Z</time>
      </trkpt>
      <trkpt lat="44.34165" lon="1.04248">
        <ele>250.08</ele>
        <time>2015-09-27T07:46:13Z</time>
      </trkpt>
      <trkpt lat="44.3421" lon="1.04249">
        <ele>248.64</ele>
        <time>2015-09-27T07:46:23Z</time>
      </trkpt>
      <trkpt lat="44.34237" lon="1.04249">
        <ele>247.68</ele>
        <time>2015-09-27T07:46:29Z</time>
      </trkpt>
      <trkpt lat="44.34255" lon="1.04241">
        <ele>246.72</ele>
        <time>2015-09-27T07:46:33Z</time>
      </trkpt>
      <trkpt lat="44.34271" lon="1.04246">
        <ele>246.23</ele>
        <time>2015-09-27T07:46:38Z</time>
      </trkpt>
      <trkpt lat="44.34293" lon="1.04268">
        <ele>245.75</ele>
        <time>2015-09-27T07:46:45Z</time>
      </trkpt>
      <trkpt lat="44.34315" lon="1.04257">
        <ele>244.79</ele>
        <time>2015-09-27T07:46:52Z</time>
      </trkpt>
      <trkpt lat="44.34318" lon="1.04253">
        <ele>244.31</ele>
        <time>2015-09-27T07:46:53Z</time>
      </trkpt>
      <trkpt lat="44.34326" lon="1.04238">
        <ele>243.83</ele>
        <time>2015-09-27T07:46:56Z</time>
      </trkpt>
      <trkpt lat="44.34341" lon="1.04221">
        <ele>242.39</ele>
        <time>2015-09-27T07:47:00Z</time>
      </trkpt>
      <trkpt lat="44.34365" lon="1.04201">
        <ele>241.43</ele>
        <time>2015-09-27T07:47:06Z</time>
      </trkpt>
      <trkpt lat="44.34381" lon="1.04186">
        <ele>239.51</ele>
        <time>2015-09-27T07:47:13Z</time>
      </trkpt>
      <trkpt lat="44.34384" lon="1.04183">
        <ele>239.51</ele>
        <time>2015-09-27T07:47:14Z</time>
      </trkpt>
      <trkpt lat="44.34404" lon="1.04162">
        <ele>238.54</ele>
        <time>2015-09-27T07:47:19Z</time>
      </trkpt>
      <trkpt lat="44.34429" lon="1.04138">
        <ele>238.06</ele>
        <time>2015-09-27T07:47:25Z</time>
      </trkpt>
      <trkpt lat="44.34513" lon="1.04114">
        <ele>234.7</ele>
        <time>2015-09-27T07:47:39Z</time>
      </trkpt>
      <trkpt lat="44.34542" lon="1.04106">
        <ele>233.26</ele>
        <time>2015-09-27T07:47:43Z</time>
      </trkpt>
      <trkpt lat="44.34556" lon="1.041">
        <ele>232.3</ele>
        <time>2015-09-27T07:47:45Z</time>
      </trkpt>
      <trkpt lat="44.34592" lon="1.04108">
        <ele>231.81</ele>
        <time>2015-09-27T07:47:52Z</time>
      </trkpt>
      <trkpt lat="44.34608" lon="1.04119">
        <ele>233.74</ele>
        <time>2015-09-27T07:47:58Z</time>
      </trkpt>
      <trkpt lat="44.34637" lon="1.0412">
        <ele>236.62</ele>
        <time>2015-09-27T07:48:06Z</time>
      </trkpt>
      <trkpt lat="44.3465" lon="1.04117">
        <ele>237.58</ele>
        <time>2015-09-27T07:48:09Z</time>
      </trkpt>
      <trkpt lat="44.34664" lon="1.04115">
        <ele>237.58</ele>
        <time>2015-09-27T07:48:12Z</time>
      </trkpt>
      <trkpt lat="44.34688" lon="1.04123">
        <ele>237.1</ele>
        <time>2015-09-27T07:48:17Z</time>
      </trkpt>
      <trkpt lat="44.34698" lon="1.0413">
        <ele>236.62</ele>
        <time>2015-09-27T07:48:19Z</time>
      </trkpt>
      <trkpt lat="44.34722" lon="1.04153">
        <ele>234.22</ele>
        <time>2015-09-27T07:48:23Z</time>
      </trkpt>
      <trkpt lat="44.34734" lon="1.04175">
        <ele>230.85</ele>
        <time>2015-09-27T07:48:26Z</time>
      </trkpt>
      <trkpt lat="44.34745" lon="1.04224">
        <ele>224.12</ele>
        <time>2015-09-27T07:48:32Z</time>
      </trkpt>
      <trkpt lat="44.34766" lon="1.04206">
        <ele>218.84</ele>
        <time>2015-09-27T07:48:37Z</time>
      </trkpt>
      <trkpt lat="44.34781" lon="1.04186">
        <ele>216.43</ele>
        <time>2015-09-27T07:48:40Z</time>
      </trkpt>
      <trkpt lat="44.34798" lon="1.0415">
        <ele>215.95</ele>
        <time>2015-09-27T07:48:44Z</time>
      </trkpt>
      <trkpt lat="44.34805" lon="1.04122">
        <ele>215.47</ele>
        <time>2015-09-27T07:48:47Z</time>
      </trkpt>
      <trkpt lat="44.34806" lon="1.04093">
        <ele>214.03</ele>
        <time>2015-09-27T07:48:54Z</time>
      </trkpt>
      <trkpt lat="44.34807" lon="1.04096">
        <ele>214.03</ele>
        <time>2015-09-27T07:48:55Z</time>
      </trkpt>
      <trkpt lat="44.34816" lon="1.04122">
        <ele>215.95</ele>
        <time>2015-09-27T07:49:00Z</time>
      </trkpt>
      <trkpt lat="44.3482" lon="1.04135">
        <ele>216.43</ele>
        <time>2015-09-27T07:49:02Z</time>
      </trkpt>
      <trkpt lat="44.34821" lon="1.04148">
        <ele>216.43</ele>
        <time>2015-09-27T07:49:04Z</time>
      </trkpt>
      <trkpt lat="44.34817" lon="1.04183">
        <ele>217.88</ele>
        <time>2015-09-27T07:49:11Z</time>
      </trkpt>
      <trkpt lat="44.34811" lon="1.04203">
        <ele>218.36</ele>
        <time>2015-09-27T07:49:16Z</time>
      </trkpt>
      <trkpt lat="44.34812" lon="1.0421">
        <ele>218.36</ele>
        <time>2015-09-27T07:49:18Z</time>
      </trkpt>
      <trkpt lat="44.34813" lon="1.04213">
        <ele>218.36</ele>
        <time>2015-09-27T07:49:19Z</time>
      </trkpt>
      <trkpt lat="44.34817" lon="1.04214">
        <ele>218.36</ele>
        <time>2015-09-27T07:49:20Z</time>
      </trkpt>
      <trkpt lat="44.34821" lon="1.04214">
        <ele>218.36</ele>
        <time>2015-09-27T07:49:21Z</time>
      </trkpt>
      <trkpt lat="44.34826" lon="1.04211">
        <ele>218.36</ele>
        <time>2015-09-27T07:49:22Z</time>
      </trkpt>
      <trkpt lat="44.34831" lon="1.04209">
        <ele>218.36</ele>
        <time>2015-09-27T07:49:23Z</time>
      </trkpt>
      <trkpt lat="44.34837" lon="1.04208">
        <ele>218.84</ele>
        <time>2015-09-27T07:49:24Z</time>
      </trkpt>
      <trkpt lat="44.34842" lon="1.04209">
        <ele>219.32</ele>
        <time>2015-09-27T07:49:25Z</time>
      </trkpt>
      <trkpt lat="44.34846" lon="1.04212">
        <ele>219.8</ele>
        <time>2015-09-27T07:49:26Z</time>
      </trkpt>
      <trkpt lat="44.34851" lon="1.04216">
        <ele>220.28</ele>
        <time>2015-09-27T07:49:27Z</time>
      </trkpt>
      <trkpt lat="44.34856" lon="1.04219">
        <ele>220.28</ele>
        <time>2015-09-27T07:49:28Z</time>
      </trkpt>
      <trkpt lat="44.34862" lon="1.04223">
        <ele>220.28</ele>
        <time>2015-09-27T07:49:29Z</time>
      </trkpt>
      <trkpt lat="44.34893" lon="1.04243">
        <ele>220.76</ele>
        <time>2015-09-27T07:49:34Z</time>
      </trkpt>
      <trkpt lat="44.34899" lon="1.04249">
        <ele>219.32</ele>
        <time>2015-09-27T07:49:35Z</time>
      </trkpt>
      <trkpt lat="44.34904" lon="1.04255">
        <ele>217.88</ele>
        <time>2015-09-27T07:49:36Z</time>
      </trkpt>
      <trkpt lat="44.34908" lon="1.04262">
        <ele>216.91</ele>
        <time>2015-09-27T07:49:37Z</time>
      </trkpt>
      <trkpt lat="44.34912" lon="1.04269">
        <ele>215.47</ele>
        <time>2015-09-27T07:49:38Z</time>
      </trkpt>
      <trkpt lat="44.34915" lon="1.04278">
        <ele>214.03</ele>
        <time>2015-09-27T07:49:39Z</time>
      </trkpt>
      <trkpt lat="44.34918" lon="1.04287">
        <ele>213.07</ele>
        <time>2015-09-27T07:49:40Z</time>
      </trkpt>
      <trkpt lat="44.3492" lon="1.04295">
        <ele>212.11</ele>
        <time>2015-09-27T07:49:41Z</time>
      </trkpt>
      <trkpt lat="44.34921" lon="1.04303">
        <ele>211.15</ele>
        <time>2015-09-27T07:49:42Z</time>
      </trkpt>
      <trkpt lat="44.34922" lon="1.04311">
        <ele>209.7</ele>
        <time>2015-09-27T07:49:43Z</time>
      </trkpt>
      <trkpt lat="44.34922" lon="1.04317">
        <ele>208.26</ele>
        <time>2015-09-27T07:49:44Z</time>
      </trkpt>
      <trkpt lat="44.34921" lon="1.04321">
        <ele>205.86</ele>
        <time>2015-09-27T07:49:45Z</time>
      </trkpt>
      <trkpt lat="44.34922" lon="1.04322">
        <ele>204.42</ele>
        <time>2015-09-27T07:49:46Z</time>
      </trkpt>
      <trkpt lat="44.34922" lon="1.04324">
        <ele>202.49</ele>
        <time>2015-09-27T07:49:47Z</time>
      </trkpt>
      <trkpt lat="44.34923" lon="1.04324">
        <ele>201.05</ele>
        <time>2015-09-27T07:49:48Z</time>
      </trkpt>
      <trkpt lat="44.34925" lon="1.04324">
        <ele>199.61</ele>
        <time>2015-09-27T07:49:49Z</time>
      </trkpt>
      <trkpt lat="44.34926" lon="1.04323">
        <ele>198.17</ele>
        <time>2015-09-27T07:49:50Z</time>
      </trkpt>
      <trkpt lat="44.34928" lon="1.04324">
        <ele>196.73</ele>
        <time>2015-09-27T07:49:51Z</time>
      </trkpt>
      <trkpt lat="44.3493" lon="1.04328">
        <ele>196.25</ele>
        <time>2015-09-27T07:49:52Z</time>
      </trkpt>
      <trkpt lat="44.34931" lon="1.04334">
        <ele>195.28</ele>
        <time>2015-09-27T07:49:53Z</time>
      </trkpt>
      <trkpt lat="44.34931" lon="1.04339">
        <ele>194.8</ele>
        <time>2015-09-27T07:49:54Z</time>
      </trkpt>
      <trkpt lat="44.34932" lon="1.04345">
        <ele>194.32</ele>
        <time>2015-09-27T07:49:55Z</time>
      </trkpt>
      <trkpt lat="44.34942" lon="1.04431">
        <ele>189.52</ele>
        <time>2015-09-27T07:50:10Z</time>
      </trkpt>
      <trkpt lat="44.34953" lon="1.04482">
        <ele>192.4</ele>
        <time>2015-09-27T07:50:22Z</time>
      </trkpt>
      <trkpt lat="44.34979" lon="1.04502">
        <ele>194.32</ele>
        <time>2015-09-27T07:50:32Z</time>
      </trkpt>
      <trkpt lat="44.35012" lon="1.0453">
        <ele>195.28</ele>
        <time>2015-09-27T07:50:44Z</time>
      </trkpt>
      <trkpt lat="44.35045" lon="1.04556">
        <ele>194.32</ele>
        <time>2015-09-27T07:50:55Z</time>
      </trkpt>
      <trkpt lat="44.35063" lon="1.04562">
        <ele>192.4</ele>
        <time>2015-09-27T07:50:59Z</time>
      </trkpt>
      <trkpt lat="44.35096" lon="1.04591">
        <ele>189.04</ele>
        <time>2015-09-27T07:51:07Z</time>
      </trkpt>
      <trkpt lat="44.35098" lon="1.04596">
        <ele>189.04</ele>
        <time>2015-09-27T07:51:08Z</time>
      </trkpt>
      <trkpt lat="44.35105" lon="1.04608">
        <ele>189.52</ele>
        <time>2015-09-27T07:51:11Z</time>
      </trkpt>
      <trkpt lat="44.35123" lon="1.04598">
        <ele>188.56</ele>
        <time>2015-09-27T07:51:15Z</time>
      </trkpt>
      <trkpt lat="44.35153" lon="1.04568">
        <ele>189.04</ele>
        <time>2015-09-27T07:51:22Z</time>
      </trkpt>
      <trkpt lat="44.35173" lon="1.04554">
        <ele>190.48</ele>
        <time>2015-09-27T07:51:29Z</time>
      </trkpt>
      <trkpt lat="44.35169" lon="1.04547">
        <ele>190.48</ele>
        <time>2015-09-27T07:51:31Z</time>
      </trkpt>
      <trkpt lat="44.3516" lon="1.04534">
        <ele>190.96</ele>
        <time>2015-09-27T07:51:34Z</time>
      </trkpt>
      <trkpt lat="44.35123" lon="1.04479">
        <ele>190.96</ele>
        <time>2015-09-27T07:51:47Z</time>
      </trkpt>
      <trkpt lat="44.3509" lon="1.04431">
        <ele>190.96</ele>
        <time>2015-09-27T07:51:58Z</time>
      </trkpt>
      <trkpt lat="44.35081" lon="1.04416">
        <ele>191.44</ele>
        <time>2015-09-27T07:52:01Z</time>
      </trkpt>
      <trkpt lat="44.35054" lon="1.04358">
        <ele>189.52</ele>
        <time>2015-09-27T07:52:10Z</time>
      </trkpt>
      <trkpt lat="44.35052" lon="1.04335">
        <ele>189.52</ele>
        <time>2015-09-27T07:52:13Z</time>
      </trkpt>
      <trkpt lat="44.35051" lon="1.04308">
        <ele>190</ele>
        <time>2015-09-27T07:52:17Z</time>
      </trkpt>
      <trkpt lat="44.35051" lon="1.04285">
        <ele>190</ele>
        <time>2015-09-27T07:52:20Z</time>
      </trkpt>
      <trkpt lat="44.35048" lon="1.04248">
        <ele>189.04</ele>
        <time>2015-09-27T07:52:24Z</time>
      </trkpt>
      <trkpt lat="44.35048" lon="1.04238">
        <ele>189.04</ele>
        <time>2015-09-27T07:52:25Z</time>
      </trkpt>
      <trkpt lat="44.35051" lon="1.04229">
        <ele>189.04</ele>
        <time>2015-09-27T07:52:26Z</time>
      </trkpt>
      <trkpt lat="44.35054" lon="1.0422">
        <ele>188.56</ele>
        <time>2015-09-27T07:52:27Z</time>
      </trkpt>
      <trkpt lat="44.35056" lon="1.04212">
        <ele>188.56</ele>
        <time>2015-09-27T07:52:28Z</time>
      </trkpt>
      <trkpt lat="44.35059" lon="1.04203">
        <ele>188.08</ele>
        <time>2015-09-27T07:52:29Z</time>
      </trkpt>
      <trkpt lat="44.35061" lon="1.04194">
        <ele>188.08</ele>
        <time>2015-09-27T07:52:30Z</time>
      </trkpt>
      <trkpt lat="44.35071" lon="1.04139">
        <ele>186.15</ele>
        <time>2015-09-27T07:52:37Z</time>
      </trkpt>
      <trkpt lat="44.35071" lon="1.04135">
        <ele>185.67</ele>
        <time>2015-09-27T07:52:38Z</time>
      </trkpt>
      <trkpt lat="44.3507" lon="1.04132">
        <ele>185.67</ele>
        <time>2015-09-27T07:52:39Z</time>
      </trkpt>
      <trkpt lat="44.35067" lon="1.0413">
        <ele>185.19</ele>
        <time>2015-09-27T07:52:40Z</time>
      </trkpt>
      <trkpt lat="44.35064" lon="1.04129">
        <ele>185.19</ele>
        <time>2015-09-27T07:52:41Z</time>
      </trkpt>
      <trkpt lat="44.3506" lon="1.04129">
        <ele>184.71</ele>
        <time>2015-09-27T07:52:42Z</time>
      </trkpt>
      <trkpt lat="44.35056" lon="1.04128">
        <ele>184.71</ele>
        <time>2015-09-27T07:52:43Z</time>
      </trkpt>
      <trkpt lat="44.35051" lon="1.04126">
        <ele>184.23</ele>
        <time>2015-09-27T07:52:44Z</time>
      </trkpt>
      <trkpt lat="44.35047" lon="1.04124">
        <ele>184.23</ele>
        <time>2015-09-27T07:52:45Z</time>
      </trkpt>
      <trkpt lat="44.35042" lon="1.04121">
        <ele>183.75</ele>
        <time>2015-09-27T07:52:46Z</time>
      </trkpt>
      <trkpt lat="44.35038" lon="1.04118">
        <ele>183.75</ele>
        <time>2015-09-27T07:52:47Z</time>
      </trkpt>
      <trkpt lat="44.34994" lon="1.04082">
        <ele>181.83</ele>
        <time>2015-09-27T07:52:58Z</time>
      </trkpt>
      <trkpt lat="44.34997" lon="1.04073">
        <ele>181.35</ele>
        <time>2015-09-27T07:53:00Z</time>
      </trkpt>
      <trkpt lat="44.35001" lon="1.0407">
        <ele>181.35</ele>
        <time>2015-09-27T07:53:01Z</time>
      </trkpt>
      <trkpt lat="44.35008" lon="1.04046">
        <ele>178.94</ele>
        <time>2015-09-27T07:53:06Z</time>
      </trkpt>
      <trkpt lat="44.34959" lon="1.03953">
        <ele>177.5</ele>
        <time>2015-09-27T07:53:22Z</time>
      </trkpt>
      <trkpt lat="44.34951" lon="1.03928">
        <ele>177.98</ele>
        <time>2015-09-27T07:53:26Z</time>
      </trkpt>
      <trkpt lat="44.34943" lon="1.03888">
        <ele>177.5</ele>
        <time>2015-09-27T07:53:32Z</time>
      </trkpt>
      <trkpt lat="44.3494" lon="1.03876">
        <ele>177.5</ele>
        <time>2015-09-27T07:53:34Z</time>
      </trkpt>
      <trkpt lat="44.3494" lon="1.03871">
        <ele>177.5</ele>
        <time>2015-09-27T07:53:35Z</time>
      </trkpt>
      <trkpt lat="44.34941" lon="1.03867">
        <ele>177.5</ele>
        <time>2015-09-27T07:53:36Z</time>
      </trkpt>
      <trkpt lat="44.34942" lon="1.03863">
        <ele>177.5</ele>
        <time>2015-09-27T07:53:37Z</time>
      </trkpt>
      <trkpt lat="44.34943" lon="1.0386">
        <ele>177.98</ele>
        <time>2015-09-27T07:53:38Z</time>
      </trkpt>
      <trkpt lat="44.34944" lon="1.03856">
        <ele>177.98</ele>
        <time>2015-09-27T07:53:39Z</time>
      </trkpt>
      <trkpt lat="44.34945" lon="1.03852">
        <ele>177.98</ele>
        <time>2015-09-27T07:53:40Z</time>
      </trkpt>
      <trkpt lat="44.34946" lon="1.03847">
        <ele>177.5</ele>
        <time>2015-09-27T07:53:41Z</time>
      </trkpt>
      <trkpt lat="44.34946" lon="1.03841">
        <ele>177.02</ele>
        <time>2015-09-27T07:53:42Z</time>
      </trkpt>
      <trkpt lat="44.34945" lon="1.03817">
        <ele>176.06</ele>
        <time>2015-09-27T07:53:46Z</time>
      </trkpt>
      <trkpt lat="44.34941" lon="1.03756">
        <ele>176.06</ele>
        <time>2015-09-27T07:53:57Z</time>
      </trkpt>
      <trkpt lat="44.3494" lon="1.03735">
        <ele>176.06</ele>
        <time>2015-09-27T07:54:00Z</time>
      </trkpt>
      <trkpt lat="44.34946" lon="1.03671">
        <ele>176.06</ele>
        <time>2015-09-27T07:54:10Z</time>
      </trkpt>
      <trkpt lat="44.34947" lon="1.03626">
        <ele>177.5</ele>
        <time>2015-09-27T07:54:17Z</time>
      </trkpt>
      <trkpt lat="44.34947" lon="1.03607">
        <ele>177.5</ele>
        <time>2015-09-27T07:54:20Z</time>
      </trkpt>
      <trkpt lat="44.34944" lon="1.03578">
        <ele>178.94</ele>
        <time>2015-09-27T07:54:25Z</time>
      </trkpt>
      <trkpt lat="44.34939" lon="1.03526">
        <ele>179.42</ele>
        <time>2015-09-27T07:54:33Z</time>
      </trkpt>
      <trkpt lat="44.34922" lon="1.03462">
        <ele>178.46</ele>
        <time>2015-09-27T07:54:42Z</time>
      </trkpt>
      <trkpt lat="44.3491" lon="1.03429">
        <ele>177.5</ele>
        <time>2015-09-27T07:54:46Z</time>
      </trkpt>
      <trkpt lat="44.34893" lon="1.03389">
        <ele>176.54</ele>
        <time>2015-09-27T07:54:51Z</time>
      </trkpt>
      <trkpt lat="44.34895" lon="1.03369">
        <ele>176.06</ele>
        <time>2015-09-27T07:54:55Z</time>
      </trkpt>
      <trkpt lat="44.34937" lon="1.03328">
        <ele>178.46</ele>
        <time>2015-09-27T07:55:11Z</time>
      </trkpt>
      <trkpt lat="44.3497" lon="1.03299">
        <ele>182.31</ele>
        <time>2015-09-27T07:55:26Z</time>
      </trkpt>
      <trkpt lat="44.35004" lon="1.03277">
        <ele>187.11</ele>
        <time>2015-09-27T07:55:40Z</time>
      </trkpt>
      <trkpt lat="44.35043" lon="1.03256">
        <ele>191.92</ele>
        <time>2015-09-27T07:55:55Z</time>
      </trkpt>
      <trkpt lat="44.35077" lon="1.03232">
        <ele>195.77</ele>
        <time>2015-09-27T07:56:09Z</time>
      </trkpt>
      <trkpt lat="44.35101" lon="1.03204">
        <ele>197.69</ele>
        <time>2015-09-27T07:56:22Z</time>
      </trkpt>
      <trkpt lat="44.35131" lon="1.03173">
        <ele>202.98</ele>
        <time>2015-09-27T07:56:40Z</time>
      </trkpt>
      <trkpt lat="44.35155" lon="1.03151">
        <ele>207.78</ele>
        <time>2015-09-27T07:56:54Z</time>
      </trkpt>
      <trkpt lat="44.35176" lon="1.03126">
        <ele>212.59</ele>
        <time>2015-09-27T07:57:07Z</time>
      </trkpt>
      <trkpt lat="44.35203" lon="1.03096">
        <ele>215.47</ele>
        <time>2015-09-27T07:57:21Z</time>
      </trkpt>
      <trkpt lat="44.35227" lon="1.03073">
        <ele>217.88</ele>
        <time>2015-09-27T07:57:33Z</time>
      </trkpt>
      <trkpt lat="44.35257" lon="1.03038">
        <ele>221.24</ele>
        <time>2015-09-27T07:57:49Z</time>
      </trkpt>
      <trkpt lat="44.35272" lon="1.03002">
        <ele>223.16</ele>
        <time>2015-09-27T07:58:02Z</time>
      </trkpt>
      <trkpt lat="44.35282" lon="1.02979">
        <ele>223.16</ele>
        <time>2015-09-27T07:58:11Z</time>
      </trkpt>
      <trkpt lat="44.35297" lon="1.02943">
        <ele>226.53</ele>
        <time>2015-09-27T07:58:26Z</time>
      </trkpt>
      <trkpt lat="44.3531" lon="1.02907">
        <ele>227.97</ele>
        <time>2015-09-27T07:58:40Z</time>
      </trkpt>
      <trkpt lat="44.3532" lon="1.02881">
        <ele>226.53</ele>
        <time>2015-09-27T07:58:51Z</time>
      </trkpt>
      <trkpt lat="44.35323" lon="1.02887">
        <ele>227.01</ele>
        <time>2015-09-27T07:58:57Z</time>
      </trkpt>
      <trkpt lat="44.35322" lon="1.02898">
        <ele>227.97</ele>
        <time>2015-09-27T07:59:02Z</time>
      </trkpt>
      <trkpt lat="44.35316" lon="1.02934">
        <ele>229.41</ele>
        <time>2015-09-27T07:59:15Z</time>
      </trkpt>
      <trkpt lat="44.35306" lon="1.03002">
        <ele>228.45</ele>
        <time>2015-09-27T07:59:28Z</time>
      </trkpt>
      <trkpt lat="44.35292" lon="1.03067">
        <ele>228.45</ele>
        <time>2015-09-27T07:59:42Z</time>
      </trkpt>
      <trkpt lat="44.35285" lon="1.0308">
        <ele>227.97</ele>
        <time>2015-09-27T07:59:45Z</time>
      </trkpt>
      <trkpt lat="44.35258" lon="1.03116">
        <ele>229.41</ele>
        <time>2015-09-27T07:59:56Z</time>
      </trkpt>
      <trkpt lat="44.35236" lon="1.03152">
        <ele>230.37</ele>
        <time>2015-09-27T08:00:07Z</time>
      </trkpt>
      <trkpt lat="44.35216" lon="1.032">
        <ele>230.37</ele>
        <time>2015-09-27T08:00:19Z</time>
      </trkpt>
      <trkpt lat="44.35202" lon="1.03222">
        <ele>230.37</ele>
        <time>2015-09-27T08:00:24Z</time>
      </trkpt>
      <trkpt lat="44.35183" lon="1.03265">
        <ele>229.89</ele>
        <time>2015-09-27T08:00:32Z</time>
      </trkpt>
      <trkpt lat="44.35179" lon="1.03277">
        <ele>229.41</ele>
        <time>2015-09-27T08:00:34Z</time>
      </trkpt>
      <trkpt lat="44.35175" lon="1.03318">
        <ele>229.41</ele>
        <time>2015-09-27T08:00:41Z</time>
      </trkpt>
      <trkpt lat="44.35172" lon="1.03355">
        <ele>229.41</ele>
        <time>2015-09-27T08:00:47Z</time>
      </trkpt>
      <trkpt lat="44.35154" lon="1.03385">
        <ele>229.41</ele>
        <time>2015-09-27T08:00:53Z</time>
      </trkpt>
      <trkpt lat="44.35157" lon="1.03407">
        <ele>232.3</ele>
        <time>2015-09-27T08:01:00Z</time>
      </trkpt>
      <trkpt lat="44.35144" lon="1.03405">
        <ele>233.26</ele>
        <time>2015-09-27T08:01:07Z</time>
      </trkpt>
      <trkpt lat="44.35119" lon="1.03387">
        <ele>230.85</ele>
        <time>2015-09-27T08:01:13Z</time>
      </trkpt>
      <trkpt lat="44.35107" lon="1.03386">
        <ele>229.89</ele>
        <time>2015-09-27T08:01:15Z</time>
      </trkpt>
      <trkpt lat="44.35085" lon="1.03385">
        <ele>228.93</ele>
        <time>2015-09-27T08:01:19Z</time>
      </trkpt>
      <trkpt lat="44.3506" lon="1.03407">
        <ele>228.45</ele>
        <time>2015-09-27T08:01:25Z</time>
      </trkpt>
      <trkpt lat="44.3505" lon="1.03444">
        <ele>227.49</ele>
        <time>2015-09-27T08:01:31Z</time>
      </trkpt>
      <trkpt lat="44.35048" lon="1.03507">
        <ele>227.97</ele>
        <time>2015-09-27T08:01:42Z</time>
      </trkpt>
      <trkpt lat="44.35048" lon="1.0352">
        <ele>227.49</ele>
        <time>2015-09-27T08:01:44Z</time>
      </trkpt>
      <trkpt lat="44.35058" lon="1.03562">
        <ele>227.97</ele>
        <time>2015-09-27T08:01:52Z</time>
      </trkpt>
      <trkpt lat="44.35061" lon="1.0357">
        <ele>227.01</ele>
        <time>2015-09-27T08:01:54Z</time>
      </trkpt>
      <trkpt lat="44.35078" lon="1.03605">
        <ele>225.57</ele>
        <time>2015-09-27T08:01:59Z</time>
      </trkpt>
      <trkpt lat="44.35084" lon="1.03631">
        <ele>225.09</ele>
        <time>2015-09-27T08:02:02Z</time>
      </trkpt>
      <trkpt lat="44.35084" lon="1.03675">
        <ele>223.64</ele>
        <time>2015-09-27T08:02:11Z</time>
      </trkpt>
      <trkpt lat="44.35087" lon="1.03728">
        <ele>223.64</ele>
        <time>2015-09-27T08:02:21Z</time>
      </trkpt>
      <trkpt lat="44.35098" lon="1.03734">
        <ele>224.12</ele>
        <time>2015-09-27T08:02:26Z</time>
      </trkpt>
      <trkpt lat="44.3511" lon="1.03728">
        <ele>224.61</ele>
        <time>2015-09-27T08:02:30Z</time>
      </trkpt>
      <trkpt lat="44.35121" lon="1.03706">
        <ele>225.09</ele>
        <time>2015-09-27T08:02:35Z</time>
      </trkpt>
      <trkpt lat="44.35135" lon="1.03689">
        <ele>224.12</ele>
        <time>2015-09-27T08:02:42Z</time>
      </trkpt>
      <trkpt lat="44.35154" lon="1.03654">
        <ele>223.64</ele>
        <time>2015-09-27T08:02:50Z</time>
      </trkpt>
      <trkpt lat="44.35161" lon="1.03683">
        <ele>218.36</ele>
        <time>2015-09-27T08:02:57Z</time>
      </trkpt>
      <trkpt lat="44.35159" lon="1.0369">
        <ele>217.4</ele>
        <time>2015-09-27T08:02:58Z</time>
      </trkpt>
      <trkpt lat="44.35145" lon="1.03731">
        <ele>214.99</ele>
        <time>2015-09-27T08:03:08Z</time>
      </trkpt>
      <trkpt lat="44.35146" lon="1.03732">
        <ele>215.47</ele>
        <time>2015-09-27T08:03:22Z</time>
      </trkpt>
      <trkpt lat="44.35147" lon="1.03731">
        <ele>215.95</ele>
        <time>2015-09-27T08:03:24Z</time>
      </trkpt>
      <trkpt lat="44.35147" lon="1.03729">
        <ele>215.95</ele>
        <time>2015-09-27T08:03:25Z</time>
      </trkpt>
      <trkpt lat="44.35157" lon="1.03702">
        <ele>216.91</ele>
        <time>2015-09-27T08:03:38Z</time>
      </trkpt>
      <trkpt lat="44.35165" lon="1.03679">
        <ele>217.88</ele>
        <time>2015-09-27T08:03:52Z</time>
      </trkpt>
      <trkpt lat="44.35165" lon="1.03679">
        <ele>217.88</ele>
        <time>2015-09-27T08:03:58Z</time>
      </trkpt>
      <trkpt lat="44.35164" lon="1.03677">
        <ele>217.88</ele>
        <time>2015-09-27T08:03:59Z</time>
      </trkpt>
      <trkpt lat="44.35163" lon="1.03661">
        <ele>219.8</ele>
        <time>2015-09-27T08:04:05Z</time>
      </trkpt>
      <trkpt lat="44.35162" lon="1.03658">
        <ele>220.28</ele>
        <time>2015-09-27T08:04:07Z</time>
      </trkpt>
      <trkpt lat="44.35159" lon="1.03652">
        <ele>221.72</ele>
        <time>2015-09-27T08:04:13Z</time>
      </trkpt>
      <trkpt lat="44.35161" lon="1.03644">
        <ele>221.72</ele>
        <time>2015-09-27T08:04:17Z</time>
      </trkpt>
      <trkpt lat="44.35162" lon="1.03641">
        <ele>222.2</ele>
        <time>2015-09-27T08:04:18Z</time>
      </trkpt>
      <trkpt lat="44.35163" lon="1.03639">
        <ele>222.2</ele>
        <time>2015-09-27T08:04:19Z</time>
      </trkpt>
      <trkpt lat="44.35188" lon="1.03621">
        <ele>224.61</ele>
        <time>2015-09-27T08:04:30Z</time>
      </trkpt>
      <trkpt lat="44.35208" lon="1.03594">
        <ele>224.61</ele>
        <time>2015-09-27T08:04:41Z</time>
      </trkpt>
      <trkpt lat="44.3523" lon="1.0356">
        <ele>227.97</ele>
        <time>2015-09-27T08:04:52Z</time>
      </trkpt>
      <trkpt lat="44.35271" lon="1.03528">
        <ele>228.45</ele>
        <time>2015-09-27T08:05:05Z</time>
      </trkpt>
      <trkpt lat="44.35306" lon="1.03497">
        <ele>228.93</ele>
        <time>2015-09-27T08:05:16Z</time>
      </trkpt>
      <trkpt lat="44.35319" lon="1.03488">
        <ele>228.93</ele>
        <time>2015-09-27T08:05:20Z</time>
      </trkpt>
      <trkpt lat="44.35376" lon="1.03497">
        <ele>230.85</ele>
        <time>2015-09-27T08:05:33Z</time>
      </trkpt>
      <trkpt lat="44.35385" lon="1.03498">
        <ele>230.85</ele>
        <time>2015-09-27T08:05:35Z</time>
      </trkpt>
      <trkpt lat="44.35407" lon="1.03492">
        <ele>230.37</ele>
        <time>2015-09-27T08:05:39Z</time>
      </trkpt>
      <trkpt lat="44.35457" lon="1.03467">
        <ele>231.33</ele>
        <time>2015-09-27T08:05:50Z</time>
      </trkpt>
      <trkpt lat="44.3548" lon="1.03444">
        <ele>230.37</ele>
        <time>2015-09-27T08:05:57Z</time>
      </trkpt>
      <trkpt lat="44.35491" lon="1.034">
        <ele>231.81</ele>
        <time>2015-09-27T08:06:07Z</time>
      </trkpt>
      <trkpt lat="44.35516" lon="1.0335">
        <ele>232.3</ele>
        <time>2015-09-27T08:06:18Z</time>
      </trkpt>
      <trkpt lat="44.35522" lon="1.0334">
        <ele>232.78</ele>
        <time>2015-09-27T08:06:20Z</time>
      </trkpt>
      <trkpt lat="44.35548" lon="1.03287">
        <ele>232.3</ele>
        <time>2015-09-27T08:06:30Z</time>
      </trkpt>
      <trkpt lat="44.35564" lon="1.03265">
        <ele>230.85</ele>
        <time>2015-09-27T08:06:34Z</time>
      </trkpt>
      <trkpt lat="44.35591" lon="1.03213">
        <ele>227.97</ele>
        <time>2015-09-27T08:06:42Z</time>
      </trkpt>
      <trkpt lat="44.35603" lon="1.03196">
        <ele>227.97</ele>
        <time>2015-09-27T08:06:45Z</time>
      </trkpt>
      <trkpt lat="44.35637" lon="1.03149">
        <ele>228.93</ele>
        <time>2015-09-27T08:06:55Z</time>
      </trkpt>
      <trkpt lat="44.35658" lon="1.03092">
        <ele>226.53</ele>
        <time>2015-09-27T08:07:07Z</time>
      </trkpt>
      <trkpt lat="44.3567" lon="1.03046">
        <ele>219.8</ele>
        <time>2015-09-27T08:07:17Z</time>
      </trkpt>
      <trkpt lat="44.35694" lon="1.03001">
        <ele>217.4</ele>
        <time>2015-09-27T08:07:29Z</time>
      </trkpt>
      <trkpt lat="44.35716" lon="1.02949">
        <ele>221.72</ele>
        <time>2015-09-27T08:07:40Z</time>
      </trkpt>
      <trkpt lat="44.35745" lon="1.02888">
        <ele>226.05</ele>
        <time>2015-09-27T08:07:52Z</time>
      </trkpt>
      <trkpt lat="44.35759" lon="1.02874">
        <ele>225.57</ele>
        <time>2015-09-27T08:07:55Z</time>
      </trkpt>
      <trkpt lat="44.3577" lon="1.02865">
        <ele>226.05</ele>
        <time>2015-09-27T08:07:58Z</time>
      </trkpt>
      <trkpt lat="44.35772" lon="1.0286">
        <ele>226.05</ele>
        <time>2015-09-27T08:07:59Z</time>
      </trkpt>
      <trkpt lat="44.35775" lon="1.02855">
        <ele>226.53</ele>
        <time>2015-09-27T08:08:00Z</time>
      </trkpt>
      <trkpt lat="44.358" lon="1.0281">
        <ele>232.3</ele>
        <time>2015-09-27T08:08:13Z</time>
      </trkpt>
      <trkpt lat="44.35801" lon="1.02809">
        <ele>232.78</ele>
        <time>2015-09-27T08:08:14Z</time>
      </trkpt>
      <trkpt lat="44.35804" lon="1.02811">
        <ele>234.22</ele>
        <time>2015-09-27T08:08:16Z</time>
      </trkpt>
      <trkpt lat="44.35805" lon="1.02813">
        <ele>234.22</ele>
        <time>2015-09-27T08:08:17Z</time>
      </trkpt>
      <trkpt lat="44.35806" lon="1.02815">
        <ele>234.22</ele>
        <time>2015-09-27T08:08:18Z</time>
      </trkpt>
      <trkpt lat="44.35816" lon="1.02853">
        <ele>236.62</ele>
        <time>2015-09-27T08:08:30Z</time>
      </trkpt>
      <trkpt lat="44.35824" lon="1.02897">
        <ele>239.02</ele>
        <time>2015-09-27T08:08:43Z</time>
      </trkpt>
      <trkpt lat="44.3583" lon="1.0297">
        <ele>240.95</ele>
        <time>2015-09-27T08:08:58Z</time>
      </trkpt>
      <trkpt lat="44.35834" lon="1.02986">
        <ele>241.43</ele>
        <time>2015-09-27T08:09:02Z</time>
      </trkpt>
      <trkpt lat="44.35836" lon="1.02987">
        <ele>241.43</ele>
        <time>2015-09-27T08:09:03Z</time>
      </trkpt>
      <trkpt lat="44.35856" lon="1.0299">
        <ele>241.43</ele>
        <time>2015-09-27T08:09:09Z</time>
      </trkpt>
      <trkpt lat="44.35884" lon="1.02972">
        <ele>239.51</ele>
        <time>2015-09-27T08:09:16Z</time>
      </trkpt>
      <trkpt lat="44.35896" lon="1.02919">
        <ele>238.54</ele>
        <time>2015-09-27T08:09:28Z</time>
      </trkpt>
      <trkpt lat="44.35914" lon="1.02876">
        <ele>240.47</ele>
        <time>2015-09-27T08:09:38Z</time>
      </trkpt>
      <trkpt lat="44.3595" lon="1.02814">
        <ele>244.31</ele>
        <time>2015-09-27T08:09:54Z</time>
      </trkpt>
      <trkpt lat="44.35968" lon="1.02777">
        <ele>247.68</ele>
        <time>2015-09-27T08:10:11Z</time>
      </trkpt>
      <trkpt lat="44.35985" lon="1.0275">
        <ele>250.56</ele>
        <time>2015-09-27T08:10:27Z</time>
      </trkpt>
      <trkpt lat="44.36004" lon="1.02722">
        <ele>254.41</ele>
        <time>2015-09-27T08:10:43Z</time>
      </trkpt>
      <trkpt lat="44.36022" lon="1.02694">
        <ele>259.21</ele>
        <time>2015-09-27T08:10:57Z</time>
      </trkpt>
      <trkpt lat="44.36028" lon="1.02681">
        <ele>259.21</ele>
        <time>2015-09-27T08:11:03Z</time>
      </trkpt>
      <trkpt lat="44.36059" lon="1.02671">
        <ele>263.54</ele>
        <time>2015-09-27T08:11:15Z</time>
      </trkpt>
      <trkpt lat="44.36095" lon="1.02646">
        <ele>266.42</ele>
        <time>2015-09-27T08:11:27Z</time>
      </trkpt>
      <trkpt lat="44.36141" lon="1.0261">
        <ele>267.38</ele>
        <time>2015-09-27T08:11:41Z</time>
      </trkpt>
      <trkpt lat="44.36175" lon="1.02575">
        <ele>266.9</ele>
        <time>2015-09-27T08:11:53Z</time>
      </trkpt>
      <trkpt lat="44.36201" lon="1.02533">
        <ele>268.35</ele>
        <time>2015-09-27T08:12:06Z</time>
      </trkpt>
      <trkpt lat="44.36221" lon="1.02492">
        <ele>268.83</ele>
        <time>2015-09-27T08:12:19Z</time>
      </trkpt>
      <trkpt lat="44.36222" lon="1.02465">
        <ele>267.38</ele>
        <time>2015-09-27T08:12:24Z</time>
      </trkpt>
      <trkpt lat="44.36194" lon="1.02395">
        <ele>264.02</ele>
        <time>2015-09-27T08:12:33Z</time>
      </trkpt>
      <trkpt lat="44.36181" lon="1.02312">
        <ele>258.73</ele>
        <time>2015-09-27T08:12:43Z</time>
      </trkpt>
      <trkpt lat="44.36169" lon="1.02289">
        <ele>257.77</ele>
        <time>2015-09-27T08:12:47Z</time>
      </trkpt>
      <trkpt lat="44.36137" lon="1.02257">
        <ele>255.37</ele>
        <time>2015-09-27T08:12:55Z</time>
      </trkpt>
      <trkpt lat="44.3611" lon="1.02217">
        <ele>254.41</ele>
        <time>2015-09-27T08:13:02Z</time>
      </trkpt>
      <trkpt lat="44.36105" lon="1.02214">
        <ele>254.41</ele>
        <time>2015-09-27T08:13:03Z</time>
      </trkpt>
      <trkpt lat="44.36094" lon="1.02208">
        <ele>254.41</ele>
        <time>2015-09-27T08:13:05Z</time>
      </trkpt>
      <trkpt lat="44.36061" lon="1.02154">
        <ele>254.41</ele>
        <time>2015-09-27T08:13:14Z</time>
      </trkpt>
      <trkpt lat="44.36045" lon="1.02125">
        <ele>255.85</ele>
        <time>2015-09-27T08:13:19Z</time>
      </trkpt>
      <trkpt lat="44.36035" lon="1.02109">
        <ele>256.81</ele>
        <time>2015-09-27T08:13:22Z</time>
      </trkpt>
      <trkpt lat="44.36021" lon="1.02092">
        <ele>258.25</ele>
        <time>2015-09-27T08:13:26Z</time>
      </trkpt>
      <trkpt lat="44.3596" lon="1.02028">
        <ele>260.65</ele>
        <time>2015-09-27T08:13:42Z</time>
      </trkpt>
      <trkpt lat="44.35936" lon="1.02009">
        <ele>261.14</ele>
        <time>2015-09-27T08:13:48Z</time>
      </trkpt>
      <trkpt lat="44.35923" lon="1.02013">
        <ele>261.14</ele>
        <time>2015-09-27T08:13:51Z</time>
      </trkpt>
      <trkpt lat="44.35881" lon="1.02027">
        <ele>262.58</ele>
        <time>2015-09-27T08:14:03Z</time>
      </trkpt>
      <trkpt lat="44.35877" lon="1.02008">
        <ele>263.54</ele>
        <time>2015-09-27T08:14:08Z</time>
      </trkpt>
      <trkpt lat="44.35873" lon="1.01946">
        <ele>265.94</ele>
        <time>2015-09-27T08:14:24Z</time>
      </trkpt>
      <trkpt lat="44.35845" lon="1.01919">
        <ele>268.83</ele>
        <time>2015-09-27T08:14:37Z</time>
      </trkpt>
      <trkpt lat="44.35809" lon="1.01899">
        <ele>271.23</ele>
        <time>2015-09-27T08:14:50Z</time>
      </trkpt>
      <trkpt lat="44.35796" lon="1.01857">
        <ele>271.71</ele>
        <time>2015-09-27T08:15:01Z</time>
      </trkpt>
      <trkpt lat="44.35793" lon="1.01832">
        <ele>271.23</ele>
        <time>2015-09-27T08:15:06Z</time>
      </trkpt>
      <trkpt lat="44.35791" lon="1.01821">
        <ele>271.23</ele>
        <time>2015-09-27T08:15:08Z</time>
      </trkpt>
      <trkpt lat="44.35794" lon="1.01795">
        <ele>270.27</ele>
        <time>2015-09-27T08:15:12Z</time>
      </trkpt>
      <trkpt lat="44.35798" lon="1.01776">
        <ele>269.79</ele>
        <time>2015-09-27T08:15:15Z</time>
      </trkpt>
      <trkpt lat="44.35802" lon="1.01746">
        <ele>269.31</ele>
        <time>2015-09-27T08:15:20Z</time>
      </trkpt>
      <trkpt lat="44.3579" lon="1.0168">
        <ele>268.83</ele>
        <time>2015-09-27T08:15:29Z</time>
      </trkpt>
      <trkpt lat="44.35791" lon="1.01674">
        <ele>268.83</ele>
        <time>2015-09-27T08:15:30Z</time>
      </trkpt>
      <trkpt lat="44.35796" lon="1.01639">
        <ele>269.79</ele>
        <time>2015-09-27T08:15:36Z</time>
      </trkpt>
      <trkpt lat="44.35782" lon="1.01542">
        <ele>266.9</ele>
        <time>2015-09-27T08:15:48Z</time>
      </trkpt>
      <trkpt lat="44.35781" lon="1.01536">
        <ele>267.38</ele>
        <time>2015-09-27T08:15:49Z</time>
      </trkpt>
      <trkpt lat="44.3578" lon="1.01533">
        <ele>267.38</ele>
        <time>2015-09-27T08:15:50Z</time>
      </trkpt>
      <trkpt lat="44.35777" lon="1.01531">
        <ele>266.9</ele>
        <time>2015-09-27T08:15:51Z</time>
      </trkpt>
      <trkpt lat="44.3575" lon="1.01522">
        <ele>264.02</ele>
        <time>2015-09-27T08:15:57Z</time>
      </trkpt>
      <trkpt lat="44.35717" lon="1.01512">
        <ele>260.17</ele>
        <time>2015-09-27T08:16:03Z</time>
      </trkpt>
      <trkpt lat="44.35696" lon="1.01508">
        <ele>259.21</ele>
        <time>2015-09-27T08:16:07Z</time>
      </trkpt>
      <trkpt lat="44.35672" lon="1.01508">
        <ele>258.25</ele>
        <time>2015-09-27T08:16:13Z</time>
      </trkpt>
      <trkpt lat="44.35649" lon="1.01507">
        <ele>257.77</ele>
        <time>2015-09-27T08:16:22Z</time>
      </trkpt>
      <trkpt lat="44.35645" lon="1.01508">
        <ele>257.29</ele>
        <time>2015-09-27T08:16:23Z</time>
      </trkpt>
      <trkpt lat="44.3563" lon="1.01519">
        <ele>255.37</ele>
        <time>2015-09-27T08:16:27Z</time>
      </trkpt>
      <trkpt lat="44.35574" lon="1.01525">
        <ele>252.96</ele>
        <time>2015-09-27T08:16:41Z</time>
      </trkpt>
      <trkpt lat="44.35567" lon="1.01525">
        <ele>252.48</ele>
        <time>2015-09-27T08:16:43Z</time>
      </trkpt>
      <trkpt lat="44.35542" lon="1.0153">
        <ele>251.52</ele>
        <time>2015-09-27T08:16:49Z</time>
      </trkpt>
      <trkpt lat="44.35523" lon="1.01528">
        <ele>251.04</ele>
        <time>2015-09-27T08:16:55Z</time>
      </trkpt>
      <trkpt lat="44.35522" lon="1.01524">
        <ele>251.04</ele>
        <time>2015-09-27T08:16:56Z</time>
      </trkpt>
      <trkpt lat="44.35523" lon="1.01518">
        <ele>251.04</ele>
        <time>2015-09-27T08:16:57Z</time>
      </trkpt>
      <trkpt lat="44.35523" lon="1.01512">
        <ele>251.04</ele>
        <time>2015-09-27T08:16:58Z</time>
      </trkpt>
      <trkpt lat="44.35524" lon="1.01506">
        <ele>251.04</ele>
        <time>2015-09-27T08:16:59Z</time>
      </trkpt>
      <trkpt lat="44.35527" lon="1.01418">
        <ele>250.56</ele>
        <time>2015-09-27T08:17:11Z</time>
      </trkpt>
      <trkpt lat="44.3553" lon="1.01302">
        <ele>249.6</ele>
        <time>2015-09-27T08:17:25Z</time>
      </trkpt>
      <trkpt lat="44.35535" lon="1.01201">
        <ele>251.52</ele>
        <time>2015-09-27T08:17:39Z</time>
      </trkpt>
      <trkpt lat="44.35534" lon="1.01098">
        <ele>252.96</ele>
        <time>2015-09-27T08:17:55Z</time>
      </trkpt>
      <trkpt lat="44.35532" lon="1.01076">
        <ele>253.44</ele>
        <time>2015-09-27T08:17:59Z</time>
      </trkpt>
      <trkpt lat="44.35532" lon="1.0107">
        <ele>253.93</ele>
        <time>2015-09-27T08:18:00Z</time>
      </trkpt>
      <trkpt lat="44.35533" lon="1.01066">
        <ele>253.93</ele>
        <time>2015-09-27T08:18:01Z</time>
      </trkpt>
      <trkpt lat="44.35535" lon="1.01063">
        <ele>254.41</ele>
        <time>2015-09-27T08:18:02Z</time>
      </trkpt>
      <trkpt lat="44.35538" lon="1.01061">
        <ele>254.41</ele>
        <time>2015-09-27T08:18:03Z</time>
      </trkpt>
      <trkpt lat="44.35539" lon="1.01058">
        <ele>254.89</ele>
        <time>2015-09-27T08:18:04Z</time>
      </trkpt>
      <trkpt lat="44.3554" lon="1.01053">
        <ele>254.89</ele>
        <time>2015-09-27T08:18:05Z</time>
      </trkpt>
      <trkpt lat="44.35541" lon="1.01048">
        <ele>254.89</ele>
        <time>2015-09-27T08:18:06Z</time>
      </trkpt>
      <trkpt lat="44.35542" lon="1.01043">
        <ele>254.89</ele>
        <time>2015-09-27T08:18:07Z</time>
      </trkpt>
      <trkpt lat="44.35543" lon="1.01038">
        <ele>254.89</ele>
        <time>2015-09-27T08:18:08Z</time>
      </trkpt>
      <trkpt lat="44.35544" lon="1.01034">
        <ele>254.89</ele>
        <time>2015-09-27T08:18:09Z</time>
      </trkpt>
      <trkpt lat="44.35546" lon="1.0103">
        <ele>254.89</ele>
        <time>2015-09-27T08:18:10Z</time>
      </trkpt>
      <trkpt lat="44.35548" lon="1.01026">
        <ele>254.89</ele>
        <time>2015-09-27T08:18:11Z</time>
      </trkpt>
      <trkpt lat="44.35569" lon="1.00993">
        <ele>255.37</ele>
        <time>2015-09-27T08:18:19Z</time>
      </trkpt>
      <trkpt lat="44.35624" lon="1.00913">
        <ele>253.93</ele>
        <time>2015-09-27T08:18:36Z</time>
      </trkpt>
      <trkpt lat="44.35659" lon="1.00865">
        <ele>252</ele>
        <time>2015-09-27T08:18:45Z</time>
      </trkpt>
      <trkpt lat="44.35663" lon="1.00861">
        <ele>252</ele>
        <time>2015-09-27T08:18:46Z</time>
      </trkpt>
      <trkpt lat="44.35667" lon="1.00859">
        <ele>252</ele>
        <time>2015-09-27T08:18:47Z</time>
      </trkpt>
      <trkpt lat="44.35671" lon="1.00859">
        <ele>252</ele>
        <time>2015-09-27T08:18:48Z</time>
      </trkpt>
      <trkpt lat="44.35675" lon="1.0086">
        <ele>252</ele>
        <time>2015-09-27T08:18:49Z</time>
      </trkpt>
      <trkpt lat="44.35678" lon="1.00863">
        <ele>252.48</ele>
        <time>2015-09-27T08:18:50Z</time>
      </trkpt>
      <trkpt lat="44.35712" lon="1.00885">
        <ele>254.89</ele>
        <time>2015-09-27T08:19:02Z</time>
      </trkpt>
      <trkpt lat="44.35713" lon="1.00883">
        <ele>254.89</ele>
        <time>2015-09-27T08:19:03Z</time>
      </trkpt>
      <trkpt lat="44.35714" lon="1.00879">
        <ele>254.89</ele>
        <time>2015-09-27T08:19:04Z</time>
      </trkpt>
      <trkpt lat="44.35713" lon="1.00876">
        <ele>254.89</ele>
        <time>2015-09-27T08:19:05Z</time>
      </trkpt>
      <trkpt lat="44.3571" lon="1.00872">
        <ele>254.89</ele>
        <time>2015-09-27T08:19:06Z</time>
      </trkpt>
      <trkpt lat="44.35707" lon="1.00868">
        <ele>254.41</ele>
        <time>2015-09-27T08:19:07Z</time>
      </trkpt>
      <trkpt lat="44.35704" lon="1.00864">
        <ele>253.93</ele>
        <time>2015-09-27T08:19:08Z</time>
      </trkpt>
      <trkpt lat="44.35701" lon="1.00858">
        <ele>253.44</ele>
        <time>2015-09-27T08:19:09Z</time>
      </trkpt>
      <trkpt lat="44.35697" lon="1.00851">
        <ele>252.48</ele>
        <time>2015-09-27T08:19:10Z</time>
      </trkpt>
      <trkpt lat="44.3568" lon="1.0081">
        <ele>250.08</ele>
        <time>2015-09-27T08:19:15Z</time>
      </trkpt>
      <trkpt lat="44.35678" lon="1.00801">
        <ele>250.08</ele>
        <time>2015-09-27T08:19:16Z</time>
      </trkpt>
      <trkpt lat="44.35678" lon="1.00793">
        <ele>249.6</ele>
        <time>2015-09-27T08:19:17Z</time>
      </trkpt>
      <trkpt lat="44.3568" lon="1.00785">
        <ele>249.6</ele>
        <time>2015-09-27T08:19:18Z</time>
      </trkpt>
      <trkpt lat="44.35684" lon="1.00779">
        <ele>249.6</ele>
        <time>2015-09-27T08:19:19Z</time>
      </trkpt>
      <trkpt lat="44.35689" lon="1.00773">
        <ele>249.6</ele>
        <time>2015-09-27T08:19:20Z</time>
      </trkpt>
      <trkpt lat="44.35725" lon="1.00733">
        <ele>249.12</ele>
        <time>2015-09-27T08:19:27Z</time>
      </trkpt>
      <trkpt lat="44.3573" lon="1.00726">
        <ele>249.12</ele>
        <time>2015-09-27T08:19:28Z</time>
      </trkpt>
      <trkpt lat="44.35733" lon="1.00718">
        <ele>249.12</ele>
        <time>2015-09-27T08:19:29Z</time>
      </trkpt>
      <trkpt lat="44.35746" lon="1.00676">
        <ele>249.12</ele>
        <time>2015-09-27T08:19:34Z</time>
      </trkpt>
      <trkpt lat="44.35748" lon="1.00667">
        <ele>249.12</ele>
        <time>2015-09-27T08:19:35Z</time>
      </trkpt>
      <trkpt lat="44.35749" lon="1.00659">
        <ele>248.64</ele>
        <time>2015-09-27T08:19:36Z</time>
      </trkpt>
      <trkpt lat="44.3575" lon="1.00651">
        <ele>248.64</ele>
        <time>2015-09-27T08:19:37Z</time>
      </trkpt>
      <trkpt lat="44.35752" lon="1.00643">
        <ele>248.16</ele>
        <time>2015-09-27T08:19:38Z</time>
      </trkpt>
      <trkpt lat="44.35756" lon="1.00637">
        <ele>248.16</ele>
        <time>2015-09-27T08:19:39Z</time>
      </trkpt>
      <trkpt lat="44.3576" lon="1.00631">
        <ele>247.68</ele>
        <time>2015-09-27T08:19:40Z</time>
      </trkpt>
      <trkpt lat="44.35772" lon="1.00619">
        <ele>246.72</ele>
        <time>2015-09-27T08:19:42Z</time>
      </trkpt>
      <trkpt lat="44.35801" lon="1.00607">
        <ele>243.35</ele>
        <time>2015-09-27T08:19:46Z</time>
      </trkpt>
      <trkpt lat="44.35833" lon="1.00603">
        <ele>241.43</ele>
        <time>2015-09-27T08:19:50Z</time>
      </trkpt>
      <trkpt lat="44.35877" lon="1.00573">
        <ele>242.87</ele>
        <time>2015-09-27T08:19:59Z</time>
      </trkpt>
      <trkpt lat="44.35885" lon="1.00569">
        <ele>243.35</ele>
        <time>2015-09-27T08:20:07Z</time>
      </trkpt>
      <trkpt lat="44.35887" lon="1.00571">
        <ele>242.87</ele>
        <time>2015-09-27T08:20:36Z</time>
      </trkpt>
      <trkpt lat="44.35887" lon="1.00571">
        <ele>243.83</ele>
        <time>2015-09-27T08:21:10Z</time>
      </trkpt>
      <trkpt lat="44.35886" lon="1.00571">
        <ele>244.79</ele>
        <time>2015-09-27T08:21:39Z</time>
      </trkpt>
      <trkpt lat="44.35885" lon="1.00571">
        <ele>244.79</ele>
        <time>2015-09-27T08:22:11Z</time>
      </trkpt>
      <trkpt lat="44.35885" lon="1.00571">
        <ele>244.79</ele>
        <time>2015-09-27T08:22:42Z</time>
      </trkpt>
      <trkpt lat="44.35885" lon="1.00571">
        <ele>243.83</ele>
        <time>2015-09-27T08:23:22Z</time>
      </trkpt>
      <trkpt lat="44.35885" lon="1.00571">
        <ele>243.35</ele>
        <time>2015-09-27T08:23:58Z</time>
      </trkpt>
      <trkpt lat="44.35885" lon="1.00571">
        <ele>242.39</ele>
        <time>2015-09-27T08:24:28Z</time>
      </trkpt>
      <trkpt lat="44.35886" lon="1.00571">
        <ele>242.39</ele>
        <time>2015-09-27T08:25:01Z</time>
      </trkpt>
      <trkpt lat="44.35886" lon="1.0057">
        <ele>243.35</ele>
        <time>2015-09-27T08:25:38Z</time>
      </trkpt>
      <trkpt lat="44.35886" lon="1.00571">
        <ele>242.87</ele>
        <time>2015-09-27T08:26:15Z</time>
      </trkpt>
      <trkpt lat="44.35887" lon="1.00571">
        <ele>243.35</ele>
        <time>2015-09-27T08:26:39Z</time>
      </trkpt>
      <trkpt lat="44.35889" lon="1.00569">
        <ele>243.83</ele>
        <time>2015-09-27T08:26:51Z</time>
      </trkpt>
      <trkpt lat="44.35909" lon="1.00568">
        <ele>248.16</ele>
        <time>2015-09-27T08:27:03Z</time>
      </trkpt>
      <trkpt lat="44.35932" lon="1.00575">
        <ele>252.48</ele>
        <time>2015-09-27T08:27:16Z</time>
      </trkpt>
      <trkpt lat="44.3596" lon="1.00584">
        <ele>257.77</ele>
        <time>2015-09-27T08:27:28Z</time>
      </trkpt>
      <trkpt lat="44.36004" lon="1.00598">
        <ele>256.33</ele>
        <time>2015-09-27T08:27:39Z</time>
      </trkpt>
      <trkpt lat="44.36091" lon="1.00637">
        <ele>251.52</ele>
        <time>2015-09-27T08:27:57Z</time>
      </trkpt>
      <trkpt lat="44.36172" lon="1.00676">
        <ele>243.35</ele>
        <time>2015-09-27T08:28:08Z</time>
      </trkpt>
      <trkpt lat="44.36189" lon="1.00685">
        <ele>241.91</ele>
        <time>2015-09-27T08:28:10Z</time>
      </trkpt>
      <trkpt lat="44.36248" lon="1.007">
        <ele>241.91</ele>
        <time>2015-09-27T08:28:18Z</time>
      </trkpt>
      <trkpt lat="44.36282" lon="1.00703">
        <ele>245.75</ele>
        <time>2015-09-27T08:28:29Z</time>
      </trkpt>
      <trkpt lat="44.36318" lon="1.00709">
        <ele>249.12</ele>
        <time>2015-09-27T08:28:43Z</time>
      </trkpt>
      <trkpt lat="44.36351" lon="1.00712">
        <ele>252</ele>
        <time>2015-09-27T08:28:57Z</time>
      </trkpt>
      <trkpt lat="44.36382" lon="1.00719">
        <ele>257.29</ele>
        <time>2015-09-27T08:29:10Z</time>
      </trkpt>
      <trkpt lat="44.36417" lon="1.0069">
        <ele>257.29</ele>
        <time>2015-09-27T08:29:21Z</time>
      </trkpt>
      <trkpt lat="44.3646" lon="1.00637">
        <ele>258.25</ele>
        <time>2015-09-27T08:29:37Z</time>
      </trkpt>
      <trkpt lat="44.36498" lon="1.00588">
        <ele>261.14</ele>
        <time>2015-09-27T08:29:55Z</time>
      </trkpt>
      <trkpt lat="44.36532" lon="1.00546">
        <ele>263.06</ele>
        <time>2015-09-27T08:30:10Z</time>
      </trkpt>
      <trkpt lat="44.36535" lon="1.00546">
        <ele>263.54</ele>
        <time>2015-09-27T08:30:11Z</time>
      </trkpt>
      <trkpt lat="44.36539" lon="1.00547">
        <ele>263.54</ele>
        <time>2015-09-27T08:30:12Z</time>
      </trkpt>
      <trkpt lat="44.36543" lon="1.00549">
        <ele>263.54</ele>
        <time>2015-09-27T08:30:13Z</time>
      </trkpt>
      <trkpt lat="44.36548" lon="1.00552">
        <ele>263.06</ele>
        <time>2015-09-27T08:30:14Z</time>
      </trkpt>
      <trkpt lat="44.36552" lon="1.00556">
        <ele>262.58</ele>
        <time>2015-09-27T08:30:15Z</time>
      </trkpt>
      <trkpt lat="44.36557" lon="1.0056">
        <ele>262.1</ele>
        <time>2015-09-27T08:30:16Z</time>
      </trkpt>
      <trkpt lat="44.36563" lon="1.00565">
        <ele>261.14</ele>
        <time>2015-09-27T08:30:17Z</time>
      </trkpt>
      <trkpt lat="44.36569" lon="1.0057">
        <ele>260.65</ele>
        <time>2015-09-27T08:30:18Z</time>
      </trkpt>
      <trkpt lat="44.36606" lon="1.00591">
        <ele>256.81</ele>
        <time>2015-09-27T08:30:23Z</time>
      </trkpt>
      <trkpt lat="44.36613" lon="1.00597">
        <ele>256.33</ele>
        <time>2015-09-27T08:30:24Z</time>
      </trkpt>
      <trkpt lat="44.36694" lon="1.00673">
        <ele>244.79</ele>
        <time>2015-09-27T08:30:35Z</time>
      </trkpt>
      <trkpt lat="44.36707" lon="1.00682">
        <ele>243.83</ele>
        <time>2015-09-27T08:30:37Z</time>
      </trkpt>
      <trkpt lat="44.36713" lon="1.00685">
        <ele>243.35</ele>
        <time>2015-09-27T08:30:38Z</time>
      </trkpt>
      <trkpt lat="44.36719" lon="1.00685">
        <ele>242.87</ele>
        <time>2015-09-27T08:30:39Z</time>
      </trkpt>
      <trkpt lat="44.36724" lon="1.00681">
        <ele>242.39</ele>
        <time>2015-09-27T08:30:40Z</time>
      </trkpt>
      <trkpt lat="44.36729" lon="1.00675">
        <ele>242.39</ele>
        <time>2015-09-27T08:30:41Z</time>
      </trkpt>
      <trkpt lat="44.36734" lon="1.00669">
        <ele>241.91</ele>
        <time>2015-09-27T08:30:42Z</time>
      </trkpt>
      <trkpt lat="44.36739" lon="1.00662">
        <ele>241.91</ele>
        <time>2015-09-27T08:30:43Z</time>
      </trkpt>
      <trkpt lat="44.36788" lon="1.00602">
        <ele>239.99</ele>
        <time>2015-09-27T08:30:53Z</time>
      </trkpt>
      <trkpt lat="44.36799" lon="1.00594">
        <ele>239.99</ele>
        <time>2015-09-27T08:30:55Z</time>
      </trkpt>
      <trkpt lat="44.36805" lon="1.00592">
        <ele>239.99</ele>
        <time>2015-09-27T08:30:56Z</time>
      </trkpt>
      <trkpt lat="44.3681" lon="1.00592">
        <ele>239.99</ele>
        <time>2015-09-27T08:30:57Z</time>
      </trkpt>
      <trkpt lat="44.36815" lon="1.00593">
        <ele>239.51</ele>
        <time>2015-09-27T08:30:58Z</time>
      </trkpt>
      <trkpt lat="44.36819" lon="1.00591">
        <ele>239.51</ele>
        <time>2015-09-27T08:30:59Z</time>
      </trkpt>
      <trkpt lat="44.36825" lon="1.00581">
        <ele>239.02</ele>
        <time>2015-09-27T08:31:01Z</time>
      </trkpt>
      <trkpt lat="44.36842" lon="1.00529">
        <ele>234.22</ele>
        <time>2015-09-27T08:31:10Z</time>
      </trkpt>
      <trkpt lat="44.36852" lon="1.00514">
        <ele>231.81</ele>
        <time>2015-09-27T08:31:14Z</time>
      </trkpt>
      <trkpt lat="44.36855" lon="1.00514">
        <ele>231.33</ele>
        <time>2015-09-27T08:31:15Z</time>
      </trkpt>
      <trkpt lat="44.36858" lon="1.00516">
        <ele>230.37</ele>
        <time>2015-09-27T08:31:16Z</time>
      </trkpt>
      <trkpt lat="44.3686" lon="1.00518">
        <ele>230.37</ele>
        <time>2015-09-27T08:31:17Z</time>
      </trkpt>
      <trkpt lat="44.36862" lon="1.00521">
        <ele>229.89</ele>
        <time>2015-09-27T08:31:18Z</time>
      </trkpt>
      <trkpt lat="44.36864" lon="1.00524">
        <ele>229.41</ele>
        <time>2015-09-27T08:31:19Z</time>
      </trkpt>
      <trkpt lat="44.36865" lon="1.00529">
        <ele>228.93</ele>
        <time>2015-09-27T08:31:20Z</time>
      </trkpt>
      <trkpt lat="44.36866" lon="1.00534">
        <ele>228.45</ele>
        <time>2015-09-27T08:31:21Z</time>
      </trkpt>
      <trkpt lat="44.3687" lon="1.00548">
        <ele>227.01</ele>
        <time>2015-09-27T08:31:26Z</time>
      </trkpt>
      <trkpt lat="44.36871" lon="1.00549">
        <ele>226.53</ele>
        <time>2015-09-27T08:31:27Z</time>
      </trkpt>
      <trkpt lat="44.36872" lon="1.0055">
        <ele>226.05</ele>
        <time>2015-09-27T08:31:28Z</time>
      </trkpt>
      <trkpt lat="44.36874" lon="1.0055">
        <ele>225.57</ele>
        <time>2015-09-27T08:31:29Z</time>
      </trkpt>
      <trkpt lat="44.36876" lon="1.00551">
        <ele>224.61</ele>
        <time>2015-09-27T08:31:30Z</time>
      </trkpt>
      <trkpt lat="44.36879" lon="1.00551">
        <ele>224.12</ele>
        <time>2015-09-27T08:31:31Z</time>
      </trkpt>
      <trkpt lat="44.36882" lon="1.00554">
        <ele>223.64</ele>
        <time>2015-09-27T08:31:32Z</time>
      </trkpt>
      <trkpt lat="44.36885" lon="1.00557">
        <ele>222.68</ele>
        <time>2015-09-27T08:31:33Z</time>
      </trkpt>
      <trkpt lat="44.36888" lon="1.0056">
        <ele>222.2</ele>
        <time>2015-09-27T08:31:34Z</time>
      </trkpt>
      <trkpt lat="44.3689" lon="1.00565">
        <ele>221.72</ele>
        <time>2015-09-27T08:31:35Z</time>
      </trkpt>
      <trkpt lat="44.36892" lon="1.0057">
        <ele>221.24</ele>
        <time>2015-09-27T08:31:36Z</time>
      </trkpt>
      <trkpt lat="44.36895" lon="1.00576">
        <ele>220.28</ele>
        <time>2015-09-27T08:31:37Z</time>
      </trkpt>
      <trkpt lat="44.36918" lon="1.00603">
        <ele>213.07</ele>
        <time>2015-09-27T08:31:46Z</time>
      </trkpt>
      <trkpt lat="44.3692" lon="1.00602">
        <ele>212.11</ele>
        <time>2015-09-27T08:31:47Z</time>
      </trkpt>
      <trkpt lat="44.36921" lon="1.00601">
        <ele>211.63</ele>
        <time>2015-09-27T08:31:48Z</time>
      </trkpt>
      <trkpt lat="44.36922" lon="1.006">
        <ele>210.67</ele>
        <time>2015-09-27T08:31:49Z</time>
      </trkpt>
      <trkpt lat="44.36924" lon="1.00599">
        <ele>210.19</ele>
        <time>2015-09-27T08:31:50Z</time>
      </trkpt>
      <trkpt lat="44.36925" lon="1.00598">
        <ele>209.7</ele>
        <time>2015-09-27T08:31:51Z</time>
      </trkpt>
      <trkpt lat="44.36927" lon="1.00596">
        <ele>209.22</ele>
        <time>2015-09-27T08:31:52Z</time>
      </trkpt>
      <trkpt lat="44.36932" lon="1.00595">
        <ele>207.3</ele>
        <time>2015-09-27T08:31:55Z</time>
      </trkpt>
      <trkpt lat="44.36938" lon="1.00628">
        <ele>203.94</ele>
        <time>2015-09-27T08:32:00Z</time>
      </trkpt>
      <trkpt lat="44.36938" lon="1.00638">
        <ele>202.49</ele>
        <time>2015-09-27T08:32:02Z</time>
      </trkpt>
      <trkpt lat="44.36937" lon="1.00641">
        <ele>202.01</ele>
        <time>2015-09-27T08:32:03Z</time>
      </trkpt>
      <trkpt lat="44.36936" lon="1.00643">
        <ele>202.01</ele>
        <time>2015-09-27T08:32:04Z</time>
      </trkpt>
      <trkpt lat="44.36935" lon="1.00645">
        <ele>201.53</ele>
        <time>2015-09-27T08:32:05Z</time>
      </trkpt>
      <trkpt lat="44.36933" lon="1.00647">
        <ele>201.53</ele>
        <time>2015-09-27T08:32:06Z</time>
      </trkpt>
      <trkpt lat="44.36933" lon="1.00649">
        <ele>201.53</ele>
        <time>2015-09-27T08:32:07Z</time>
      </trkpt>
      <trkpt lat="44.36932" lon="1.00651">
        <ele>202.01</ele>
        <time>2015-09-27T08:32:08Z</time>
      </trkpt>
      <trkpt lat="44.36932" lon="1.00653">
        <ele>202.01</ele>
        <time>2015-09-27T08:32:09Z</time>
      </trkpt>
      <trkpt lat="44.36932" lon="1.00661">
        <ele>202.49</ele>
        <time>2015-09-27T08:32:20Z</time>
      </trkpt>
      <trkpt lat="44.36934" lon="1.00683">
        <ele>206.82</ele>
        <time>2015-09-27T08:32:32Z</time>
      </trkpt>
      <trkpt lat="44.36931" lon="1.00719">
        <ele>211.15</ele>
        <time>2015-09-27T08:32:41Z</time>
      </trkpt>
      <trkpt lat="44.36932" lon="1.00722">
        <ele>211.63</ele>
        <time>2015-09-27T08:32:42Z</time>
      </trkpt>
      <trkpt lat="44.36934" lon="1.00723">
        <ele>211.63</ele>
        <time>2015-09-27T08:32:43Z</time>
      </trkpt>
      <trkpt lat="44.36936" lon="1.00722">
        <ele>212.11</ele>
        <time>2015-09-27T08:32:44Z</time>
      </trkpt>
      <trkpt lat="44.36938" lon="1.0072">
        <ele>212.11</ele>
        <time>2015-09-27T08:32:45Z</time>
      </trkpt>
      <trkpt lat="44.36939" lon="1.00715">
        <ele>212.59</ele>
        <time>2015-09-27T08:32:46Z</time>
      </trkpt>
      <trkpt lat="44.36941" lon="1.0071">
        <ele>212.11</ele>
        <time>2015-09-27T08:32:47Z</time>
      </trkpt>
      <trkpt lat="44.36943" lon="1.00706">
        <ele>212.11</ele>
        <time>2015-09-27T08:32:48Z</time>
      </trkpt>
      <trkpt lat="44.36945" lon="1.00703">
        <ele>211.63</ele>
        <time>2015-09-27T08:32:49Z</time>
      </trkpt>
      <trkpt lat="44.36953" lon="1.00715">
        <ele>211.15</ele>
        <time>2015-09-27T08:32:52Z</time>
      </trkpt>
      <trkpt lat="44.36963" lon="1.00734">
        <ele>209.7</ele>
        <time>2015-09-27T08:32:55Z</time>
      </trkpt>
      <trkpt lat="44.3697" lon="1.00746">
        <ele>207.78</ele>
        <time>2015-09-27T08:32:57Z</time>
      </trkpt>
      <trkpt lat="44.36986" lon="1.00768">
        <ele>201.53</ele>
        <time>2015-09-27T08:33:02Z</time>
      </trkpt>
      <trkpt lat="44.36987" lon="1.00773">
        <ele>199.61</ele>
        <time>2015-09-27T08:33:03Z</time>
      </trkpt>
      <trkpt lat="44.36987" lon="1.00779">
        <ele>199.13</ele>
        <time>2015-09-27T08:33:04Z</time>
      </trkpt>
      <trkpt lat="44.36985" lon="1.00786">
        <ele>197.69</ele>
        <time>2015-09-27T08:33:05Z</time>
      </trkpt>
      <trkpt lat="44.36984" lon="1.00794">
        <ele>196.73</ele>
        <time>2015-09-27T08:33:06Z</time>
      </trkpt>
      <trkpt lat="44.36983" lon="1.00802">
        <ele>195.77</ele>
        <time>2015-09-27T08:33:07Z</time>
      </trkpt>
      <trkpt lat="44.36984" lon="1.00811">
        <ele>194.32</ele>
        <time>2015-09-27T08:33:08Z</time>
      </trkpt>
      <trkpt lat="44.36985" lon="1.0082">
        <ele>193.36</ele>
        <time>2015-09-27T08:33:09Z</time>
      </trkpt>
      <trkpt lat="44.36986" lon="1.00828">
        <ele>192.88</ele>
        <time>2015-09-27T08:33:10Z</time>
      </trkpt>
      <trkpt lat="44.36989" lon="1.00837">
        <ele>191.92</ele>
        <time>2015-09-27T08:33:11Z</time>
      </trkpt>
      <trkpt lat="44.37003" lon="1.0088">
        <ele>187.11</ele>
        <time>2015-09-27T08:33:16Z</time>
      </trkpt>
      <trkpt lat="44.37006" lon="1.00886">
        <ele>186.15</ele>
        <time>2015-09-27T08:33:17Z</time>
      </trkpt>
      <trkpt lat="44.37014" lon="1.00906">
        <ele>182.79</ele>
        <time>2015-09-27T08:33:25Z</time>
      </trkpt>
      <trkpt lat="44.37016" lon="1.0091">
        <ele>182.31</ele>
        <time>2015-09-27T08:33:27Z</time>
      </trkpt>
      <trkpt lat="44.37017" lon="1.00913">
        <ele>182.31</ele>
        <time>2015-09-27T08:33:28Z</time>
      </trkpt>
      <trkpt lat="44.37019" lon="1.00915">
        <ele>181.83</ele>
        <time>2015-09-27T08:33:29Z</time>
      </trkpt>
      <trkpt lat="44.37021" lon="1.00915">
        <ele>181.83</ele>
        <time>2015-09-27T08:33:30Z</time>
      </trkpt>
      <trkpt lat="44.37022" lon="1.00914">
        <ele>181.83</ele>
        <time>2015-09-27T08:33:31Z</time>
      </trkpt>
      <trkpt lat="44.37024" lon="1.00914">
        <ele>181.83</ele>
        <time>2015-09-27T08:33:32Z</time>
      </trkpt>
      <trkpt lat="44.37026" lon="1.00914">
        <ele>181.83</ele>
        <time>2015-09-27T08:33:33Z</time>
      </trkpt>
      <trkpt lat="44.37029" lon="1.00913">
        <ele>181.83</ele>
        <time>2015-09-27T08:33:34Z</time>
      </trkpt>
      <trkpt lat="44.37032" lon="1.00913">
        <ele>182.31</ele>
        <time>2015-09-27T08:33:35Z</time>
      </trkpt>
      <trkpt lat="44.37042" lon="1.00912">
        <ele>183.27</ele>
        <time>2015-09-27T08:33:38Z</time>
      </trkpt>
      <trkpt lat="44.37044" lon="1.00915">
        <ele>183.75</ele>
        <time>2015-09-27T08:33:39Z</time>
      </trkpt>
      <trkpt lat="44.37043" lon="1.00925">
        <ele>185.19</ele>
        <time>2015-09-27T08:33:44Z</time>
      </trkpt>
      <trkpt lat="44.37041" lon="1.00927">
        <ele>185.67</ele>
        <time>2015-09-27T08:33:45Z</time>
      </trkpt>
      <trkpt lat="44.37014" lon="1.00943">
        <ele>190</ele>
        <time>2015-09-27T08:33:54Z</time>
      </trkpt>
      <trkpt lat="44.36982" lon="1.00988">
        <ele>190.96</ele>
        <time>2015-09-27T08:34:06Z</time>
      </trkpt>
      <trkpt lat="44.3696" lon="1.01032">
        <ele>193.84</ele>
        <time>2015-09-27T08:34:17Z</time>
      </trkpt>
      <trkpt lat="44.3694" lon="1.01097">
        <ele>196.25</ele>
        <time>2015-09-27T08:34:29Z</time>
      </trkpt>
      <trkpt lat="44.36927" lon="1.01139">
        <ele>194.32</ele>
        <time>2015-09-27T08:34:37Z</time>
      </trkpt>
      <trkpt lat="44.36919" lon="1.01202">
        <ele>190.96</ele>
        <time>2015-09-27T08:34:49Z</time>
      </trkpt>
      <trkpt lat="44.36919" lon="1.01211">
        <ele>190.96</ele>
        <time>2015-09-27T08:34:51Z</time>
      </trkpt>
      <trkpt lat="44.36917" lon="1.01249">
        <ele>189.52</ele>
        <time>2015-09-27T08:35:02Z</time>
      </trkpt>
      <trkpt lat="44.36917" lon="1.01292">
        <ele>190</ele>
        <time>2015-09-27T08:35:15Z</time>
      </trkpt>
      <trkpt lat="44.36914" lon="1.0134">
        <ele>190.48</ele>
        <time>2015-09-27T08:35:27Z</time>
      </trkpt>
      <trkpt lat="44.36912" lon="1.01389">
        <ele>194.32</ele>
        <time>2015-09-27T08:35:39Z</time>
      </trkpt>
      <trkpt lat="44.36916" lon="1.01432">
        <ele>197.69</ele>
        <time>2015-09-27T08:35:51Z</time>
      </trkpt>
      <trkpt lat="44.36923" lon="1.01474">
        <ele>201.05</ele>
        <time>2015-09-27T08:36:03Z</time>
      </trkpt>
      <trkpt lat="44.36925" lon="1.01518">
        <ele>202.49</ele>
        <time>2015-09-27T08:36:15Z</time>
      </trkpt>
      <trkpt lat="44.3693" lon="1.01569">
        <ele>202.49</ele>
        <time>2015-09-27T08:36:29Z</time>
      </trkpt>
      <trkpt lat="44.36929" lon="1.01591">
        <ele>202.01</ele>
        <time>2015-09-27T08:36:35Z</time>
      </trkpt>
      <trkpt lat="44.36925" lon="1.01636">
        <ele>202.01</ele>
        <time>2015-09-27T08:36:49Z</time>
      </trkpt>
      <trkpt lat="44.36919" lon="1.01675">
        <ele>201.53</ele>
        <time>2015-09-27T08:37:02Z</time>
      </trkpt>
      <trkpt lat="44.3692" lon="1.01685">
        <ele>201.53</ele>
        <time>2015-09-27T08:37:06Z</time>
      </trkpt>
      <trkpt lat="44.36918" lon="1.01722">
        <ele>203.94</ele>
        <time>2015-09-27T08:37:21Z</time>
      </trkpt>
      <trkpt lat="44.36919" lon="1.01726">
        <ele>203.94</ele>
        <time>2015-09-27T08:37:23Z</time>
      </trkpt>
      <trkpt lat="44.3692" lon="1.01762">
        <ele>203.94</ele>
        <time>2015-09-27T08:37:38Z</time>
      </trkpt>
      <trkpt lat="44.36923" lon="1.01803">
        <ele>208.26</ele>
        <time>2015-09-27T08:37:53Z</time>
      </trkpt>
      <trkpt lat="44.36933" lon="1.01837">
        <ele>216.43</ele>
        <time>2015-09-27T08:38:07Z</time>
      </trkpt>
      <trkpt lat="44.36945" lon="1.01867">
        <ele>220.28</ele>
        <time>2015-09-27T08:38:20Z</time>
      </trkpt>
      <trkpt lat="44.36955" lon="1.01895">
        <ele>226.53</ele>
        <time>2015-09-27T08:38:32Z</time>
      </trkpt>
      <trkpt lat="44.36971" lon="1.0193">
        <ele>235.66</ele>
        <time>2015-09-27T08:38:47Z</time>
      </trkpt>
      <trkpt lat="44.36982" lon="1.01959">
        <ele>239.02</ele>
        <time>2015-09-27T08:38:59Z</time>
      </trkpt>
      <trkpt lat="44.36996" lon="1.01997">
        <ele>239.02</ele>
        <time>2015-09-27T08:39:14Z</time>
      </trkpt>
      <trkpt lat="44.36999" lon="1.0203">
        <ele>239.51</ele>
        <time>2015-09-27T08:39:26Z</time>
      </trkpt>
      <trkpt lat="44.36994" lon="1.02066">
        <ele>239.02</ele>
        <time>2015-09-27T08:39:39Z</time>
      </trkpt>
      <trkpt lat="44.3698" lon="1.02109">
        <ele>242.87</ele>
        <time>2015-09-27T08:39:55Z</time>
      </trkpt>
      <trkpt lat="44.36954" lon="1.02142">
        <ele>244.31</ele>
        <time>2015-09-27T08:40:07Z</time>
      </trkpt>
      <trkpt lat="44.36909" lon="1.02173">
        <ele>246.72</ele>
        <time>2015-09-27T08:40:20Z</time>
      </trkpt>
      <trkpt lat="44.36855" lon="1.02204">
        <ele>247.68</ele>
        <time>2015-09-27T08:40:35Z</time>
      </trkpt>
      <trkpt lat="44.3685" lon="1.02205">
        <ele>247.68</ele>
        <time>2015-09-27T08:40:36Z</time>
      </trkpt>
      <trkpt lat="44.36814" lon="1.02231">
        <ele>249.6</ele>
        <time>2015-09-27T08:40:47Z</time>
      </trkpt>
      <trkpt lat="44.36788" lon="1.02255">
        <ele>251.52</ele>
        <time>2015-09-27T08:40:59Z</time>
      </trkpt>
      <trkpt lat="44.36784" lon="1.0226">
        <ele>251.04</ele>
        <time>2015-09-27T08:41:01Z</time>
      </trkpt>
      <trkpt lat="44.36774" lon="1.02273">
        <ele>249.6</ele>
        <time>2015-09-27T08:41:07Z</time>
      </trkpt>
      <trkpt lat="44.36751" lon="1.02299">
        <ele>250.56</ele>
        <time>2015-09-27T08:41:19Z</time>
      </trkpt>
      <trkpt lat="44.36727" lon="1.0233">
        <ele>259.21</ele>
        <time>2015-09-27T08:41:32Z</time>
      </trkpt>
      <trkpt lat="44.36703" lon="1.02365">
        <ele>263.54</ele>
        <time>2015-09-27T08:41:44Z</time>
      </trkpt>
      <trkpt lat="44.36676" lon="1.02414">
        <ele>261.62</ele>
        <time>2015-09-27T08:41:56Z</time>
      </trkpt>
      <trkpt lat="44.3666" lon="1.02469">
        <ele>260.17</ele>
        <time>2015-09-27T08:42:07Z</time>
      </trkpt>
      <trkpt lat="44.3664" lon="1.02509">
        <ele>261.14</ele>
        <time>2015-09-27T08:42:18Z</time>
      </trkpt>
      <trkpt lat="44.36612" lon="1.02545">
        <ele>262.58</ele>
        <time>2015-09-27T08:42:30Z</time>
      </trkpt>
      <trkpt lat="44.36578" lon="1.02579">
        <ele>261.62</ele>
        <time>2015-09-27T08:42:42Z</time>
      </trkpt>
      <trkpt lat="44.36525" lon="1.02633">
        <ele>261.62</ele>
        <time>2015-09-27T08:42:57Z</time>
      </trkpt>
      <trkpt lat="44.36521" lon="1.02637">
        <ele>261.62</ele>
        <time>2015-09-27T08:42:58Z</time>
      </trkpt>
      <trkpt lat="44.36497" lon="1.02669">
        <ele>261.62</ele>
        <time>2015-09-27T08:43:05Z</time>
      </trkpt>
      <trkpt lat="44.36482" lon="1.02704">
        <ele>261.62</ele>
        <time>2015-09-27T08:43:11Z</time>
      </trkpt>
      <trkpt lat="44.36453" lon="1.02782">
        <ele>263.54</ele>
        <time>2015-09-27T08:43:25Z</time>
      </trkpt>
      <trkpt lat="44.36433" lon="1.02811">
        <ele>264.02</ele>
        <time>2015-09-27T08:43:31Z</time>
      </trkpt>
      <trkpt lat="44.3643" lon="1.02817">
        <ele>264.02</ele>
        <time>2015-09-27T08:43:32Z</time>
      </trkpt>
      <trkpt lat="44.36428" lon="1.02823">
        <ele>264.02</ele>
        <time>2015-09-27T08:43:33Z</time>
      </trkpt>
      <trkpt lat="44.36427" lon="1.02829">
        <ele>264.5</ele>
        <time>2015-09-27T08:43:34Z</time>
      </trkpt>
      <trkpt lat="44.36426" lon="1.02836">
        <ele>264.5</ele>
        <time>2015-09-27T08:43:35Z</time>
      </trkpt>
      <trkpt lat="44.36425" lon="1.02842">
        <ele>264.5</ele>
        <time>2015-09-27T08:43:36Z</time>
      </trkpt>
      <trkpt lat="44.36425" lon="1.02849">
        <ele>264.5</ele>
        <time>2015-09-27T08:43:37Z</time>
      </trkpt>
      <trkpt lat="44.36421" lon="1.02961">
        <ele>266.42</ele>
        <time>2015-09-27T08:43:54Z</time>
      </trkpt>
      <trkpt lat="44.36417" lon="1.03045">
        <ele>267.86</ele>
        <time>2015-09-27T08:44:07Z</time>
      </trkpt>
      <trkpt lat="44.36406" lon="1.03143">
        <ele>269.31</ele>
        <time>2015-09-27T08:44:22Z</time>
      </trkpt>
      <trkpt lat="44.36405" lon="1.0325">
        <ele>265.94</ele>
        <time>2015-09-27T08:44:35Z</time>
      </trkpt>
      <trkpt lat="44.36404" lon="1.03416">
        <ele>257.77</ele>
        <time>2015-09-27T08:44:47Z</time>
      </trkpt>
      <trkpt lat="44.36386" lon="1.03578">
        <ele>252.96</ele>
        <time>2015-09-27T08:45:00Z</time>
      </trkpt>
      <trkpt lat="44.36389" lon="1.03739">
        <ele>252.96</ele>
        <time>2015-09-27T08:45:15Z</time>
      </trkpt>
      <trkpt lat="44.36386" lon="1.03866">
        <ele>252.96</ele>
        <time>2015-09-27T08:45:29Z</time>
      </trkpt>
      <trkpt lat="44.36361" lon="1.03988">
        <ele>254.41</ele>
        <time>2015-09-27T08:45:47Z</time>
      </trkpt>
      <trkpt lat="44.36316" lon="1.04085">
        <ele>256.81</ele>
        <time>2015-09-27T08:46:04Z</time>
      </trkpt>
      <trkpt lat="44.36278" lon="1.04188">
        <ele>255.37</ele>
        <time>2015-09-27T08:46:18Z</time>
      </trkpt>
      <trkpt lat="44.36268" lon="1.04329">
        <ele>254.41</ele>
        <time>2015-09-27T08:46:32Z</time>
      </trkpt>
      <trkpt lat="44.36274" lon="1.04445">
        <ele>259.21</ele>
        <time>2015-09-27T08:46:45Z</time>
      </trkpt>
      <trkpt lat="44.36275" lon="1.04453">
        <ele>259.21</ele>
        <time>2015-09-27T08:46:46Z</time>
      </trkpt>
      <trkpt lat="44.36278" lon="1.0446">
        <ele>259.69</ele>
        <time>2015-09-27T08:46:47Z</time>
      </trkpt>
      <trkpt lat="44.36281" lon="1.04465">
        <ele>259.69</ele>
        <time>2015-09-27T08:46:48Z</time>
      </trkpt>
      <trkpt lat="44.36286" lon="1.04468">
        <ele>260.17</ele>
        <time>2015-09-27T08:46:49Z</time>
      </trkpt>
      <trkpt lat="44.36292" lon="1.0447">
        <ele>260.65</ele>
        <time>2015-09-27T08:46:50Z</time>
      </trkpt>
      <trkpt lat="44.36375" lon="1.04489">
        <ele>258.73</ele>
        <time>2015-09-27T08:47:03Z</time>
      </trkpt>
      <trkpt lat="44.36454" lon="1.04469">
        <ele>253.44</ele>
        <time>2015-09-27T08:47:13Z</time>
      </trkpt>
      <trkpt lat="44.36463" lon="1.04471">
        <ele>252.48</ele>
        <time>2015-09-27T08:47:14Z</time>
      </trkpt>
      <trkpt lat="44.36471" lon="1.04475">
        <ele>251.52</ele>
        <time>2015-09-27T08:47:15Z</time>
      </trkpt>
      <trkpt lat="44.3656" lon="1.04528">
        <ele>242.39</ele>
        <time>2015-09-27T08:47:24Z</time>
      </trkpt>
      <trkpt lat="44.36576" lon="1.04538">
        <ele>241.91</ele>
        <time>2015-09-27T08:47:26Z</time>
      </trkpt>
      <trkpt lat="44.36584" lon="1.04545">
        <ele>241.43</ele>
        <time>2015-09-27T08:47:27Z</time>
      </trkpt>
      <trkpt lat="44.3665" lon="1.04615">
        <ele>241.91</ele>
        <time>2015-09-27T08:47:38Z</time>
      </trkpt>
      <trkpt lat="44.36715" lon="1.04681">
        <ele>241.91</ele>
        <time>2015-09-27T08:47:51Z</time>
      </trkpt>
      <trkpt lat="44.36811" lon="1.04744">
        <ele>235.66</ele>
        <time>2015-09-27T08:48:04Z</time>
      </trkpt>
      <trkpt lat="44.36819" lon="1.04747">
        <ele>235.18</ele>
        <time>2015-09-27T08:48:05Z</time>
      </trkpt>
      <trkpt lat="44.36846" lon="1.04755">
        <ele>233.26</ele>
        <time>2015-09-27T08:48:09Z</time>
      </trkpt>
      <trkpt lat="44.3685" lon="1.0476">
        <ele>233.26</ele>
        <time>2015-09-27T08:48:10Z</time>
      </trkpt>
      <trkpt lat="44.36853" lon="1.04766">
        <ele>232.78</ele>
        <time>2015-09-27T08:48:11Z</time>
      </trkpt>
      <trkpt lat="44.36856" lon="1.04772">
        <ele>232.78</ele>
        <time>2015-09-27T08:48:12Z</time>
      </trkpt>
      <trkpt lat="44.36859" lon="1.04778">
        <ele>232.78</ele>
        <time>2015-09-27T08:48:13Z</time>
      </trkpt>
      <trkpt lat="44.36863" lon="1.04782">
        <ele>232.3</ele>
        <time>2015-09-27T08:48:14Z</time>
      </trkpt>
      <trkpt lat="44.36865" lon="1.04787">
        <ele>232.3</ele>
        <time>2015-09-27T08:48:15Z</time>
      </trkpt>
      <trkpt lat="44.36866" lon="1.04792">
        <ele>232.3</ele>
        <time>2015-09-27T08:48:16Z</time>
      </trkpt>
      <trkpt lat="44.36866" lon="1.04797">
        <ele>232.3</ele>
        <time>2015-09-27T08:48:17Z</time>
      </trkpt>
      <trkpt lat="44.36864" lon="1.04801">
        <ele>232.3</ele>
        <time>2015-09-27T08:48:18Z</time>
      </trkpt>
      <trkpt lat="44.36862" lon="1.04805">
        <ele>232.3</ele>
        <time>2015-09-27T08:48:19Z</time>
      </trkpt>
      <trkpt lat="44.36855" lon="1.04818">
        <ele>231.81</ele>
        <time>2015-09-27T08:48:22Z</time>
      </trkpt>
      <trkpt lat="44.36843" lon="1.04841">
        <ele>232.3</ele>
        <time>2015-09-27T08:48:26Z</time>
      </trkpt>
      <trkpt lat="44.3684" lon="1.04846">
        <ele>232.3</ele>
        <time>2015-09-27T08:48:27Z</time>
      </trkpt>
      <trkpt lat="44.36837" lon="1.0485">
        <ele>232.3</ele>
        <time>2015-09-27T08:48:28Z</time>
      </trkpt>
      <trkpt lat="44.36834" lon="1.04856">
        <ele>232.78</ele>
        <time>2015-09-27T08:48:29Z</time>
      </trkpt>
      <trkpt lat="44.36831" lon="1.04862">
        <ele>232.78</ele>
        <time>2015-09-27T08:48:30Z</time>
      </trkpt>
      <trkpt lat="44.36785" lon="1.04946">
        <ele>230.85</ele>
        <time>2015-09-27T08:48:43Z</time>
      </trkpt>
      <trkpt lat="44.3673" lon="1.05004">
        <ele>232.78</ele>
        <time>2015-09-27T08:48:56Z</time>
      </trkpt>
      <trkpt lat="44.36726" lon="1.05008">
        <ele>232.78</ele>
        <time>2015-09-27T08:48:57Z</time>
      </trkpt>
      <trkpt lat="44.36722" lon="1.05012">
        <ele>232.78</ele>
        <time>2015-09-27T08:48:58Z</time>
      </trkpt>
      <trkpt lat="44.36718" lon="1.05016">
        <ele>232.78</ele>
        <time>2015-09-27T08:48:59Z</time>
      </trkpt>
      <trkpt lat="44.36714" lon="1.0502">
        <ele>232.78</ele>
        <time>2015-09-27T08:49:00Z</time>
      </trkpt>
      <trkpt lat="44.36685" lon="1.05045">
        <ele>232.3</ele>
        <time>2015-09-27T08:49:07Z</time>
      </trkpt>
      <trkpt lat="44.36656" lon="1.0507">
        <ele>232.3</ele>
        <time>2015-09-27T08:49:14Z</time>
      </trkpt>
      <trkpt lat="44.36632" lon="1.05086">
        <ele>233.74</ele>
        <time>2015-09-27T08:49:19Z</time>
      </trkpt>
      <trkpt lat="44.36604" lon="1.05102">
        <ele>235.18</ele>
        <time>2015-09-27T08:49:25Z</time>
      </trkpt>
      <trkpt lat="44.366" lon="1.05106">
        <ele>235.18</ele>
        <time>2015-09-27T08:49:26Z</time>
      </trkpt>
      <trkpt lat="44.36597" lon="1.05111">
        <ele>235.66</ele>
        <time>2015-09-27T08:49:27Z</time>
      </trkpt>
      <trkpt lat="44.36577" lon="1.05158">
        <ele>236.62</ele>
        <time>2015-09-27T08:49:37Z</time>
      </trkpt>
      <trkpt lat="44.36578" lon="1.05162">
        <ele>237.1</ele>
        <time>2015-09-27T08:49:38Z</time>
      </trkpt>
      <trkpt lat="44.36579" lon="1.05167">
        <ele>237.1</ele>
        <time>2015-09-27T08:49:39Z</time>
      </trkpt>
      <trkpt lat="44.36611" lon="1.05217">
        <ele>240.95</ele>
        <time>2015-09-27T08:49:51Z</time>
      </trkpt>
      <trkpt lat="44.36614" lon="1.05222">
        <ele>240.47</ele>
        <time>2015-09-27T08:49:52Z</time>
      </trkpt>
      <trkpt lat="44.36616" lon="1.05228">
        <ele>240.95</ele>
        <time>2015-09-27T08:49:53Z</time>
      </trkpt>
      <trkpt lat="44.36618" lon="1.05234">
        <ele>240.95</ele>
        <time>2015-09-27T08:49:54Z</time>
      </trkpt>
      <trkpt lat="44.36619" lon="1.0524">
        <ele>240.95</ele>
        <time>2015-09-27T08:49:55Z</time>
      </trkpt>
      <trkpt lat="44.3662" lon="1.05246">
        <ele>241.43</ele>
        <time>2015-09-27T08:49:56Z</time>
      </trkpt>
      <trkpt lat="44.36621" lon="1.05252">
        <ele>241.43</ele>
        <time>2015-09-27T08:49:57Z</time>
      </trkpt>
      <trkpt lat="44.36621" lon="1.05258">
        <ele>241.43</ele>
        <time>2015-09-27T08:49:58Z</time>
      </trkpt>
      <trkpt lat="44.3662" lon="1.05263">
        <ele>241.43</ele>
        <time>2015-09-27T08:49:59Z</time>
      </trkpt>
      <trkpt lat="44.36618" lon="1.05269">
        <ele>241.43</ele>
        <time>2015-09-27T08:50:00Z</time>
      </trkpt>
      <trkpt lat="44.36617" lon="1.05274">
        <ele>241.43</ele>
        <time>2015-09-27T08:50:01Z</time>
      </trkpt>
      <trkpt lat="44.36597" lon="1.05322">
        <ele>244.31</ele>
        <time>2015-09-27T08:50:14Z</time>
      </trkpt>
      <trkpt lat="44.36564" lon="1.05375">
        <ele>244.79</ele>
        <time>2015-09-27T08:50:27Z</time>
      </trkpt>
      <trkpt lat="44.36533" lon="1.05425">
        <ele>245.27</ele>
        <time>2015-09-27T08:50:40Z</time>
      </trkpt>
      <trkpt lat="44.36503" lon="1.05474">
        <ele>249.12</ele>
        <time>2015-09-27T08:50:53Z</time>
      </trkpt>
      <trkpt lat="44.36493" lon="1.05524">
        <ele>252.48</ele>
        <time>2015-09-27T08:51:04Z</time>
      </trkpt>
      <trkpt lat="44.36498" lon="1.05568">
        <ele>253.93</ele>
        <time>2015-09-27T08:51:15Z</time>
      </trkpt>
      <trkpt lat="44.36503" lon="1.05632">
        <ele>254.89</ele>
        <time>2015-09-27T08:51:30Z</time>
      </trkpt>
      <trkpt lat="44.36506" lon="1.05676">
        <ele>257.29</ele>
        <time>2015-09-27T08:51:43Z</time>
      </trkpt>
      <trkpt lat="44.36524" lon="1.05723">
        <ele>258.73</ele>
        <time>2015-09-27T08:51:57Z</time>
      </trkpt>
      <trkpt lat="44.36533" lon="1.0574">
        <ele>259.21</ele>
        <time>2015-09-27T08:52:02Z</time>
      </trkpt>
      <trkpt lat="44.36545" lon="1.05742">
        <ele>259.69</ele>
        <time>2015-09-27T08:52:06Z</time>
      </trkpt>
      <trkpt lat="44.36576" lon="1.05718">
        <ele>259.21</ele>
        <time>2015-09-27T08:52:16Z</time>
      </trkpt>
      <trkpt lat="44.36602" lon="1.05734">
        <ele>256.33</ele>
        <time>2015-09-27T08:52:23Z</time>
      </trkpt>
      <trkpt lat="44.36603" lon="1.0574">
        <ele>255.85</ele>
        <time>2015-09-27T08:52:24Z</time>
      </trkpt>
      <trkpt lat="44.36608" lon="1.05756">
        <ele>254.41</ele>
        <time>2015-09-27T08:52:27Z</time>
      </trkpt>
      <trkpt lat="44.3661" lon="1.05768">
        <ele>253.93</ele>
        <time>2015-09-27T08:52:29Z</time>
      </trkpt>
      <trkpt lat="44.36612" lon="1.05836">
        <ele>253.93</ele>
        <time>2015-09-27T08:52:43Z</time>
      </trkpt>
      <trkpt lat="44.3662" lon="1.05883">
        <ele>252.96</ele>
        <time>2015-09-27T08:52:51Z</time>
      </trkpt>
      <trkpt lat="44.3663" lon="1.05922">
        <ele>250.56</ele>
        <time>2015-09-27T08:52:57Z</time>
      </trkpt>
      <trkpt lat="44.36642" lon="1.05944">
        <ele>249.6</ele>
        <time>2015-09-27T08:53:01Z</time>
      </trkpt>
      <trkpt lat="44.36652" lon="1.05953">
        <ele>249.6</ele>
        <time>2015-09-27T08:53:05Z</time>
      </trkpt>
      <trkpt lat="44.36662" lon="1.05934">
        <ele>250.56</ele>
        <time>2015-09-27T08:53:12Z</time>
      </trkpt>
      <trkpt lat="44.36665" lon="1.0592">
        <ele>250.08</ele>
        <time>2015-09-27T08:53:14Z</time>
      </trkpt>
      <trkpt lat="44.36695" lon="1.05887">
        <ele>249.6</ele>
        <time>2015-09-27T08:53:21Z</time>
      </trkpt>
      <trkpt lat="44.36728" lon="1.0588">
        <ele>250.56</ele>
        <time>2015-09-27T08:53:28Z</time>
      </trkpt>
      <trkpt lat="44.36755" lon="1.05892">
        <ele>250.08</ele>
        <time>2015-09-27T08:53:34Z</time>
      </trkpt>
      <trkpt lat="44.36801" lon="1.0593">
        <ele>247.68</ele>
        <time>2015-09-27T08:53:43Z</time>
      </trkpt>
      <trkpt lat="44.3681" lon="1.0594">
        <ele>247.2</ele>
        <time>2015-09-27T08:53:45Z</time>
      </trkpt>
      <trkpt lat="44.36845" lon="1.05943">
        <ele>246.23</ele>
        <time>2015-09-27T08:53:51Z</time>
      </trkpt>
      <trkpt lat="44.36889" lon="1.05918">
        <ele>248.64</ele>
        <time>2015-09-27T08:54:03Z</time>
      </trkpt>
      <trkpt lat="44.36895" lon="1.05908">
        <ele>249.12</ele>
        <time>2015-09-27T08:54:05Z</time>
      </trkpt>
      <trkpt lat="44.36903" lon="1.05864">
        <ele>246.72</ele>
        <time>2015-09-27T08:54:11Z</time>
      </trkpt>
      <trkpt lat="44.36897" lon="1.05832">
        <ele>244.79</ele>
        <time>2015-09-27T08:54:17Z</time>
      </trkpt>
      <trkpt lat="44.36897" lon="1.05793">
        <ele>243.83</ele>
        <time>2015-09-27T08:54:27Z</time>
      </trkpt>
      <trkpt lat="44.369" lon="1.05775">
        <ele>244.31</ele>
        <time>2015-09-27T08:54:30Z</time>
      </trkpt>
      <trkpt lat="44.36901" lon="1.0575">
        <ele>243.83</ele>
        <time>2015-09-27T08:54:34Z</time>
      </trkpt>
      <trkpt lat="44.36897" lon="1.05707">
        <ele>242.87</ele>
        <time>2015-09-27T08:54:41Z</time>
      </trkpt>
      <trkpt lat="44.3689" lon="1.05671">
        <ele>241.91</ele>
        <time>2015-09-27T08:54:47Z</time>
      </trkpt>
      <trkpt lat="44.36886" lon="1.05641">
        <ele>241.91</ele>
        <time>2015-09-27T08:54:52Z</time>
      </trkpt>
      <trkpt lat="44.36895" lon="1.0559">
        <ele>241.43</ele>
        <time>2015-09-27T08:55:02Z</time>
      </trkpt>
      <trkpt lat="44.36908" lon="1.05567">
        <ele>241.91</ele>
        <time>2015-09-27T08:55:07Z</time>
      </trkpt>
      <trkpt lat="44.36945" lon="1.05505">
        <ele>241.43</ele>
        <time>2015-09-27T08:55:20Z</time>
      </trkpt>
      <trkpt lat="44.36961" lon="1.05473">
        <ele>241.43</ele>
        <time>2015-09-27T08:55:26Z</time>
      </trkpt>
      <trkpt lat="44.36976" lon="1.05456">
        <ele>241.43</ele>
        <time>2015-09-27T08:55:30Z</time>
      </trkpt>
      <trkpt lat="44.36992" lon="1.05429">
        <ele>240.95</ele>
        <time>2015-09-27T08:55:36Z</time>
      </trkpt>
      <trkpt lat="44.36993" lon="1.05404">
        <ele>240.47</ele>
        <time>2015-09-27T08:55:40Z</time>
      </trkpt>
      <trkpt lat="44.36993" lon="1.05377">
        <ele>239.51</ele>
        <time>2015-09-27T08:55:46Z</time>
      </trkpt>
      <trkpt lat="44.37054" lon="1.05322">
        <ele>237.58</ele>
        <time>2015-09-27T08:56:02Z</time>
      </trkpt>
      <trkpt lat="44.37078" lon="1.05296">
        <ele>235.66</ele>
        <time>2015-09-27T08:56:07Z</time>
      </trkpt>
      <trkpt lat="44.37133" lon="1.05262">
        <ele>233.74</ele>
        <time>2015-09-27T08:56:17Z</time>
      </trkpt>
      <trkpt lat="44.37157" lon="1.05277">
        <ele>234.22</ele>
        <time>2015-09-27T08:56:22Z</time>
      </trkpt>
      <trkpt lat="44.37189" lon="1.05278">
        <ele>233.74</ele>
        <time>2015-09-27T08:56:30Z</time>
      </trkpt>
      <trkpt lat="44.37221" lon="1.05253">
        <ele>231.81</ele>
        <time>2015-09-27T08:56:38Z</time>
      </trkpt>
      <trkpt lat="44.3723" lon="1.05246">
        <ele>231.33</ele>
        <time>2015-09-27T08:56:40Z</time>
      </trkpt>
      <trkpt lat="44.37254" lon="1.05245">
        <ele>228.93</ele>
        <time>2015-09-27T08:56:47Z</time>
      </trkpt>
      <trkpt lat="44.37251" lon="1.05257">
        <ele>228.45</ele>
        <time>2015-09-27T08:56:49Z</time>
      </trkpt>
      <trkpt lat="44.37247" lon="1.05268">
        <ele>227.97</ele>
        <time>2015-09-27T08:56:51Z</time>
      </trkpt>
      <trkpt lat="44.3724" lon="1.05292">
        <ele>227.01</ele>
        <time>2015-09-27T08:56:55Z</time>
      </trkpt>
      <trkpt lat="44.37236" lon="1.05303">
        <ele>226.53</ele>
        <time>2015-09-27T08:56:57Z</time>
      </trkpt>
      <trkpt lat="44.37208" lon="1.05325">
        <ele>227.49</ele>
        <time>2015-09-27T08:57:06Z</time>
      </trkpt>
      <trkpt lat="44.37171" lon="1.05335">
        <ele>231.81</ele>
        <time>2015-09-27T08:57:20Z</time>
      </trkpt>
      <trkpt lat="44.37128" lon="1.05366">
        <ele>235.18</ele>
        <time>2015-09-27T08:57:35Z</time>
      </trkpt>
      <trkpt lat="44.37084" lon="1.05409">
        <ele>236.14</ele>
        <time>2015-09-27T08:57:49Z</time>
      </trkpt>
      <trkpt lat="44.37053" lon="1.05454">
        <ele>235.66</ele>
        <time>2015-09-27T08:58:01Z</time>
      </trkpt>
      <trkpt lat="44.37035" lon="1.05483">
        <ele>234.7</ele>
        <time>2015-09-27T08:58:08Z</time>
      </trkpt>
      <trkpt lat="44.37029" lon="1.05532">
        <ele>233.74</ele>
        <time>2015-09-27T08:58:16Z</time>
      </trkpt>
      <trkpt lat="44.37032" lon="1.05553">
        <ele>233.74</ele>
        <time>2015-09-27T08:58:19Z</time>
      </trkpt>
      <trkpt lat="44.37037" lon="1.05574">
        <ele>234.22</ele>
        <time>2015-09-27T08:58:22Z</time>
      </trkpt>
      <trkpt lat="44.3704" lon="1.05613">
        <ele>236.14</ele>
        <time>2015-09-27T08:58:31Z</time>
      </trkpt>
      <trkpt lat="44.37015" lon="1.05667">
        <ele>237.1</ele>
        <time>2015-09-27T08:58:44Z</time>
      </trkpt>
      <trkpt lat="44.37004" lon="1.05674">
        <ele>237.1</ele>
        <time>2015-09-27T08:58:48Z</time>
      </trkpt>
      <trkpt lat="44.36979" lon="1.05718">
        <ele>235.66</ele>
        <time>2015-09-27T08:58:59Z</time>
      </trkpt>
      <trkpt lat="44.36958" lon="1.05763">
        <ele>234.7</ele>
        <time>2015-09-27T08:59:09Z</time>
      </trkpt>
      <trkpt lat="44.36959" lon="1.05773">
        <ele>234.7</ele>
        <time>2015-09-27T08:59:11Z</time>
      </trkpt>
      <trkpt lat="44.36958" lon="1.05793">
        <ele>234.22</ele>
        <time>2015-09-27T08:59:15Z</time>
      </trkpt>
      <trkpt lat="44.36954" lon="1.05809">
        <ele>233.74</ele>
        <time>2015-09-27T08:59:21Z</time>
      </trkpt>
      <trkpt lat="44.36952" lon="1.05813">
        <ele>233.74</ele>
        <time>2015-09-27T08:59:23Z</time>
      </trkpt>
      <trkpt lat="44.36955" lon="1.05856">
        <ele>235.66</ele>
        <time>2015-09-27T08:59:37Z</time>
      </trkpt>
      <trkpt lat="44.36962" lon="1.05892">
        <ele>238.54</ele>
        <time>2015-09-27T08:59:52Z</time>
      </trkpt>
      <trkpt lat="44.36965" lon="1.05908">
        <ele>239.51</ele>
        <time>2015-09-27T09:00:00Z</time>
      </trkpt>
      <trkpt lat="44.36992" lon="1.05919">
        <ele>242.87</ele>
        <time>2015-09-27T09:00:14Z</time>
      </trkpt>
      <trkpt lat="44.37025" lon="1.05929">
        <ele>243.83</ele>
        <time>2015-09-27T09:00:28Z</time>
      </trkpt>
      <trkpt lat="44.3704" lon="1.05964">
        <ele>244.31</ele>
        <time>2015-09-27T09:00:39Z</time>
      </trkpt>
      <trkpt lat="44.37054" lon="1.06008">
        <ele>242.39</ele>
        <time>2015-09-27T09:00:52Z</time>
      </trkpt>
      <trkpt lat="44.37043" lon="1.06073">
        <ele>239.99</ele>
        <time>2015-09-27T09:01:05Z</time>
      </trkpt>
      <trkpt lat="44.3702" lon="1.06103">
        <ele>240.47</ele>
        <time>2015-09-27T09:01:15Z</time>
      </trkpt>
      <trkpt lat="44.36996" lon="1.06134">
        <ele>241.43</ele>
        <time>2015-09-27T09:01:27Z</time>
      </trkpt>
      <trkpt lat="44.36976" lon="1.06158">
        <ele>241.91</ele>
        <time>2015-09-27T09:01:37Z</time>
      </trkpt>
      <trkpt lat="44.36974" lon="1.06161">
        <ele>241.91</ele>
        <time>2015-09-27T09:01:38Z</time>
      </trkpt>
      <trkpt lat="44.36949" lon="1.06164">
        <ele>243.83</ele>
        <time>2015-09-27T09:01:50Z</time>
      </trkpt>
      <trkpt lat="44.36926" lon="1.06179">
        <ele>246.23</ele>
        <time>2015-09-27T09:02:04Z</time>
      </trkpt>
      <trkpt lat="44.36922" lon="1.06196">
        <ele>246.23</ele>
        <time>2015-09-27T09:02:09Z</time>
      </trkpt>
      <trkpt lat="44.36907" lon="1.06222">
        <ele>247.2</ele>
        <time>2015-09-27T09:02:22Z</time>
      </trkpt>
      <trkpt lat="44.36892" lon="1.06258">
        <ele>247.2</ele>
        <time>2015-09-27T09:02:35Z</time>
      </trkpt>
      <trkpt lat="44.36885" lon="1.06289">
        <ele>246.23</ele>
        <time>2015-09-27T09:02:45Z</time>
      </trkpt>
      <trkpt lat="44.3688" lon="1.06314">
        <ele>246.23</ele>
        <time>2015-09-27T09:02:55Z</time>
      </trkpt>
      <trkpt lat="44.3688" lon="1.06314">
        <ele>246.23</ele>
        <time>2015-09-27T09:02:57Z</time>
      </trkpt>
      <trkpt lat="44.36881" lon="1.06322">
        <ele>245.75</ele>
        <time>2015-09-27T09:03:01Z</time>
      </trkpt>
      <trkpt lat="44.36881" lon="1.06332">
        <ele>243.83</ele>
        <time>2015-09-27T09:03:03Z</time>
      </trkpt>
      <trkpt lat="44.36864" lon="1.06367">
        <ele>241.91</ele>
        <time>2015-09-27T09:03:13Z</time>
      </trkpt>
      <trkpt lat="44.36865" lon="1.06386">
        <ele>244.31</ele>
        <time>2015-09-27T09:03:20Z</time>
      </trkpt>
      <trkpt lat="44.36877" lon="1.06417">
        <ele>244.31</ele>
        <time>2015-09-27T09:03:30Z</time>
      </trkpt>
      <trkpt lat="44.36874" lon="1.06447">
        <ele>244.79</ele>
        <time>2015-09-27T09:03:40Z</time>
      </trkpt>
      <trkpt lat="44.36863" lon="1.0648">
        <ele>247.68</ele>
        <time>2015-09-27T09:03:52Z</time>
      </trkpt>
      <trkpt lat="44.36854" lon="1.06521">
        <ele>251.04</ele>
        <time>2015-09-27T09:04:07Z</time>
      </trkpt>
      <trkpt lat="44.36853" lon="1.06562">
        <ele>255.37</ele>
        <time>2015-09-27T09:04:22Z</time>
      </trkpt>
      <trkpt lat="44.36852" lon="1.06569">
        <ele>256.81</ele>
        <time>2015-09-27T09:04:25Z</time>
      </trkpt>
      <trkpt lat="44.3685" lon="1.0657">
        <ele>257.29</ele>
        <time>2015-09-27T09:04:26Z</time>
      </trkpt>
      <trkpt lat="44.36849" lon="1.0657">
        <ele>257.29</ele>
        <time>2015-09-27T09:04:27Z</time>
      </trkpt>
      <trkpt lat="44.36847" lon="1.06571">
        <ele>257.29</ele>
        <time>2015-09-27T09:04:28Z</time>
      </trkpt>
      <trkpt lat="44.36846" lon="1.06571">
        <ele>257.29</ele>
        <time>2015-09-27T09:04:29Z</time>
      </trkpt>
      <trkpt lat="44.36844" lon="1.0657">
        <ele>258.25</ele>
        <time>2015-09-27T09:04:30Z</time>
      </trkpt>
      <trkpt lat="44.36843" lon="1.06569">
        <ele>258.73</ele>
        <time>2015-09-27T09:04:31Z</time>
      </trkpt>
      <trkpt lat="44.36841" lon="1.06569">
        <ele>258.73</ele>
        <time>2015-09-27T09:04:32Z</time>
      </trkpt>
      <trkpt lat="44.3684" lon="1.06568">
        <ele>259.21</ele>
        <time>2015-09-27T09:04:33Z</time>
      </trkpt>
      <trkpt lat="44.36839" lon="1.06566">
        <ele>259.69</ele>
        <time>2015-09-27T09:04:34Z</time>
      </trkpt>
      <trkpt lat="44.36838" lon="1.06565">
        <ele>260.17</ele>
        <time>2015-09-27T09:04:35Z</time>
      </trkpt>
      <trkpt lat="44.36836" lon="1.06563">
        <ele>260.17</ele>
        <time>2015-09-27T09:04:36Z</time>
      </trkpt>
      <trkpt lat="44.36831" lon="1.06535">
        <ele>262.1</ele>
        <time>2015-09-27T09:04:49Z</time>
      </trkpt>
      <trkpt lat="44.36827" lon="1.0653">
        <ele>262.58</ele>
        <time>2015-09-27T09:04:52Z</time>
      </trkpt>
      <trkpt lat="44.36803" lon="1.06525">
        <ele>265.94</ele>
        <time>2015-09-27T09:05:06Z</time>
      </trkpt>
      <trkpt lat="44.36776" lon="1.0653">
        <ele>268.35</ele>
        <time>2015-09-27T09:05:20Z</time>
      </trkpt>
      <trkpt lat="44.36752" lon="1.06541">
        <ele>270.75</ele>
        <time>2015-09-27T09:05:33Z</time>
      </trkpt>
      <trkpt lat="44.3675" lon="1.06547">
        <ele>271.23</ele>
        <time>2015-09-27T09:05:35Z</time>
      </trkpt>
      <trkpt lat="44.3675" lon="1.0655">
        <ele>271.23</ele>
        <time>2015-09-27T09:05:36Z</time>
      </trkpt>
      <trkpt lat="44.3675" lon="1.06554">
        <ele>271.23</ele>
        <time>2015-09-27T09:05:37Z</time>
      </trkpt>
      <trkpt lat="44.3675" lon="1.06557">
        <ele>271.23</ele>
        <time>2015-09-27T09:05:38Z</time>
      </trkpt>
      <trkpt lat="44.36751" lon="1.06562">
        <ele>271.23</ele>
        <time>2015-09-27T09:05:39Z</time>
      </trkpt>
      <trkpt lat="44.36762" lon="1.06649">
        <ele>271.23</ele>
        <time>2015-09-27T09:05:56Z</time>
      </trkpt>
      <trkpt lat="44.36771" lon="1.06709">
        <ele>271.23</ele>
        <time>2015-09-27T09:06:09Z</time>
      </trkpt>
      <trkpt lat="44.36773" lon="1.06737">
        <ele>269.79</ele>
        <time>2015-09-27T09:06:15Z</time>
      </trkpt>
      <trkpt lat="44.36792" lon="1.06748">
        <ele>270.27</ele>
        <time>2015-09-27T09:06:24Z</time>
      </trkpt>
      <trkpt lat="44.36834" lon="1.06749">
        <ele>268.35</ele>
        <time>2015-09-27T09:06:36Z</time>
      </trkpt>
      <trkpt lat="44.36871" lon="1.06749">
        <ele>269.79</ele>
        <time>2015-09-27T09:06:46Z</time>
      </trkpt>
      <trkpt lat="44.36872" lon="1.06752">
        <ele>269.79</ele>
        <time>2015-09-27T09:06:47Z</time>
      </trkpt>
      <trkpt lat="44.36872" lon="1.06807">
        <ele>274.11</ele>
        <time>2015-09-27T09:06:58Z</time>
      </trkpt>
      <trkpt lat="44.36872" lon="1.06828">
        <ele>276.04</ele>
        <time>2015-09-27T09:07:02Z</time>
      </trkpt>
      <trkpt lat="44.3689" lon="1.06905">
        <ele>276.52</ele>
        <time>2015-09-27T09:07:13Z</time>
      </trkpt>
      <trkpt lat="44.36906" lon="1.06944">
        <ele>274.59</ele>
        <time>2015-09-27T09:07:20Z</time>
      </trkpt>
      <trkpt lat="44.36909" lon="1.06949">
        <ele>274.11</ele>
        <time>2015-09-27T09:07:21Z</time>
      </trkpt>
      <trkpt lat="44.36937" lon="1.06991">
        <ele>271.23</ele>
        <time>2015-09-27T09:07:30Z</time>
      </trkpt>
      <trkpt lat="44.36939" lon="1.06996">
        <ele>270.75</ele>
        <time>2015-09-27T09:07:31Z</time>
      </trkpt>
      <trkpt lat="44.36942" lon="1.07007">
        <ele>270.27</ele>
        <time>2015-09-27T09:07:33Z</time>
      </trkpt>
      <trkpt lat="44.36943" lon="1.07013">
        <ele>269.79</ele>
        <time>2015-09-27T09:07:34Z</time>
      </trkpt>
      <trkpt lat="44.36947" lon="1.07047">
        <ele>267.38</ele>
        <time>2015-09-27T09:07:39Z</time>
      </trkpt>
      <trkpt lat="44.3696" lon="1.07143">
        <ele>267.38</ele>
        <time>2015-09-27T09:07:54Z</time>
      </trkpt>
      <trkpt lat="44.36962" lon="1.07176">
        <ele>266.42</ele>
        <time>2015-09-27T09:07:59Z</time>
      </trkpt>
      <trkpt lat="44.36963" lon="1.07183">
        <ele>266.42</ele>
        <time>2015-09-27T09:08:00Z</time>
      </trkpt>
      <trkpt lat="44.36967" lon="1.07202">
        <ele>266.9</ele>
        <time>2015-09-27T09:08:03Z</time>
      </trkpt>
      <trkpt lat="44.36977" lon="1.07262">
        <ele>266.9</ele>
        <time>2015-09-27T09:08:12Z</time>
      </trkpt>
      <trkpt lat="44.36978" lon="1.07275">
        <ele>266.9</ele>
        <time>2015-09-27T09:08:14Z</time>
      </trkpt>
      <trkpt lat="44.36981" lon="1.07288">
        <ele>267.38</ele>
        <time>2015-09-27T09:08:16Z</time>
      </trkpt>
      <trkpt lat="44.36986" lon="1.07328">
        <ele>267.86</ele>
        <time>2015-09-27T09:08:22Z</time>
      </trkpt>
      <trkpt lat="44.36988" lon="1.07348">
        <ele>267.86</ele>
        <time>2015-09-27T09:08:25Z</time>
      </trkpt>
      <trkpt lat="44.36988" lon="1.07377">
        <ele>268.35</ele>
        <time>2015-09-27T09:08:30Z</time>
      </trkpt>
      <trkpt lat="44.36984" lon="1.07379">
        <ele>268.35</ele>
        <time>2015-09-27T09:08:31Z</time>
      </trkpt>
      <trkpt lat="44.3698" lon="1.0738">
        <ele>268.35</ele>
        <time>2015-09-27T09:08:32Z</time>
      </trkpt>
      <trkpt lat="44.36976" lon="1.07381">
        <ele>268.35</ele>
        <time>2015-09-27T09:08:33Z</time>
      </trkpt>
      <trkpt lat="44.36971" lon="1.07382">
        <ele>268.35</ele>
        <time>2015-09-27T09:08:34Z</time>
      </trkpt>
      <trkpt lat="44.36966" lon="1.07382">
        <ele>267.86</ele>
        <time>2015-09-27T09:08:35Z</time>
      </trkpt>
      <trkpt lat="44.36886" lon="1.07386">
        <ele>264.02</ele>
        <time>2015-09-27T09:08:47Z</time>
      </trkpt>
      <trkpt lat="44.36809" lon="1.07396">
        <ele>259.21</ele>
        <time>2015-09-27T09:08:57Z</time>
      </trkpt>
      <trkpt lat="44.36801" lon="1.07401">
        <ele>258.73</ele>
        <time>2015-09-27T09:08:58Z</time>
      </trkpt>
      <trkpt lat="44.36793" lon="1.07406">
        <ele>258.25</ele>
        <time>2015-09-27T09:08:59Z</time>
      </trkpt>
      <trkpt lat="44.36786" lon="1.07413">
        <ele>257.77</ele>
        <time>2015-09-27T09:09:00Z</time>
      </trkpt>
      <trkpt lat="44.36778" lon="1.0742">
        <ele>256.81</ele>
        <time>2015-09-27T09:09:01Z</time>
      </trkpt>
      <trkpt lat="44.36771" lon="1.07427">
        <ele>256.33</ele>
        <time>2015-09-27T09:09:02Z</time>
      </trkpt>
      <trkpt lat="44.36697" lon="1.07495">
        <ele>252</ele>
        <time>2015-09-27T09:09:13Z</time>
      </trkpt>
      <trkpt lat="44.36692" lon="1.07498">
        <ele>252</ele>
        <time>2015-09-27T09:09:14Z</time>
      </trkpt>
      <trkpt lat="44.3669" lon="1.07503">
        <ele>252</ele>
        <time>2015-09-27T09:09:15Z</time>
      </trkpt>
      <trkpt lat="44.3669" lon="1.07509">
        <ele>252</ele>
        <time>2015-09-27T09:09:16Z</time>
      </trkpt>
      <trkpt lat="44.36691" lon="1.07516">
        <ele>251.52</ele>
        <time>2015-09-27T09:09:17Z</time>
      </trkpt>
      <trkpt lat="44.36693" lon="1.07524">
        <ele>250.56</ele>
        <time>2015-09-27T09:09:18Z</time>
      </trkpt>
      <trkpt lat="44.36695" lon="1.07532">
        <ele>250.08</ele>
        <time>2015-09-27T09:09:19Z</time>
      </trkpt>
      <trkpt lat="44.36712" lon="1.07602">
        <ele>248.16</ele>
        <time>2015-09-27T09:09:28Z</time>
      </trkpt>
      <trkpt lat="44.36713" lon="1.07626">
        <ele>248.16</ele>
        <time>2015-09-27T09:09:32Z</time>
      </trkpt>
      <trkpt lat="44.36704" lon="1.07648">
        <ele>248.64</ele>
        <time>2015-09-27T09:09:36Z</time>
      </trkpt>
      <trkpt lat="44.36668" lon="1.07744">
        <ele>249.12</ele>
        <time>2015-09-27T09:09:53Z</time>
      </trkpt>
      <trkpt lat="44.36628" lon="1.07845">
        <ele>250.56</ele>
        <time>2015-09-27T09:10:12Z</time>
      </trkpt>
      <trkpt lat="44.36626" lon="1.07851">
        <ele>250.08</ele>
        <time>2015-09-27T09:10:13Z</time>
      </trkpt>
      <trkpt lat="44.36627" lon="1.07877">
        <ele>249.6</ele>
        <time>2015-09-27T09:10:17Z</time>
      </trkpt>
      <trkpt lat="44.36635" lon="1.079">
        <ele>248.64</ele>
        <time>2015-09-27T09:10:20Z</time>
      </trkpt>
      <trkpt lat="44.3669" lon="1.08028">
        <ele>245.27</ele>
        <time>2015-09-27T09:10:36Z</time>
      </trkpt>
      <trkpt lat="44.36725" lon="1.08135">
        <ele>245.75</ele>
        <time>2015-09-27T09:10:51Z</time>
      </trkpt>
      <trkpt lat="44.36738" lon="1.08188">
        <ele>245.75</ele>
        <time>2015-09-27T09:10:59Z</time>
      </trkpt>
      <trkpt lat="44.36756" lon="1.0819">
        <ele>246.72</ele>
        <time>2015-09-27T09:11:08Z</time>
      </trkpt>
      <trkpt lat="44.36782" lon="1.08175">
        <ele>250.08</ele>
        <time>2015-09-27T09:11:23Z</time>
      </trkpt>
      <trkpt lat="44.36799" lon="1.08159">
        <ele>254.41</ele>
        <time>2015-09-27T09:11:38Z</time>
      </trkpt>
      <trkpt lat="44.36807" lon="1.08159">
        <ele>255.85</ele>
        <time>2015-09-27T09:11:44Z</time>
      </trkpt>
      <trkpt lat="44.36816" lon="1.0819">
        <ele>257.29</ele>
        <time>2015-09-27T09:11:56Z</time>
      </trkpt>
      <trkpt lat="44.36818" lon="1.08191">
        <ele>257.29</ele>
        <time>2015-09-27T09:11:57Z</time>
      </trkpt>
      <trkpt lat="44.36849" lon="1.08192">
        <ele>258.25</ele>
        <time>2015-09-27T09:12:08Z</time>
      </trkpt>
      <trkpt lat="44.36862" lon="1.08188">
        <ele>258.73</ele>
        <time>2015-09-27T09:12:13Z</time>
      </trkpt>
      <trkpt lat="44.36896" lon="1.08176">
        <ele>260.17</ele>
        <time>2015-09-27T09:12:23Z</time>
      </trkpt>
      <trkpt lat="44.3697" lon="1.0815">
        <ele>260.65</ele>
        <time>2015-09-27T09:12:41Z</time>
      </trkpt>
      <trkpt lat="44.37005" lon="1.08123">
        <ele>263.06</ele>
        <time>2015-09-27T09:12:54Z</time>
      </trkpt>
      <trkpt lat="44.37052" lon="1.08109">
        <ele>266.9</ele>
        <time>2015-09-27T09:13:10Z</time>
      </trkpt>
      <trkpt lat="44.37096" lon="1.08098">
        <ele>269.31</ele>
        <time>2015-09-27T09:13:27Z</time>
      </trkpt>
      <trkpt lat="44.37123" lon="1.08099">
        <ele>271.23</ele>
        <time>2015-09-27T09:13:37Z</time>
      </trkpt>
      <trkpt lat="44.37125" lon="1.08101">
        <ele>271.71</ele>
        <time>2015-09-27T09:13:38Z</time>
      </trkpt>
      <trkpt lat="44.37127" lon="1.08104">
        <ele>271.71</ele>
        <time>2015-09-27T09:13:39Z</time>
      </trkpt>
      <trkpt lat="44.37128" lon="1.08108">
        <ele>271.71</ele>
        <time>2015-09-27T09:13:40Z</time>
      </trkpt>
      <trkpt lat="44.3713" lon="1.08112">
        <ele>271.71</ele>
        <time>2015-09-27T09:13:41Z</time>
      </trkpt>
      <trkpt lat="44.37132" lon="1.08116">
        <ele>271.71</ele>
        <time>2015-09-27T09:13:42Z</time>
      </trkpt>
      <trkpt lat="44.37133" lon="1.08121">
        <ele>272.19</ele>
        <time>2015-09-27T09:13:43Z</time>
      </trkpt>
      <trkpt lat="44.37147" lon="1.08184">
        <ele>272.19</ele>
        <time>2015-09-27T09:13:55Z</time>
      </trkpt>
      <trkpt lat="44.37149" lon="1.08238">
        <ele>275.56</ele>
        <time>2015-09-27T09:14:06Z</time>
      </trkpt>
      <trkpt lat="44.37145" lon="1.08308">
        <ele>275.56</ele>
        <time>2015-09-27T09:14:19Z</time>
      </trkpt>
      <trkpt lat="44.37132" lon="1.08378">
        <ele>273.15</ele>
        <time>2015-09-27T09:14:32Z</time>
      </trkpt>
      <trkpt lat="44.3713" lon="1.08454">
        <ele>272.67</ele>
        <time>2015-09-27T09:14:48Z</time>
      </trkpt>
      <trkpt lat="44.37121" lon="1.08534">
        <ele>272.67</ele>
        <time>2015-09-27T09:15:04Z</time>
      </trkpt>
      <trkpt lat="44.37117" lon="1.08566">
        <ele>272.67</ele>
        <time>2015-09-27T09:15:10Z</time>
      </trkpt>
      <trkpt lat="44.37114" lon="1.08648">
        <ele>271.71</ele>
        <time>2015-09-27T09:15:25Z</time>
      </trkpt>
      <trkpt lat="44.37115" lon="1.08723">
        <ele>273.15</ele>
        <time>2015-09-27T09:15:41Z</time>
      </trkpt>
      <trkpt lat="44.37125" lon="1.08767">
        <ele>274.11</ele>
        <time>2015-09-27T09:15:52Z</time>
      </trkpt>
      <trkpt lat="44.37124" lon="1.08789">
        <ele>274.11</ele>
        <time>2015-09-27T09:15:56Z</time>
      </trkpt>
      <trkpt lat="44.37123" lon="1.08813">
        <ele>274.59</ele>
        <time>2015-09-27T09:16:00Z</time>
      </trkpt>
      <trkpt lat="44.37119" lon="1.0883">
        <ele>275.07</ele>
        <time>2015-09-27T09:16:03Z</time>
      </trkpt>
      <trkpt lat="44.37106" lon="1.08913">
        <ele>275.56</ele>
        <time>2015-09-27T09:16:16Z</time>
      </trkpt>
      <trkpt lat="44.37101" lon="1.08976">
        <ele>274.11</ele>
        <time>2015-09-27T09:16:25Z</time>
      </trkpt>
      <trkpt lat="44.37098" lon="1.09001">
        <ele>274.11</ele>
        <time>2015-09-27T09:16:29Z</time>
      </trkpt>
      <trkpt lat="44.3709" lon="1.09026">
        <ele>274.59</ele>
        <time>2015-09-27T09:16:33Z</time>
      </trkpt>
      <trkpt lat="44.37079" lon="1.09061">
        <ele>276.52</ele>
        <time>2015-09-27T09:16:39Z</time>
      </trkpt>
      <trkpt lat="44.37073" lon="1.09078">
        <ele>277.96</ele>
        <time>2015-09-27T09:16:42Z</time>
      </trkpt>
      <trkpt lat="44.37066" lon="1.09101">
        <ele>278.92</ele>
        <time>2015-09-27T09:16:46Z</time>
      </trkpt>
      <trkpt lat="44.37062" lon="1.09112">
        <ele>278.92</ele>
        <time>2015-09-27T09:16:48Z</time>
      </trkpt>
      <trkpt lat="44.37033" lon="1.09191">
        <ele>282.28</ele>
        <time>2015-09-27T09:17:03Z</time>
      </trkpt>
      <trkpt lat="44.37021" lon="1.0923">
        <ele>284.21</ele>
        <time>2015-09-27T09:17:10Z</time>
      </trkpt>
      <trkpt lat="44.37009" lon="1.09283">
        <ele>284.21</ele>
        <time>2015-09-27T09:17:20Z</time>
      </trkpt>
      <trkpt lat="44.37006" lon="1.09298">
        <ele>284.21</ele>
        <time>2015-09-27T09:17:23Z</time>
      </trkpt>
      <trkpt lat="44.36971" lon="1.09367">
        <ele>279.4</ele>
        <time>2015-09-27T09:17:38Z</time>
      </trkpt>
      <trkpt lat="44.36949" lon="1.09422">
        <ele>279.4</ele>
        <time>2015-09-27T09:17:49Z</time>
      </trkpt>
      <trkpt lat="44.36943" lon="1.09447">
        <ele>278.92</ele>
        <time>2015-09-27T09:17:53Z</time>
      </trkpt>
      <trkpt lat="44.36941" lon="1.09459">
        <ele>278.92</ele>
        <time>2015-09-27T09:17:55Z</time>
      </trkpt>
      <trkpt lat="44.36942" lon="1.09504">
        <ele>278.44</ele>
        <time>2015-09-27T09:18:01Z</time>
      </trkpt>
      <trkpt lat="44.36933" lon="1.09591">
        <ele>278.44</ele>
        <time>2015-09-27T09:18:13Z</time>
      </trkpt>
      <trkpt lat="44.36914" lon="1.09671">
        <ele>278.44</ele>
        <time>2015-09-27T09:18:28Z</time>
      </trkpt>
      <trkpt lat="44.36896" lon="1.09729">
        <ele>281.8</ele>
        <time>2015-09-27T09:18:43Z</time>
      </trkpt>
      <trkpt lat="44.36879" lon="1.09768">
        <ele>283.25</ele>
        <time>2015-09-27T09:18:53Z</time>
      </trkpt>
      <trkpt lat="44.36867" lon="1.09799">
        <ele>283.73</ele>
        <time>2015-09-27T09:18:59Z</time>
      </trkpt>
      <trkpt lat="44.36866" lon="1.09819">
        <ele>283.73</ele>
        <time>2015-09-27T09:19:06Z</time>
      </trkpt>
      <trkpt lat="44.36862" lon="1.09875">
        <ele>283.73</ele>
        <time>2015-09-27T09:19:20Z</time>
      </trkpt>
      <trkpt lat="44.36853" lon="1.09926">
        <ele>283.73</ele>
        <time>2015-09-27T09:19:32Z</time>
      </trkpt>
      <trkpt lat="44.36837" lon="1.09989">
        <ele>284.21</ele>
        <time>2015-09-27T09:19:46Z</time>
      </trkpt>
      <trkpt lat="44.36832" lon="1.10051">
        <ele>285.65</ele>
        <time>2015-09-27T09:20:00Z</time>
      </trkpt>
      <trkpt lat="44.36834" lon="1.10108">
        <ele>286.61</ele>
        <time>2015-09-27T09:20:13Z</time>
      </trkpt>
      <trkpt lat="44.36825" lon="1.1015">
        <ele>286.61</ele>
        <time>2015-09-27T09:20:23Z</time>
      </trkpt>
      <trkpt lat="44.36807" lon="1.10192">
        <ele>286.13</ele>
        <time>2015-09-27T09:20:32Z</time>
      </trkpt>
      <trkpt lat="44.36776" lon="1.10264">
        <ele>287.09</ele>
        <time>2015-09-27T09:20:47Z</time>
      </trkpt>
      <trkpt lat="44.36756" lon="1.10309">
        <ele>288.05</ele>
        <time>2015-09-27T09:21:00Z</time>
      </trkpt>
      <trkpt lat="44.36754" lon="1.10317">
        <ele>288.05</ele>
        <time>2015-09-27T09:21:03Z</time>
      </trkpt>
      <trkpt lat="44.36755" lon="1.10319">
        <ele>288.53</ele>
        <time>2015-09-27T09:21:04Z</time>
      </trkpt>
      <trkpt lat="44.36756" lon="1.10321">
        <ele>288.53</ele>
        <time>2015-09-27T09:21:05Z</time>
      </trkpt>
      <trkpt lat="44.36761" lon="1.10325">
        <ele>289.01</ele>
        <time>2015-09-27T09:21:16Z</time>
      </trkpt>
      <trkpt lat="44.36763" lon="1.10325">
        <ele>289.01</ele>
        <time>2015-09-27T09:21:33Z</time>
      </trkpt>
      <trkpt lat="44.36765" lon="1.10324">
        <ele>288.53</ele>
        <time>2015-09-27T09:22:11Z</time>
      </trkpt>
      <trkpt lat="44.36766" lon="1.10326">
        <ele>290.46</ele>
        <time>2015-09-27T09:22:50Z</time>
      </trkpt>
      <trkpt lat="44.36766" lon="1.10326">
        <ele>290.46</ele>
        <time>2015-09-27T09:23:25Z</time>
      </trkpt>
      <trkpt lat="44.36766" lon="1.10324">
        <ele>290.46</ele>
        <time>2015-09-27T09:24:04Z</time>
      </trkpt>
      <trkpt lat="44.36766" lon="1.10325">
        <ele>290.46</ele>
        <time>2015-09-27T09:24:44Z</time>
      </trkpt>
      <trkpt lat="44.36766" lon="1.10326">
        <ele>290.94</ele>
        <time>2015-09-27T09:25:19Z</time>
      </trkpt>
      <trkpt lat="44.36766" lon="1.10326">
        <ele>291.42</ele>
        <time>2015-09-27T09:25:53Z</time>
      </trkpt>
      <trkpt lat="44.36767" lon="1.10325">
        <ele>291.42</ele>
        <time>2015-09-27T09:26:29Z</time>
      </trkpt>
      <trkpt lat="44.36766" lon="1.10326">
        <ele>291.42</ele>
        <time>2015-09-27T09:27:07Z</time>
      </trkpt>
      <trkpt lat="44.36766" lon="1.10326">
        <ele>291.42</ele>
        <time>2015-09-27T09:27:49Z</time>
      </trkpt>
      <trkpt lat="44.36767" lon="1.10324">
        <ele>291.42</ele>
        <time>2015-09-27T09:28:34Z</time>
      </trkpt>
      <trkpt lat="44.36767" lon="1.10325">
        <ele>291.9</ele>
        <time>2015-09-27T09:29:09Z</time>
      </trkpt>
      <trkpt lat="44.36767" lon="1.10326">
        <ele>291.42</ele>
        <time>2015-09-27T09:29:45Z</time>
      </trkpt>
      <trkpt lat="44.36767" lon="1.10326">
        <ele>290.46</ele>
        <time>2015-09-27T09:30:23Z</time>
      </trkpt>
      <trkpt lat="44.36767" lon="1.10326">
        <ele>289.97</ele>
        <time>2015-09-27T09:30:55Z</time>
      </trkpt>
      <trkpt lat="44.36766" lon="1.10326">
        <ele>289.97</ele>
        <time>2015-09-27T09:31:29Z</time>
      </trkpt>
      <trkpt lat="44.36765" lon="1.10326">
        <ele>289.49</ele>
        <time>2015-09-27T09:32:05Z</time>
      </trkpt>
      <trkpt lat="44.36764" lon="1.10325">
        <ele>289.49</ele>
        <time>2015-09-27T09:32:25Z</time>
      </trkpt>
      <trkpt lat="44.36763" lon="1.10325">
        <ele>289.49</ele>
        <time>2015-09-27T09:32:47Z</time>
      </trkpt>
      <trkpt lat="44.36762" lon="1.10325">
        <ele>289.49</ele>
        <time>2015-09-27T09:32:48Z</time>
      </trkpt>
      <trkpt lat="44.3676" lon="1.10324">
        <ele>289.49</ele>
        <time>2015-09-27T09:32:49Z</time>
      </trkpt>
      <trkpt lat="44.36758" lon="1.10322">
        <ele>289.49</ele>
        <time>2015-09-27T09:32:51Z</time>
      </trkpt>
      <trkpt lat="44.36757" lon="1.10322">
        <ele>289.49</ele>
        <time>2015-09-27T09:32:52Z</time>
      </trkpt>
      <trkpt lat="44.36742" lon="1.10307">
        <ele>289.01</ele>
        <time>2015-09-27T09:32:59Z</time>
      </trkpt>
      <trkpt lat="44.36741" lon="1.10303">
        <ele>288.53</ele>
        <time>2015-09-27T09:33:00Z</time>
      </trkpt>
      <trkpt lat="44.36734" lon="1.10288">
        <ele>287.57</ele>
        <time>2015-09-27T09:33:03Z</time>
      </trkpt>
      <trkpt lat="44.36731" lon="1.10283">
        <ele>287.09</ele>
        <time>2015-09-27T09:33:04Z</time>
      </trkpt>
      <trkpt lat="44.36681" lon="1.10235">
        <ele>279.88</ele>
        <time>2015-09-27T09:33:13Z</time>
      </trkpt>
      <trkpt lat="44.36673" lon="1.10232">
        <ele>279.4</ele>
        <time>2015-09-27T09:33:14Z</time>
      </trkpt>
      <trkpt lat="44.36664" lon="1.10232">
        <ele>278.92</ele>
        <time>2015-09-27T09:33:15Z</time>
      </trkpt>
      <trkpt lat="44.3664" lon="1.10231">
        <ele>277.96</ele>
        <time>2015-09-27T09:33:18Z</time>
      </trkpt>
      <trkpt lat="44.36607" lon="1.10216">
        <ele>277.96</ele>
        <time>2015-09-27T09:33:23Z</time>
      </trkpt>
      <trkpt lat="44.36602" lon="1.10211">
        <ele>277.96</ele>
        <time>2015-09-27T09:33:24Z</time>
      </trkpt>
      <trkpt lat="44.36597" lon="1.10205">
        <ele>277.96</ele>
        <time>2015-09-27T09:33:25Z</time>
      </trkpt>
      <trkpt lat="44.36574" lon="1.10169">
        <ele>277.96</ele>
        <time>2015-09-27T09:33:32Z</time>
      </trkpt>
      <trkpt lat="44.36571" lon="1.10158">
        <ele>278.44</ele>
        <time>2015-09-27T09:33:34Z</time>
      </trkpt>
      <trkpt lat="44.36568" lon="1.10141">
        <ele>278.92</ele>
        <time>2015-09-27T09:33:37Z</time>
      </trkpt>
      <trkpt lat="44.36565" lon="1.10093">
        <ele>277.96</ele>
        <time>2015-09-27T09:33:44Z</time>
      </trkpt>
      <trkpt lat="44.36565" lon="1.10085">
        <ele>277.48</ele>
        <time>2015-09-27T09:33:45Z</time>
      </trkpt>
      <trkpt lat="44.36562" lon="1.1006">
        <ele>277</ele>
        <time>2015-09-27T09:33:48Z</time>
      </trkpt>
      <trkpt lat="44.36559" lon="1.10043">
        <ele>276.04</ele>
        <time>2015-09-27T09:33:50Z</time>
      </trkpt>
      <trkpt lat="44.36542" lon="1.09983">
        <ele>274.11</ele>
        <time>2015-09-27T09:33:57Z</time>
      </trkpt>
      <trkpt lat="44.36539" lon="1.09974">
        <ele>273.63</ele>
        <time>2015-09-27T09:33:58Z</time>
      </trkpt>
      <trkpt lat="44.36502" lon="1.09862">
        <ele>271.23</ele>
        <time>2015-09-27T09:34:12Z</time>
      </trkpt>
      <trkpt lat="44.3645" lon="1.09754">
        <ele>268.83</ele>
        <time>2015-09-27T09:34:26Z</time>
      </trkpt>
      <trkpt lat="44.36384" lon="1.09642">
        <ele>265.94</ele>
        <time>2015-09-27T09:34:41Z</time>
      </trkpt>
      <trkpt lat="44.36339" lon="1.09537">
        <ele>264.02</ele>
        <time>2015-09-27T09:34:53Z</time>
      </trkpt>
      <trkpt lat="44.36316" lon="1.09467">
        <ele>264.5</ele>
        <time>2015-09-27T09:35:01Z</time>
      </trkpt>
      <trkpt lat="44.36313" lon="1.09428">
        <ele>265.94</ele>
        <time>2015-09-27T09:35:06Z</time>
      </trkpt>
      <trkpt lat="44.36312" lon="1.09422">
        <ele>265.94</ele>
        <time>2015-09-27T09:35:07Z</time>
      </trkpt>
      <trkpt lat="44.3631" lon="1.09416">
        <ele>266.42</ele>
        <time>2015-09-27T09:35:08Z</time>
      </trkpt>
      <trkpt lat="44.36307" lon="1.0941">
        <ele>266.9</ele>
        <time>2015-09-27T09:35:09Z</time>
      </trkpt>
      <trkpt lat="44.36303" lon="1.09405">
        <ele>266.9</ele>
        <time>2015-09-27T09:35:10Z</time>
      </trkpt>
      <trkpt lat="44.363" lon="1.09401">
        <ele>267.38</ele>
        <time>2015-09-27T09:35:11Z</time>
      </trkpt>
      <trkpt lat="44.3625" lon="1.0935">
        <ele>266.9</ele>
        <time>2015-09-27T09:35:23Z</time>
      </trkpt>
      <trkpt lat="44.36249" lon="1.0935">
        <ele>266.9</ele>
        <time>2015-09-27T09:35:24Z</time>
      </trkpt>
      <trkpt lat="44.36248" lon="1.09351">
        <ele>266.42</ele>
        <time>2015-09-27T09:35:25Z</time>
      </trkpt>
      <trkpt lat="44.36246" lon="1.09354">
        <ele>266.42</ele>
        <time>2015-09-27T09:35:26Z</time>
      </trkpt>
      <trkpt lat="44.36245" lon="1.09356">
        <ele>266.42</ele>
        <time>2015-09-27T09:35:27Z</time>
      </trkpt>
      <trkpt lat="44.36244" lon="1.09359">
        <ele>266.42</ele>
        <time>2015-09-27T09:35:28Z</time>
      </trkpt>
      <trkpt lat="44.36243" lon="1.09363">
        <ele>266.42</ele>
        <time>2015-09-27T09:35:29Z</time>
      </trkpt>
      <trkpt lat="44.36241" lon="1.09367">
        <ele>266.42</ele>
        <time>2015-09-27T09:35:30Z</time>
      </trkpt>
      <trkpt lat="44.36239" lon="1.09371">
        <ele>266.9</ele>
        <time>2015-09-27T09:35:31Z</time>
      </trkpt>
      <trkpt lat="44.36198" lon="1.09443">
        <ele>266.42</ele>
        <time>2015-09-27T09:35:43Z</time>
      </trkpt>
      <trkpt lat="44.36166" lon="1.09504">
        <ele>264.02</ele>
        <time>2015-09-27T09:35:54Z</time>
      </trkpt>
      <trkpt lat="44.36158" lon="1.09517">
        <ele>263.06</ele>
        <time>2015-09-27T09:35:56Z</time>
      </trkpt>
      <trkpt lat="44.36111" lon="1.09588">
        <ele>255.37</ele>
        <time>2015-09-27T09:36:07Z</time>
      </trkpt>
      <trkpt lat="44.36067" lon="1.09673">
        <ele>248.64</ele>
        <time>2015-09-27T09:36:18Z</time>
      </trkpt>
      <trkpt lat="44.36058" lon="1.09685">
        <ele>247.2</ele>
        <time>2015-09-27T09:36:20Z</time>
      </trkpt>
      <trkpt lat="44.36052" lon="1.09703">
        <ele>246.72</ele>
        <time>2015-09-27T09:36:26Z</time>
      </trkpt>
      <trkpt lat="44.3606" lon="1.0971">
        <ele>247.2</ele>
        <time>2015-09-27T09:36:32Z</time>
      </trkpt>
      <trkpt lat="44.36085" lon="1.09733">
        <ele>251.52</ele>
        <time>2015-09-27T09:36:47Z</time>
      </trkpt>
      <trkpt lat="44.36096" lon="1.09767">
        <ele>252.96</ele>
        <time>2015-09-27T09:36:58Z</time>
      </trkpt>
      <trkpt lat="44.36112" lon="1.09805">
        <ele>253.44</ele>
        <time>2015-09-27T09:37:11Z</time>
      </trkpt>
      <trkpt lat="44.36129" lon="1.09834">
        <ele>253.44</ele>
        <time>2015-09-27T09:37:24Z</time>
      </trkpt>
      <trkpt lat="44.36135" lon="1.09852">
        <ele>254.89</ele>
        <time>2015-09-27T09:37:30Z</time>
      </trkpt>
      <trkpt lat="44.36139" lon="1.09865">
        <ele>254.41</ele>
        <time>2015-09-27T09:37:33Z</time>
      </trkpt>
      <trkpt lat="44.36142" lon="1.09876">
        <ele>253.93</ele>
        <time>2015-09-27T09:37:35Z</time>
      </trkpt>
      <trkpt lat="44.36164" lon="1.09962">
        <ele>251.04</ele>
        <time>2015-09-27T09:37:48Z</time>
      </trkpt>
      <trkpt lat="44.36178" lon="1.10007">
        <ele>251.04</ele>
        <time>2015-09-27T09:37:58Z</time>
      </trkpt>
      <trkpt lat="44.36181" lon="1.10019">
        <ele>250.56</ele>
        <time>2015-09-27T09:38:10Z</time>
      </trkpt>
      <trkpt lat="44.36182" lon="1.10022">
        <ele>250.56</ele>
        <time>2015-09-27T09:38:19Z</time>
      </trkpt>
      <trkpt lat="44.36183" lon="1.10023">
        <ele>250.56</ele>
        <time>2015-09-27T09:38:21Z</time>
      </trkpt>
      <trkpt lat="44.3618" lon="1.10051">
        <ele>252.96</ele>
        <time>2015-09-27T09:38:33Z</time>
      </trkpt>
      <trkpt lat="44.36149" lon="1.10077">
        <ele>251.52</ele>
        <time>2015-09-27T09:38:46Z</time>
      </trkpt>
      <trkpt lat="44.36121" lon="1.10126">
        <ele>251.04</ele>
        <time>2015-09-27T09:38:59Z</time>
      </trkpt>
      <trkpt lat="44.36096" lon="1.10184">
        <ele>252.96</ele>
        <time>2015-09-27T09:39:14Z</time>
      </trkpt>
      <trkpt lat="44.36087" lon="1.10254">
        <ele>256.33</ele>
        <time>2015-09-27T09:39:29Z</time>
      </trkpt>
      <trkpt lat="44.36097" lon="1.10328">
        <ele>254.89</ele>
        <time>2015-09-27T09:39:41Z</time>
      </trkpt>
      <trkpt lat="44.36095" lon="1.10352">
        <ele>252.48</ele>
        <time>2015-09-27T09:39:47Z</time>
      </trkpt>
      <trkpt lat="44.36084" lon="1.10349">
        <ele>250.56</ele>
        <time>2015-09-27T09:39:55Z</time>
      </trkpt>
      <trkpt lat="44.36073" lon="1.10348">
        <ele>250.08</ele>
        <time>2015-09-27T09:39:58Z</time>
      </trkpt>
      <trkpt lat="44.3606" lon="1.10346">
        <ele>249.12</ele>
        <time>2015-09-27T09:40:01Z</time>
      </trkpt>
      <trkpt lat="44.36047" lon="1.10343">
        <ele>248.16</ele>
        <time>2015-09-27T09:40:04Z</time>
      </trkpt>
      <trkpt lat="44.35999" lon="1.10339">
        <ele>245.75</ele>
        <time>2015-09-27T09:40:16Z</time>
      </trkpt>
      <trkpt lat="44.3599" lon="1.10337">
        <ele>245.75</ele>
        <time>2015-09-27T09:40:18Z</time>
      </trkpt>
      <trkpt lat="44.35977" lon="1.10338">
        <ele>244.79</ele>
        <time>2015-09-27T09:40:21Z</time>
      </trkpt>
      <trkpt lat="44.35956" lon="1.1032">
        <ele>242.39</ele>
        <time>2015-09-27T09:40:29Z</time>
      </trkpt>
      <trkpt lat="44.35956" lon="1.10311">
        <ele>241.91</ele>
        <time>2015-09-27T09:40:33Z</time>
      </trkpt>
      <trkpt lat="44.35968" lon="1.10288">
        <ele>243.35</ele>
        <time>2015-09-27T09:40:44Z</time>
      </trkpt>
      <trkpt lat="44.35971" lon="1.10283">
        <ele>243.83</ele>
        <time>2015-09-27T09:40:46Z</time>
      </trkpt>
      <trkpt lat="44.35977" lon="1.10258">
        <ele>244.79</ele>
        <time>2015-09-27T09:40:54Z</time>
      </trkpt>
      <trkpt lat="44.35986" lon="1.10225">
        <ele>246.72</ele>
        <time>2015-09-27T09:41:04Z</time>
      </trkpt>
      <trkpt lat="44.3599" lon="1.10221">
        <ele>247.2</ele>
        <time>2015-09-27T09:41:06Z</time>
      </trkpt>
      <trkpt lat="44.36007" lon="1.10187">
        <ele>249.6</ele>
        <time>2015-09-27T09:41:21Z</time>
      </trkpt>
      <trkpt lat="44.36027" lon="1.1017">
        <ele>252.48</ele>
        <time>2015-09-27T09:41:34Z</time>
      </trkpt>
      <trkpt lat="44.36038" lon="1.1014">
        <ele>251.52</ele>
        <time>2015-09-27T09:41:44Z</time>
      </trkpt>
      <trkpt lat="44.36042" lon="1.10135">
        <ele>251.04</ele>
        <time>2015-09-27T09:41:48Z</time>
      </trkpt>
      <trkpt lat="44.36047" lon="1.10124">
        <ele>251.04</ele>
        <time>2015-09-27T09:41:53Z</time>
      </trkpt>
      <trkpt lat="44.36046" lon="1.1009">
        <ele>248.64</ele>
        <time>2015-09-27T09:42:03Z</time>
      </trkpt>
      <trkpt lat="44.36053" lon="1.10087">
        <ele>248.16</ele>
        <time>2015-09-27T09:42:06Z</time>
      </trkpt>
      <trkpt lat="44.36061" lon="1.1008">
        <ele>247.2</ele>
        <time>2015-09-27T09:42:11Z</time>
      </trkpt>
      <trkpt lat="44.36067" lon="1.10047">
        <ele>237.58</ele>
        <time>2015-09-27T09:42:25Z</time>
      </trkpt>
      <trkpt lat="44.36067" lon="1.10042">
        <ele>236.62</ele>
        <time>2015-09-27T09:42:26Z</time>
      </trkpt>
      <trkpt lat="44.36042" lon="1.10018">
        <ele>230.37</ele>
        <time>2015-09-27T09:42:33Z</time>
      </trkpt>
      <trkpt lat="44.3603" lon="1.10008">
        <ele>228.93</ele>
        <time>2015-09-27T09:42:36Z</time>
      </trkpt>
      <trkpt lat="44.36014" lon="1.10018">
        <ele>227.01</ele>
        <time>2015-09-27T09:42:40Z</time>
      </trkpt>
      <trkpt lat="44.35999" lon="1.10027">
        <ele>226.53</ele>
        <time>2015-09-27T09:42:43Z</time>
      </trkpt>
      <trkpt lat="44.3598" lon="1.10028">
        <ele>226.05</ele>
        <time>2015-09-27T09:42:47Z</time>
      </trkpt>
      <trkpt lat="44.35972" lon="1.10019">
        <ele>225.09</ele>
        <time>2015-09-27T09:42:50Z</time>
      </trkpt>
      <trkpt lat="44.35981" lon="1.09974">
        <ele>227.49</ele>
        <time>2015-09-27T09:43:02Z</time>
      </trkpt>
      <trkpt lat="44.35993" lon="1.09922">
        <ele>231.33</ele>
        <time>2015-09-27T09:43:16Z</time>
      </trkpt>
      <trkpt lat="44.35996" lon="1.09882">
        <ele>233.74</ele>
        <time>2015-09-27T09:43:29Z</time>
      </trkpt>
      <trkpt lat="44.35983" lon="1.0989">
        <ele>234.7</ele>
        <time>2015-09-27T09:43:36Z</time>
      </trkpt>
      <trkpt lat="44.35961" lon="1.09934">
        <ele>238.06</ele>
        <time>2015-09-27T09:43:52Z</time>
      </trkpt>
      <trkpt lat="44.35935" lon="1.0997">
        <ele>239.99</ele>
        <time>2015-09-27T09:44:07Z</time>
      </trkpt>
      <trkpt lat="44.35908" lon="1.09977">
        <ele>243.35</ele>
        <time>2015-09-27T09:44:21Z</time>
      </trkpt>
      <trkpt lat="44.35886" lon="1.09958">
        <ele>243.83</ele>
        <time>2015-09-27T09:44:33Z</time>
      </trkpt>
      <trkpt lat="44.35868" lon="1.0993">
        <ele>245.27</ele>
        <time>2015-09-27T09:44:45Z</time>
      </trkpt>
      <trkpt lat="44.35835" lon="1.09923">
        <ele>249.12</ele>
        <time>2015-09-27T09:44:58Z</time>
      </trkpt>
      <trkpt lat="44.3581" lon="1.09913">
        <ele>248.16</ele>
        <time>2015-09-27T09:45:06Z</time>
      </trkpt>
      <trkpt lat="44.35793" lon="1.09932">
        <ele>248.16</ele>
        <time>2015-09-27T09:45:14Z</time>
      </trkpt>
      <trkpt lat="44.35787" lon="1.09936">
        <ele>248.16</ele>
        <time>2015-09-27T09:45:16Z</time>
      </trkpt>
      <trkpt lat="44.35778" lon="1.09943">
        <ele>248.16</ele>
        <time>2015-09-27T09:45:20Z</time>
      </trkpt>
      <trkpt lat="44.35774" lon="1.09954">
        <ele>247.68</ele>
        <time>2015-09-27T09:45:25Z</time>
      </trkpt>
      <trkpt lat="44.3575" lon="1.10013">
        <ele>244.31</ele>
        <time>2015-09-27T09:45:37Z</time>
      </trkpt>
      <trkpt lat="44.35749" lon="1.10061">
        <ele>242.39</ele>
        <time>2015-09-27T09:45:47Z</time>
      </trkpt>
      <trkpt lat="44.35744" lon="1.10093">
        <ele>242.39</ele>
        <time>2015-09-27T09:45:52Z</time>
      </trkpt>
      <trkpt lat="44.35743" lon="1.10106">
        <ele>242.39</ele>
        <time>2015-09-27T09:45:54Z</time>
      </trkpt>
      <trkpt lat="44.35737" lon="1.10159">
        <ele>238.54</ele>
        <time>2015-09-27T09:46:02Z</time>
      </trkpt>
      <trkpt lat="44.35734" lon="1.10178">
        <ele>237.1</ele>
        <time>2015-09-27T09:46:05Z</time>
      </trkpt>
      <trkpt lat="44.3573" lon="1.10226">
        <ele>236.14</ele>
        <time>2015-09-27T09:46:11Z</time>
      </trkpt>
      <trkpt lat="44.35724" lon="1.10263">
        <ele>234.7</ele>
        <time>2015-09-27T09:46:15Z</time>
      </trkpt>
      <trkpt lat="44.3571" lon="1.10297">
        <ele>233.26</ele>
        <time>2015-09-27T09:46:19Z</time>
      </trkpt>
      <trkpt lat="44.35657" lon="1.10366">
        <ele>224.61</ele>
        <time>2015-09-27T09:46:29Z</time>
      </trkpt>
      <trkpt lat="44.35639" lon="1.10384">
        <ele>221.72</ele>
        <time>2015-09-27T09:46:33Z</time>
      </trkpt>
      <trkpt lat="44.35619" lon="1.10385">
        <ele>219.32</ele>
        <time>2015-09-27T09:46:39Z</time>
      </trkpt>
      <trkpt lat="44.35612" lon="1.10379">
        <ele>218.36</ele>
        <time>2015-09-27T09:46:41Z</time>
      </trkpt>
      <trkpt lat="44.35601" lon="1.10363">
        <ele>218.36</ele>
        <time>2015-09-27T09:46:45Z</time>
      </trkpt>
      <trkpt lat="44.35592" lon="1.10345">
        <ele>218.36</ele>
        <time>2015-09-27T09:46:49Z</time>
      </trkpt>
      <trkpt lat="44.35575" lon="1.10293">
        <ele>222.68</ele>
        <time>2015-09-27T09:47:01Z</time>
      </trkpt>
      <trkpt lat="44.35569" lon="1.10247">
        <ele>227.49</ele>
        <time>2015-09-27T09:47:13Z</time>
      </trkpt>
      <trkpt lat="44.35578" lon="1.10192">
        <ele>227.49</ele>
        <time>2015-09-27T09:47:28Z</time>
      </trkpt>
      <trkpt lat="44.35581" lon="1.1018">
        <ele>227.97</ele>
        <time>2015-09-27T09:47:33Z</time>
      </trkpt>
      <trkpt lat="44.35589" lon="1.10131">
        <ele>227.97</ele>
        <time>2015-09-27T09:47:50Z</time>
      </trkpt>
      <trkpt lat="44.35596" lon="1.10091">
        <ele>227.01</ele>
        <time>2015-09-27T09:48:04Z</time>
      </trkpt>
      <trkpt lat="44.35604" lon="1.10055">
        <ele>228.45</ele>
        <time>2015-09-27T09:48:18Z</time>
      </trkpt>
      <trkpt lat="44.35606" lon="1.10048">
        <ele>228.45</ele>
        <time>2015-09-27T09:48:21Z</time>
      </trkpt>
      <trkpt lat="44.35614" lon="1.10018">
        <ele>227.49</ele>
        <time>2015-09-27T09:48:34Z</time>
      </trkpt>
      <trkpt lat="44.35618" lon="1.09985">
        <ele>230.37</ele>
        <time>2015-09-27T09:48:47Z</time>
      </trkpt>
      <trkpt lat="44.35619" lon="1.09972">
        <ele>231.33</ele>
        <time>2015-09-27T09:48:53Z</time>
      </trkpt>
      <trkpt lat="44.35591" lon="1.09946">
        <ele>234.7</ele>
        <time>2015-09-27T09:49:04Z</time>
      </trkpt>
      <trkpt lat="44.35575" lon="1.0994">
        <ele>239.02</ele>
        <time>2015-09-27T09:49:11Z</time>
      </trkpt>
      <trkpt lat="44.35572" lon="1.09942">
        <ele>239.51</ele>
        <time>2015-09-27T09:49:13Z</time>
      </trkpt>
      <trkpt lat="44.35562" lon="1.09962">
        <ele>241.43</ele>
        <time>2015-09-27T09:49:27Z</time>
      </trkpt>
      <trkpt lat="44.35552" lon="1.09972">
        <ele>240.95</ele>
        <time>2015-09-27T09:49:36Z</time>
      </trkpt>
      <trkpt lat="44.35542" lon="1.0996">
        <ele>241.91</ele>
        <time>2015-09-27T09:49:45Z</time>
      </trkpt>
      <trkpt lat="44.35519" lon="1.09921">
        <ele>240.95</ele>
        <time>2015-09-27T09:50:00Z</time>
      </trkpt>
      <trkpt lat="44.35487" lon="1.09894">
        <ele>242.39</ele>
        <time>2015-09-27T09:50:15Z</time>
      </trkpt>
      <trkpt lat="44.35473" lon="1.09875">
        <ele>243.35</ele>
        <time>2015-09-27T09:50:23Z</time>
      </trkpt>
      <trkpt lat="44.35471" lon="1.09875">
        <ele>243.35</ele>
        <time>2015-09-27T09:50:24Z</time>
      </trkpt>
      <trkpt lat="44.35469" lon="1.09875">
        <ele>243.35</ele>
        <time>2015-09-27T09:50:25Z</time>
      </trkpt>
      <trkpt lat="44.35467" lon="1.09874">
        <ele>243.35</ele>
        <time>2015-09-27T09:50:26Z</time>
      </trkpt>
      <trkpt lat="44.35465" lon="1.09872">
        <ele>243.83</ele>
        <time>2015-09-27T09:50:27Z</time>
      </trkpt>
      <trkpt lat="44.35464" lon="1.0987">
        <ele>244.31</ele>
        <time>2015-09-27T09:50:28Z</time>
      </trkpt>
      <trkpt lat="44.35462" lon="1.0987">
        <ele>244.31</ele>
        <time>2015-09-27T09:50:29Z</time>
      </trkpt>
      <trkpt lat="44.3546" lon="1.09869">
        <ele>244.31</ele>
        <time>2015-09-27T09:50:30Z</time>
      </trkpt>
      <trkpt lat="44.35432" lon="1.09845">
        <ele>244.79</ele>
        <time>2015-09-27T09:50:43Z</time>
      </trkpt>
      <trkpt lat="44.35401" lon="1.09818">
        <ele>245.75</ele>
        <time>2015-09-27T09:50:58Z</time>
      </trkpt>
      <trkpt lat="44.3537" lon="1.09792">
        <ele>248.16</ele>
        <time>2015-09-27T09:51:15Z</time>
      </trkpt>
      <trkpt lat="44.35342" lon="1.09768">
        <ele>251.04</ele>
        <time>2015-09-27T09:51:32Z</time>
      </trkpt>
      <trkpt lat="44.35318" lon="1.09749">
        <ele>253.44</ele>
        <time>2015-09-27T09:51:47Z</time>
      </trkpt>
      <trkpt lat="44.35315" lon="1.09747">
        <ele>253.93</ele>
        <time>2015-09-27T09:51:49Z</time>
      </trkpt>
      <trkpt lat="44.3531" lon="1.09731">
        <ele>255.85</ele>
        <time>2015-09-27T09:51:58Z</time>
      </trkpt>
      <trkpt lat="44.35302" lon="1.09726">
        <ele>257.77</ele>
        <time>2015-09-27T09:52:05Z</time>
      </trkpt>
      <trkpt lat="44.35287" lon="1.09709">
        <ele>260.17</ele>
        <time>2015-09-27T09:52:22Z</time>
      </trkpt>
      <trkpt lat="44.35286" lon="1.097">
        <ele>261.62</ele>
        <time>2015-09-27T09:52:27Z</time>
      </trkpt>
      <trkpt lat="44.35281" lon="1.09694">
        <ele>261.62</ele>
        <time>2015-09-27T09:52:31Z</time>
      </trkpt>
      <trkpt lat="44.35266" lon="1.09706">
        <ele>262.58</ele>
        <time>2015-09-27T09:52:41Z</time>
      </trkpt>
      <trkpt lat="44.35264" lon="1.09706">
        <ele>262.58</ele>
        <time>2015-09-27T09:52:42Z</time>
      </trkpt>
      <trkpt lat="44.3526" lon="1.09704">
        <ele>262.1</ele>
        <time>2015-09-27T09:52:44Z</time>
      </trkpt>
      <trkpt lat="44.35208" lon="1.09677">
        <ele>256.81</ele>
        <time>2015-09-27T09:52:57Z</time>
      </trkpt>
      <trkpt lat="44.35186" lon="1.09663">
        <ele>254.41</ele>
        <time>2015-09-27T09:53:01Z</time>
      </trkpt>
      <trkpt lat="44.35094" lon="1.09608">
        <ele>244.79</ele>
        <time>2015-09-27T09:53:15Z</time>
      </trkpt>
      <trkpt lat="44.35069" lon="1.09584">
        <ele>241.43</ele>
        <time>2015-09-27T09:53:21Z</time>
      </trkpt>
      <trkpt lat="44.35058" lon="1.09541">
        <ele>237.58</ele>
        <time>2015-09-27T09:53:29Z</time>
      </trkpt>
      <trkpt lat="44.35064" lon="1.0953">
        <ele>237.58</ele>
        <time>2015-09-27T09:53:31Z</time>
      </trkpt>
      <trkpt lat="44.35081" lon="1.095">
        <ele>238.06</ele>
        <time>2015-09-27T09:53:38Z</time>
      </trkpt>
      <trkpt lat="44.3508" lon="1.09496">
        <ele>237.58</ele>
        <time>2015-09-27T09:53:39Z</time>
      </trkpt>
      <trkpt lat="44.35077" lon="1.09492">
        <ele>237.58</ele>
        <time>2015-09-27T09:53:40Z</time>
      </trkpt>
      <trkpt lat="44.35027" lon="1.09427">
        <ele>236.14</ele>
        <time>2015-09-27T09:53:53Z</time>
      </trkpt>
      <trkpt lat="44.35024" lon="1.09422">
        <ele>236.14</ele>
        <time>2015-09-27T09:53:54Z</time>
      </trkpt>
      <trkpt lat="44.35022" lon="1.09418">
        <ele>236.62</ele>
        <time>2015-09-27T09:53:55Z</time>
      </trkpt>
      <trkpt lat="44.35021" lon="1.09414">
        <ele>237.1</ele>
        <time>2015-09-27T09:53:56Z</time>
      </trkpt>
      <trkpt lat="44.35021" lon="1.0941">
        <ele>237.58</ele>
        <time>2015-09-27T09:53:57Z</time>
      </trkpt>
      <trkpt lat="44.35024" lon="1.09403">
        <ele>238.06</ele>
        <time>2015-09-27T09:53:59Z</time>
      </trkpt>
      <trkpt lat="44.3505" lon="1.09355">
        <ele>240.95</ele>
        <time>2015-09-27T09:54:13Z</time>
      </trkpt>
      <trkpt lat="44.35081" lon="1.09295">
        <ele>244.79</ele>
        <time>2015-09-27T09:54:31Z</time>
      </trkpt>
      <trkpt lat="44.35102" lon="1.09251">
        <ele>244.79</ele>
        <time>2015-09-27T09:54:43Z</time>
      </trkpt>
      <trkpt lat="44.35126" lon="1.09203">
        <ele>247.2</ele>
        <time>2015-09-27T09:54:57Z</time>
      </trkpt>
      <trkpt lat="44.35135" lon="1.09157">
        <ele>249.12</ele>
        <time>2015-09-27T09:55:10Z</time>
      </trkpt>
      <trkpt lat="44.35158" lon="1.09095">
        <ele>250.08</ele>
        <time>2015-09-27T09:55:27Z</time>
      </trkpt>
      <trkpt lat="44.35187" lon="1.09026">
        <ele>252.96</ele>
        <time>2015-09-27T09:55:46Z</time>
      </trkpt>
      <trkpt lat="44.35205" lon="1.08987">
        <ele>255.85</ele>
        <time>2015-09-27T09:56:01Z</time>
      </trkpt>
      <trkpt lat="44.3522" lon="1.08947">
        <ele>257.29</ele>
        <time>2015-09-27T09:56:14Z</time>
      </trkpt>
      <trkpt lat="44.35219" lon="1.08943">
        <ele>256.81</ele>
        <time>2015-09-27T09:56:15Z</time>
      </trkpt>
      <trkpt lat="44.35213" lon="1.08933">
        <ele>255.85</ele>
        <time>2015-09-27T09:56:18Z</time>
      </trkpt>
      <trkpt lat="44.3517" lon="1.08879">
        <ele>250.56</ele>
        <time>2015-09-27T09:56:27Z</time>
      </trkpt>
      <trkpt lat="44.35139" lon="1.0884">
        <ele>252</ele>
        <time>2015-09-27T09:56:37Z</time>
      </trkpt>
      <trkpt lat="44.35112" lon="1.088">
        <ele>254.89</ele>
        <time>2015-09-27T09:56:52Z</time>
      </trkpt>
      <trkpt lat="44.35092" lon="1.08774">
        <ele>258.25</ele>
        <time>2015-09-27T09:57:07Z</time>
      </trkpt>
      <trkpt lat="44.35083" lon="1.08739">
        <ele>261.62</ele>
        <time>2015-09-27T09:57:25Z</time>
      </trkpt>
      <trkpt lat="44.3511" lon="1.08702">
        <ele>262.58</ele>
        <time>2015-09-27T09:57:37Z</time>
      </trkpt>
      <trkpt lat="44.35148" lon="1.08662">
        <ele>263.06</ele>
        <time>2015-09-27T09:57:50Z</time>
      </trkpt>
      <trkpt lat="44.35189" lon="1.08618">
        <ele>264.02</ele>
        <time>2015-09-27T09:58:04Z</time>
      </trkpt>
      <trkpt lat="44.35194" lon="1.08575">
        <ele>263.06</ele>
        <time>2015-09-27T09:58:14Z</time>
      </trkpt>
      <trkpt lat="44.3518" lon="1.0854">
        <ele>261.62</ele>
        <time>2015-09-27T09:58:21Z</time>
      </trkpt>
      <trkpt lat="44.35161" lon="1.08494">
        <ele>260.65</ele>
        <time>2015-09-27T09:58:30Z</time>
      </trkpt>
      <trkpt lat="44.35154" lon="1.08471">
        <ele>260.17</ele>
        <time>2015-09-27T09:58:34Z</time>
      </trkpt>
      <trkpt lat="44.3516" lon="1.08442">
        <ele>259.69</ele>
        <time>2015-09-27T09:58:39Z</time>
      </trkpt>
      <trkpt lat="44.35214" lon="1.08402">
        <ele>261.14</ele>
        <time>2015-09-27T09:58:55Z</time>
      </trkpt>
      <trkpt lat="44.35242" lon="1.08382">
        <ele>261.62</ele>
        <time>2015-09-27T09:59:05Z</time>
      </trkpt>
      <trkpt lat="44.35303" lon="1.0834">
        <ele>262.1</ele>
        <time>2015-09-27T09:59:22Z</time>
      </trkpt>
      <trkpt lat="44.35332" lon="1.08319">
        <ele>262.1</ele>
        <time>2015-09-27T09:59:33Z</time>
      </trkpt>
      <trkpt lat="44.35358" lon="1.083">
        <ele>262.58</ele>
        <time>2015-09-27T09:59:44Z</time>
      </trkpt>
      <trkpt lat="44.35406" lon="1.08266">
        <ele>264.02</ele>
        <time>2015-09-27T10:00:00Z</time>
      </trkpt>
      <trkpt lat="44.35453" lon="1.08233">
        <ele>267.86</ele>
        <time>2015-09-27T10:00:17Z</time>
      </trkpt>
      <trkpt lat="44.35455" lon="1.08231">
        <ele>267.86</ele>
        <time>2015-09-27T10:00:18Z</time>
      </trkpt>
      <trkpt lat="44.35457" lon="1.08212">
        <ele>268.35</ele>
        <time>2015-09-27T10:00:24Z</time>
      </trkpt>
      <trkpt lat="44.35446" lon="1.08139">
        <ele>267.38</ele>
        <time>2015-09-27T10:00:39Z</time>
      </trkpt>
      <trkpt lat="44.3543" lon="1.08077">
        <ele>267.86</ele>
        <time>2015-09-27T10:00:51Z</time>
      </trkpt>
      <trkpt lat="44.35406" lon="1.07984">
        <ele>270.75</ele>
        <time>2015-09-27T10:01:10Z</time>
      </trkpt>
      <trkpt lat="44.35413" lon="1.07963">
        <ele>271.23</ele>
        <time>2015-09-27T10:01:17Z</time>
      </trkpt>
      <trkpt lat="44.35413" lon="1.07959">
        <ele>271.23</ele>
        <time>2015-09-27T10:01:18Z</time>
      </trkpt>
      <trkpt lat="44.35408" lon="1.079">
        <ele>272.67</ele>
        <time>2015-09-27T10:01:30Z</time>
      </trkpt>
      <trkpt lat="44.35394" lon="1.07833">
        <ele>276.04</ele>
        <time>2015-09-27T10:01:43Z</time>
      </trkpt>
      <trkpt lat="44.35394" lon="1.07771">
        <ele>273.63</ele>
        <time>2015-09-27T10:01:55Z</time>
      </trkpt>
      <trkpt lat="44.35393" lon="1.07767">
        <ele>273.15</ele>
        <time>2015-09-27T10:01:56Z</time>
      </trkpt>
      <trkpt lat="44.35393" lon="1.07763">
        <ele>273.15</ele>
        <time>2015-09-27T10:01:57Z</time>
      </trkpt>
      <trkpt lat="44.35392" lon="1.0776">
        <ele>273.15</ele>
        <time>2015-09-27T10:01:58Z</time>
      </trkpt>
      <trkpt lat="44.35391" lon="1.07758">
        <ele>273.63</ele>
        <time>2015-09-27T10:01:59Z</time>
      </trkpt>
      <trkpt lat="44.35391" lon="1.07755">
        <ele>273.63</ele>
        <time>2015-09-27T10:02:00Z</time>
      </trkpt>
      <trkpt lat="44.35392" lon="1.07752">
        <ele>274.11</ele>
        <time>2015-09-27T10:02:01Z</time>
      </trkpt>
      <trkpt lat="44.35392" lon="1.07749">
        <ele>274.59</ele>
        <time>2015-09-27T10:02:02Z</time>
      </trkpt>
      <trkpt lat="44.35392" lon="1.07746">
        <ele>274.59</ele>
        <time>2015-09-27T10:02:03Z</time>
      </trkpt>
      <trkpt lat="44.35393" lon="1.07743">
        <ele>275.07</ele>
        <time>2015-09-27T10:02:04Z</time>
      </trkpt>
      <trkpt lat="44.35393" lon="1.07739">
        <ele>275.07</ele>
        <time>2015-09-27T10:02:05Z</time>
      </trkpt>
      <trkpt lat="44.35394" lon="1.07735">
        <ele>275.07</ele>
        <time>2015-09-27T10:02:06Z</time>
      </trkpt>
      <trkpt lat="44.35395" lon="1.07731">
        <ele>275.07</ele>
        <time>2015-09-27T10:02:07Z</time>
      </trkpt>
      <trkpt lat="44.35399" lon="1.07693">
        <ele>273.63</ele>
        <time>2015-09-27T10:02:14Z</time>
      </trkpt>
      <trkpt lat="44.35399" lon="1.07687">
        <ele>273.63</ele>
        <time>2015-09-27T10:02:15Z</time>
      </trkpt>
      <trkpt lat="44.354" lon="1.07682">
        <ele>273.15</ele>
        <time>2015-09-27T10:02:16Z</time>
      </trkpt>
      <trkpt lat="44.354" lon="1.07676">
        <ele>273.15</ele>
        <time>2015-09-27T10:02:17Z</time>
      </trkpt>
      <trkpt lat="44.354" lon="1.0767">
        <ele>272.67</ele>
        <time>2015-09-27T10:02:18Z</time>
      </trkpt>
      <trkpt lat="44.35401" lon="1.07665">
        <ele>272.67</ele>
        <time>2015-09-27T10:02:19Z</time>
      </trkpt>
      <trkpt lat="44.35403" lon="1.07661">
        <ele>272.67</ele>
        <time>2015-09-27T10:02:20Z</time>
      </trkpt>
      <trkpt lat="44.35405" lon="1.07657">
        <ele>272.67</ele>
        <time>2015-09-27T10:02:21Z</time>
      </trkpt>
      <trkpt lat="44.35406" lon="1.07654">
        <ele>273.15</ele>
        <time>2015-09-27T10:02:22Z</time>
      </trkpt>
      <trkpt lat="44.35408" lon="1.07651">
        <ele>273.15</ele>
        <time>2015-09-27T10:02:23Z</time>
      </trkpt>
      <trkpt lat="44.3541" lon="1.07649">
        <ele>273.63</ele>
        <time>2015-09-27T10:02:24Z</time>
      </trkpt>
      <trkpt lat="44.35423" lon="1.07633">
        <ele>274.59</ele>
        <time>2015-09-27T10:02:31Z</time>
      </trkpt>
      <trkpt lat="44.35424" lon="1.0763">
        <ele>274.11</ele>
        <time>2015-09-27T10:02:32Z</time>
      </trkpt>
      <trkpt lat="44.35425" lon="1.07609">
        <ele>273.63</ele>
        <time>2015-09-27T10:02:37Z</time>
      </trkpt>
      <trkpt lat="44.35421" lon="1.07587">
        <ele>272.19</ele>
        <time>2015-09-27T10:02:42Z</time>
      </trkpt>
      <trkpt lat="44.35416" lon="1.07535">
        <ele>271.23</ele>
        <time>2015-09-27T10:02:52Z</time>
      </trkpt>
      <trkpt lat="44.35399" lon="1.07472">
        <ele>271.71</ele>
        <time>2015-09-27T10:03:04Z</time>
      </trkpt>
      <trkpt lat="44.35394" lon="1.07457">
        <ele>271.71</ele>
        <time>2015-09-27T10:03:07Z</time>
      </trkpt>
      <trkpt lat="44.35384" lon="1.07415">
        <ele>271.71</ele>
        <time>2015-09-27T10:03:14Z</time>
      </trkpt>
      <trkpt lat="44.35379" lon="1.0739">
        <ele>271.23</ele>
        <time>2015-09-27T10:03:18Z</time>
      </trkpt>
      <trkpt lat="44.35372" lon="1.07355">
        <ele>270.27</ele>
        <time>2015-09-27T10:03:26Z</time>
      </trkpt>
      <trkpt lat="44.35373" lon="1.07354">
        <ele>269.79</ele>
        <time>2015-09-27T10:03:27Z</time>
      </trkpt>
      <trkpt lat="44.35371" lon="1.07334">
        <ele>268.35</ele>
        <time>2015-09-27T10:03:33Z</time>
      </trkpt>
      <trkpt lat="44.35367" lon="1.07318">
        <ele>267.86</ele>
        <time>2015-09-27T10:03:37Z</time>
      </trkpt>
      <trkpt lat="44.35353" lon="1.07272">
        <ele>266.42</ele>
        <time>2015-09-27T10:03:45Z</time>
      </trkpt>
      <trkpt lat="44.35347" lon="1.07253">
        <ele>265.94</ele>
        <time>2015-09-27T10:03:48Z</time>
      </trkpt>
      <trkpt lat="44.35342" lon="1.07235">
        <ele>266.42</ele>
        <time>2015-09-27T10:03:51Z</time>
      </trkpt>
      <trkpt lat="44.35341" lon="1.07168">
        <ele>268.35</ele>
        <time>2015-09-27T10:04:02Z</time>
      </trkpt>
      <trkpt lat="44.3534" lon="1.07156">
        <ele>270.27</ele>
        <time>2015-09-27T10:04:12Z</time>
      </trkpt>
      <trkpt lat="44.3534" lon="1.07153">
        <ele>268.83</ele>
        <time>2015-09-27T10:04:40Z</time>
      </trkpt>
      <trkpt lat="44.35341" lon="1.07143">
        <ele>270.27</ele>
        <time>2015-09-27T10:04:53Z</time>
      </trkpt>
      <trkpt lat="44.3534" lon="1.07141">
        <ele>269.79</ele>
        <time>2015-09-27T10:05:13Z</time>
      </trkpt>
      <trkpt lat="44.35342" lon="1.07124">
        <ele>269.79</ele>
        <time>2015-09-27T10:05:25Z</time>
      </trkpt>
      <trkpt lat="44.3534" lon="1.07095">
        <ele>271.23</ele>
        <time>2015-09-27T10:05:34Z</time>
      </trkpt>
      <trkpt lat="44.35338" lon="1.07086">
        <ele>271.23</ele>
        <time>2015-09-27T10:05:37Z</time>
      </trkpt>
      <trkpt lat="44.35331" lon="1.07075">
        <ele>271.23</ele>
        <time>2015-09-27T10:05:42Z</time>
      </trkpt>
      <trkpt lat="44.35323" lon="1.07055">
        <ele>269.31</ele>
        <time>2015-09-27T10:05:53Z</time>
      </trkpt>
      <trkpt lat="44.35322" lon="1.07054">
        <ele>268.83</ele>
        <time>2015-09-27T10:05:57Z</time>
      </trkpt>
      <trkpt lat="44.35317" lon="1.0706">
        <ele>267.38</ele>
        <time>2015-09-27T10:06:11Z</time>
      </trkpt>
      <trkpt lat="44.35318" lon="1.07059">
        <ele>267.38</ele>
        <time>2015-09-27T10:06:41Z</time>
      </trkpt>
      <trkpt lat="44.35318" lon="1.0706">
        <ele>267.38</ele>
        <time>2015-09-27T10:06:56Z</time>
      </trkpt>
      <trkpt lat="44.35318" lon="1.07055">
        <ele>267.38</ele>
        <time>2015-09-27T10:06:59Z</time>
      </trkpt>
      <trkpt lat="44.3532" lon="1.07054">
        <ele>267.38</ele>
        <time>2015-09-27T10:07:03Z</time>
      </trkpt>
      <trkpt lat="44.35327" lon="1.07069">
        <ele>268.83</ele>
        <time>2015-09-27T10:07:11Z</time>
      </trkpt>
      <trkpt lat="44.35336" lon="1.07097">
        <ele>271.23</ele>
        <time>2015-09-27T10:07:21Z</time>
      </trkpt>
      <trkpt lat="44.35336" lon="1.07101">
        <ele>271.23</ele>
        <time>2015-09-27T10:07:22Z</time>
      </trkpt>
      <trkpt lat="44.35336" lon="1.07157">
        <ele>269.79</ele>
        <time>2015-09-27T10:07:35Z</time>
      </trkpt>
      <trkpt lat="44.35333" lon="1.07218">
        <ele>266.42</ele>
        <time>2015-09-27T10:07:48Z</time>
      </trkpt>
      <trkpt lat="44.35356" lon="1.07285">
        <ele>266.42</ele>
        <time>2015-09-27T10:08:05Z</time>
      </trkpt>
      <trkpt lat="44.35367" lon="1.07324">
        <ele>268.83</ele>
        <time>2015-09-27T10:08:17Z</time>
      </trkpt>
      <trkpt lat="44.35368" lon="1.0734">
        <ele>268.83</ele>
        <time>2015-09-27T10:08:22Z</time>
      </trkpt>
      <trkpt lat="44.35367" lon="1.07346">
        <ele>268.35</ele>
        <time>2015-09-27T10:08:25Z</time>
      </trkpt>
      <trkpt lat="44.3537" lon="1.0737">
        <ele>269.31</ele>
        <time>2015-09-27T10:08:33Z</time>
      </trkpt>
      <trkpt lat="44.35376" lon="1.07411">
        <ele>271.23</ele>
        <time>2015-09-27T10:08:45Z</time>
      </trkpt>
      <trkpt lat="44.35385" lon="1.07454">
        <ele>272.19</ele>
        <time>2015-09-27T10:08:58Z</time>
      </trkpt>
      <trkpt lat="44.35392" lon="1.07477">
        <ele>273.15</ele>
        <time>2015-09-27T10:09:05Z</time>
      </trkpt>
      <trkpt lat="44.354" lon="1.07505">
        <ele>273.63</ele>
        <time>2015-09-27T10:09:14Z</time>
      </trkpt>
      <trkpt lat="44.35411" lon="1.07543">
        <ele>274.59</ele>
        <time>2015-09-27T10:09:25Z</time>
      </trkpt>
      <trkpt lat="44.35417" lon="1.07575">
        <ele>275.07</ele>
        <time>2015-09-27T10:09:33Z</time>
      </trkpt>
      <trkpt lat="44.35422" lon="1.07598">
        <ele>276.52</ele>
        <time>2015-09-27T10:09:44Z</time>
      </trkpt>
      <trkpt lat="44.35423" lon="1.07604">
        <ele>277</ele>
        <time>2015-09-27T10:09:50Z</time>
      </trkpt>
      <trkpt lat="44.35422" lon="1.07628">
        <ele>277</ele>
        <time>2015-09-27T10:10:00Z</time>
      </trkpt>
      <trkpt lat="44.35424" lon="1.07634">
        <ele>276.52</ele>
        <time>2015-09-27T10:10:12Z</time>
      </trkpt>
      <trkpt lat="44.35424" lon="1.07637">
        <ele>276.04</ele>
        <time>2015-09-27T10:10:16Z</time>
      </trkpt>
      <trkpt lat="44.3542" lon="1.0764">
        <ele>275.56</ele>
        <time>2015-09-27T10:10:26Z</time>
      </trkpt>
      <trkpt lat="44.35405" lon="1.07655">
        <ele>274.59</ele>
        <time>2015-09-27T10:10:35Z</time>
      </trkpt>
      <trkpt lat="44.35379" lon="1.0768">
        <ele>272.19</ele>
        <time>2015-09-27T10:10:45Z</time>
      </trkpt>
      <trkpt lat="44.35373" lon="1.07685">
        <ele>271.71</ele>
        <time>2015-09-27T10:10:47Z</time>
      </trkpt>
      <trkpt lat="44.35349" lon="1.0767">
        <ele>267.86</ele>
        <time>2015-09-27T10:10:55Z</time>
      </trkpt>
      <trkpt lat="44.3535" lon="1.07667">
        <ele>267.86</ele>
        <time>2015-09-27T10:10:56Z</time>
      </trkpt>
      <trkpt lat="44.3534" lon="1.07632">
        <ele>267.38</ele>
        <time>2015-09-27T10:11:07Z</time>
      </trkpt>
      <trkpt lat="44.35316" lon="1.07604">
        <ele>264.98</ele>
        <time>2015-09-27T10:11:13Z</time>
      </trkpt>
      <trkpt lat="44.35284" lon="1.0758">
        <ele>262.1</ele>
        <time>2015-09-27T10:11:20Z</time>
      </trkpt>
      <trkpt lat="44.35255" lon="1.07591">
        <ele>260.17</ele>
        <time>2015-09-27T10:11:25Z</time>
      </trkpt>
      <trkpt lat="44.35245" lon="1.07594">
        <ele>259.69</ele>
        <time>2015-09-27T10:11:27Z</time>
      </trkpt>
      <trkpt lat="44.35226" lon="1.07586">
        <ele>258.73</ele>
        <time>2015-09-27T10:11:31Z</time>
      </trkpt>
      <trkpt lat="44.3519" lon="1.07571">
        <ele>262.1</ele>
        <time>2015-09-27T10:11:41Z</time>
      </trkpt>
      <trkpt lat="44.35173" lon="1.07567">
        <ele>265.94</ele>
        <time>2015-09-27T10:11:47Z</time>
      </trkpt>
      <trkpt lat="44.35165" lon="1.0758">
        <ele>268.83</ele>
        <time>2015-09-27T10:11:51Z</time>
      </trkpt>
      <trkpt lat="44.35137" lon="1.07641">
        <ele>272.67</ele>
        <time>2015-09-27T10:12:05Z</time>
      </trkpt>
      <trkpt lat="44.35123" lon="1.07711">
        <ele>272.19</ele>
        <time>2015-09-27T10:12:18Z</time>
      </trkpt>
      <trkpt lat="44.35121" lon="1.07772">
        <ele>273.15</ele>
        <time>2015-09-27T10:12:30Z</time>
      </trkpt>
      <trkpt lat="44.35123" lon="1.07814">
        <ele>271.23</ele>
        <time>2015-09-27T10:12:37Z</time>
      </trkpt>
      <trkpt lat="44.35124" lon="1.07888">
        <ele>266.9</ele>
        <time>2015-09-27T10:12:48Z</time>
      </trkpt>
      <trkpt lat="44.35123" lon="1.07903">
        <ele>266.42</ele>
        <time>2015-09-27T10:12:50Z</time>
      </trkpt>
      <trkpt lat="44.35122" lon="1.07937">
        <ele>266.9</ele>
        <time>2015-09-27T10:12:55Z</time>
      </trkpt>
      <trkpt lat="44.35119" lon="1.07956">
        <ele>266.9</ele>
        <time>2015-09-27T10:12:58Z</time>
      </trkpt>
      <trkpt lat="44.35114" lon="1.08035">
        <ele>266.9</ele>
        <time>2015-09-27T10:13:11Z</time>
      </trkpt>
      <trkpt lat="44.35111" lon="1.08045">
        <ele>266.9</ele>
        <time>2015-09-27T10:13:13Z</time>
      </trkpt>
      <trkpt lat="44.35109" lon="1.08048">
        <ele>266.9</ele>
        <time>2015-09-27T10:13:14Z</time>
      </trkpt>
      <trkpt lat="44.35106" lon="1.08051">
        <ele>266.42</ele>
        <time>2015-09-27T10:13:15Z</time>
      </trkpt>
      <trkpt lat="44.35103" lon="1.08053">
        <ele>266.42</ele>
        <time>2015-09-27T10:13:16Z</time>
      </trkpt>
      <trkpt lat="44.351" lon="1.08054">
        <ele>266.42</ele>
        <time>2015-09-27T10:13:17Z</time>
      </trkpt>
      <trkpt lat="44.35096" lon="1.08055">
        <ele>266.42</ele>
        <time>2015-09-27T10:13:18Z</time>
      </trkpt>
      <trkpt lat="44.35077" lon="1.08058">
        <ele>266.42</ele>
        <time>2015-09-27T10:13:23Z</time>
      </trkpt>
      <trkpt lat="44.35002" lon="1.08075">
        <ele>265.94</ele>
        <time>2015-09-27T10:13:38Z</time>
      </trkpt>
      <trkpt lat="44.34916" lon="1.08115">
        <ele>265.94</ele>
        <time>2015-09-27T10:13:56Z</time>
      </trkpt>
      <trkpt lat="44.34845" lon="1.08152">
        <ele>265.94</ele>
        <time>2015-09-27T10:14:12Z</time>
      </trkpt>
      <trkpt lat="44.34841" lon="1.08154">
        <ele>265.94</ele>
        <time>2015-09-27T10:14:13Z</time>
      </trkpt>
      <trkpt lat="44.34769" lon="1.08177">
        <ele>265.46</ele>
        <time>2015-09-27T10:14:31Z</time>
      </trkpt>
      <trkpt lat="44.34761" lon="1.08176">
        <ele>264.98</ele>
        <time>2015-09-27T10:14:34Z</time>
      </trkpt>
      <trkpt lat="44.34759" lon="1.08172">
        <ele>264.98</ele>
        <time>2015-09-27T10:14:35Z</time>
      </trkpt>
      <trkpt lat="44.34757" lon="1.08164">
        <ele>264.98</ele>
        <time>2015-09-27T10:14:37Z</time>
      </trkpt>
      <trkpt lat="44.34745" lon="1.08117">
        <ele>264.02</ele>
        <time>2015-09-27T10:14:45Z</time>
      </trkpt>
      <trkpt lat="44.34734" lon="1.08098">
        <ele>264.02</ele>
        <time>2015-09-27T10:14:49Z</time>
      </trkpt>
      <trkpt lat="44.34683" lon="1.08047">
        <ele>263.54</ele>
        <time>2015-09-27T10:15:05Z</time>
      </trkpt>
      <trkpt lat="44.34646" lon="1.08013">
        <ele>264.02</ele>
        <time>2015-09-27T10:15:15Z</time>
      </trkpt>
      <trkpt lat="44.34635" lon="1.08003">
        <ele>264.5</ele>
        <time>2015-09-27T10:15:18Z</time>
      </trkpt>
      <trkpt lat="44.34598" lon="1.07975">
        <ele>263.54</ele>
        <time>2015-09-27T10:15:28Z</time>
      </trkpt>
      <trkpt lat="44.34536" lon="1.07928">
        <ele>262.58</ele>
        <time>2015-09-27T10:15:43Z</time>
      </trkpt>
      <trkpt lat="44.34467" lon="1.07873">
        <ele>262.1</ele>
        <time>2015-09-27T10:15:59Z</time>
      </trkpt>
      <trkpt lat="44.34394" lon="1.07835">
        <ele>261.14</ele>
        <time>2015-09-27T10:16:14Z</time>
      </trkpt>
      <trkpt lat="44.34327" lon="1.07808">
        <ele>262.58</ele>
        <time>2015-09-27T10:16:29Z</time>
      </trkpt>
      <trkpt lat="44.34322" lon="1.07807">
        <ele>262.58</ele>
        <time>2015-09-27T10:16:30Z</time>
      </trkpt>
      <trkpt lat="44.34312" lon="1.07805">
        <ele>262.58</ele>
        <time>2015-09-27T10:16:32Z</time>
      </trkpt>
      <trkpt lat="44.34261" lon="1.07792">
        <ele>264.98</ele>
        <time>2015-09-27T10:16:44Z</time>
      </trkpt>
      <trkpt lat="44.3425" lon="1.07787">
        <ele>266.42</ele>
        <time>2015-09-27T10:16:47Z</time>
      </trkpt>
      <trkpt lat="44.34188" lon="1.07721">
        <ele>262.58</ele>
        <time>2015-09-27T10:17:00Z</time>
      </trkpt>
      <trkpt lat="44.34178" lon="1.0771">
        <ele>262.1</ele>
        <time>2015-09-27T10:17:02Z</time>
      </trkpt>
      <trkpt lat="44.34132" lon="1.07649">
        <ele>258.73</ele>
        <time>2015-09-27T10:17:11Z</time>
      </trkpt>
      <trkpt lat="44.34087" lon="1.07575">
        <ele>256.33</ele>
        <time>2015-09-27T10:17:22Z</time>
      </trkpt>
      <trkpt lat="44.34056" lon="1.07497">
        <ele>255.37</ele>
        <time>2015-09-27T10:17:31Z</time>
      </trkpt>
      <trkpt lat="44.34051" lon="1.07473">
        <ele>255.85</ele>
        <time>2015-09-27T10:17:34Z</time>
      </trkpt>
      <trkpt lat="44.34046" lon="1.07431">
        <ele>256.81</ele>
        <time>2015-09-27T10:17:40Z</time>
      </trkpt>
      <trkpt lat="44.34045" lon="1.07424">
        <ele>257.29</ele>
        <time>2015-09-27T10:17:41Z</time>
      </trkpt>
      <trkpt lat="44.3402" lon="1.07381">
        <ele>259.69</ele>
        <time>2015-09-27T10:17:51Z</time>
      </trkpt>
      <trkpt lat="44.34016" lon="1.07378">
        <ele>259.69</ele>
        <time>2015-09-27T10:17:52Z</time>
      </trkpt>
      <trkpt lat="44.33969" lon="1.07339">
        <ele>260.65</ele>
        <time>2015-09-27T10:18:04Z</time>
      </trkpt>
      <trkpt lat="44.33962" lon="1.07331">
        <ele>260.17</ele>
        <time>2015-09-27T10:18:06Z</time>
      </trkpt>
      <trkpt lat="44.33948" lon="1.07314">
        <ele>259.69</ele>
        <time>2015-09-27T10:18:10Z</time>
      </trkpt>
      <trkpt lat="44.33891" lon="1.07253">
        <ele>257.77</ele>
        <time>2015-09-27T10:18:24Z</time>
      </trkpt>
      <trkpt lat="44.33885" lon="1.07244">
        <ele>258.25</ele>
        <time>2015-09-27T10:18:26Z</time>
      </trkpt>
      <trkpt lat="44.33875" lon="1.07233">
        <ele>258.25</ele>
        <time>2015-09-27T10:18:29Z</time>
      </trkpt>
      <trkpt lat="44.33871" lon="1.07228">
        <ele>258.25</ele>
        <time>2015-09-27T10:18:30Z</time>
      </trkpt>
      <trkpt lat="44.33868" lon="1.07222">
        <ele>258.25</ele>
        <time>2015-09-27T10:18:31Z</time>
      </trkpt>
      <trkpt lat="44.33865" lon="1.07216">
        <ele>258.25</ele>
        <time>2015-09-27T10:18:32Z</time>
      </trkpt>
      <trkpt lat="44.33863" lon="1.07209">
        <ele>258.25</ele>
        <time>2015-09-27T10:18:33Z</time>
      </trkpt>
      <trkpt lat="44.3386" lon="1.07202">
        <ele>258.25</ele>
        <time>2015-09-27T10:18:34Z</time>
      </trkpt>
      <trkpt lat="44.33859" lon="1.07196">
        <ele>258.25</ele>
        <time>2015-09-27T10:18:35Z</time>
      </trkpt>
      <trkpt lat="44.33854" lon="1.07184">
        <ele>258.25</ele>
        <time>2015-09-27T10:18:37Z</time>
      </trkpt>
      <trkpt lat="44.33847" lon="1.07173">
        <ele>258.25</ele>
        <time>2015-09-27T10:18:39Z</time>
      </trkpt>
      <trkpt lat="44.33835" lon="1.07149">
        <ele>258.73</ele>
        <time>2015-09-27T10:18:43Z</time>
      </trkpt>
      <trkpt lat="44.33823" lon="1.07096">
        <ele>258.25</ele>
        <time>2015-09-27T10:18:51Z</time>
      </trkpt>
      <trkpt lat="44.33821" lon="1.07083">
        <ele>258.73</ele>
        <time>2015-09-27T10:18:53Z</time>
      </trkpt>
      <trkpt lat="44.33782" lon="1.07003">
        <ele>261.62</ele>
        <time>2015-09-27T10:19:08Z</time>
      </trkpt>
      <trkpt lat="44.33776" lon="1.06995">
        <ele>261.62</ele>
        <time>2015-09-27T10:19:10Z</time>
      </trkpt>
      <trkpt lat="44.33755" lon="1.06966">
        <ele>261.62</ele>
        <time>2015-09-27T10:19:16Z</time>
      </trkpt>
      <trkpt lat="44.33741" lon="1.06946">
        <ele>261.62</ele>
        <time>2015-09-27T10:19:20Z</time>
      </trkpt>
      <trkpt lat="44.33726" lon="1.06927">
        <ele>260.17</ele>
        <time>2015-09-27T10:19:24Z</time>
      </trkpt>
      <trkpt lat="44.33696" lon="1.06896">
        <ele>258.73</ele>
        <time>2015-09-27T10:19:31Z</time>
      </trkpt>
      <trkpt lat="44.33688" lon="1.06886">
        <ele>258.25</ele>
        <time>2015-09-27T10:19:33Z</time>
      </trkpt>
      <trkpt lat="44.33648" lon="1.06848">
        <ele>258.25</ele>
        <time>2015-09-27T10:19:43Z</time>
      </trkpt>
      <trkpt lat="44.33639" lon="1.06841">
        <ele>258.25</ele>
        <time>2015-09-27T10:19:45Z</time>
      </trkpt>
      <trkpt lat="44.33621" lon="1.06825">
        <ele>259.69</ele>
        <time>2015-09-27T10:19:50Z</time>
      </trkpt>
      <trkpt lat="44.33603" lon="1.06809">
        <ele>260.17</ele>
        <time>2015-09-27T10:19:55Z</time>
      </trkpt>
      <trkpt lat="44.33588" lon="1.06796">
        <ele>260.65</ele>
        <time>2015-09-27T10:19:59Z</time>
      </trkpt>
      <trkpt lat="44.33576" lon="1.06788">
        <ele>261.14</ele>
        <time>2015-09-27T10:20:02Z</time>
      </trkpt>
      <trkpt lat="44.33548" lon="1.06775">
        <ele>261.14</ele>
        <time>2015-09-27T10:20:09Z</time>
      </trkpt>
      <trkpt lat="44.33464" lon="1.06738">
        <ele>261.14</ele>
        <time>2015-09-27T10:20:26Z</time>
      </trkpt>
      <trkpt lat="44.33408" lon="1.06701">
        <ele>259.21</ele>
        <time>2015-09-27T10:20:36Z</time>
      </trkpt>
      <trkpt lat="44.33394" lon="1.06671">
        <ele>259.69</ele>
        <time>2015-09-27T10:20:41Z</time>
      </trkpt>
      <trkpt lat="44.33372" lon="1.06591">
        <ele>258.73</ele>
        <time>2015-09-27T10:20:52Z</time>
      </trkpt>
      <trkpt lat="44.33367" lon="1.06576">
        <ele>258.25</ele>
        <time>2015-09-27T10:20:54Z</time>
      </trkpt>
      <trkpt lat="44.33362" lon="1.06544">
        <ele>258.25</ele>
        <time>2015-09-27T10:20:58Z</time>
      </trkpt>
      <trkpt lat="44.33361" lon="1.0653">
        <ele>258.25</ele>
        <time>2015-09-27T10:21:00Z</time>
      </trkpt>
      <trkpt lat="44.3335" lon="1.06441">
        <ele>258.73</ele>
        <time>2015-09-27T10:21:14Z</time>
      </trkpt>
      <trkpt lat="44.33337" lon="1.06337">
        <ele>259.69</ele>
        <time>2015-09-27T10:21:30Z</time>
      </trkpt>
      <trkpt lat="44.33338" lon="1.06255">
        <ele>260.17</ele>
        <time>2015-09-27T10:21:43Z</time>
      </trkpt>
      <trkpt lat="44.33339" lon="1.06235">
        <ele>260.65</ele>
        <time>2015-09-27T10:21:46Z</time>
      </trkpt>
      <trkpt lat="44.33347" lon="1.06178">
        <ele>260.17</ele>
        <time>2015-09-27T10:21:55Z</time>
      </trkpt>
      <trkpt lat="44.3339" lon="1.06075">
        <ele>259.21</ele>
        <time>2015-09-27T10:22:10Z</time>
      </trkpt>
      <trkpt lat="44.33408" lon="1.06027">
        <ele>259.21</ele>
        <time>2015-09-27T10:22:17Z</time>
      </trkpt>
      <trkpt lat="44.33422" lon="1.05967">
        <ele>259.69</ele>
        <time>2015-09-27T10:22:27Z</time>
      </trkpt>
      <trkpt lat="44.33426" lon="1.05955">
        <ele>259.69</ele>
        <time>2015-09-27T10:22:29Z</time>
      </trkpt>
      <trkpt lat="44.33442" lon="1.05919">
        <ele>259.21</ele>
        <time>2015-09-27T10:22:35Z</time>
      </trkpt>
      <trkpt lat="44.33455" lon="1.0589">
        <ele>258.73</ele>
        <time>2015-09-27T10:22:40Z</time>
      </trkpt>
      <trkpt lat="44.33492" lon="1.0579">
        <ele>256.33</ele>
        <time>2015-09-27T10:22:54Z</time>
      </trkpt>
      <trkpt lat="44.33535" lon="1.05665">
        <ele>256.33</ele>
        <time>2015-09-27T10:23:11Z</time>
      </trkpt>
      <trkpt lat="44.33536" lon="1.05658">
        <ele>256.33</ele>
        <time>2015-09-27T10:23:12Z</time>
      </trkpt>
      <trkpt lat="44.33537" lon="1.0565">
        <ele>256.33</ele>
        <time>2015-09-27T10:23:13Z</time>
      </trkpt>
      <trkpt lat="44.33539" lon="1.05642">
        <ele>256.33</ele>
        <time>2015-09-27T10:23:14Z</time>
      </trkpt>
      <trkpt lat="44.33547" lon="1.05607">
        <ele>255.37</ele>
        <time>2015-09-27T10:23:18Z</time>
      </trkpt>
      <trkpt lat="44.3355" lon="1.05581">
        <ele>255.37</ele>
        <time>2015-09-27T10:23:21Z</time>
      </trkpt>
      <trkpt lat="44.33557" lon="1.05451">
        <ele>256.33</ele>
        <time>2015-09-27T10:23:36Z</time>
      </trkpt>
      <trkpt lat="44.33565" lon="1.05385">
        <ele>255.85</ele>
        <time>2015-09-27T10:23:43Z</time>
      </trkpt>
      <trkpt lat="44.33578" lon="1.05338">
        <ele>255.85</ele>
        <time>2015-09-27T10:23:48Z</time>
      </trkpt>
      <trkpt lat="44.33596" lon="1.05298">
        <ele>255.37</ele>
        <time>2015-09-27T10:23:53Z</time>
      </trkpt>
      <trkpt lat="44.33644" lon="1.05185">
        <ele>254.89</ele>
        <time>2015-09-27T10:24:08Z</time>
      </trkpt>
      <trkpt lat="44.33665" lon="1.05065">
        <ele>253.44</ele>
        <time>2015-09-27T10:24:21Z</time>
      </trkpt>
      <trkpt lat="44.33662" lon="1.05008">
        <ele>254.41</ele>
        <time>2015-09-27T10:24:27Z</time>
      </trkpt>
      <trkpt lat="44.33664" lon="1.04944">
        <ele>254.89</ele>
        <time>2015-09-27T10:24:34Z</time>
      </trkpt>
      <trkpt lat="44.33634" lon="1.04892">
        <ele>253.44</ele>
        <time>2015-09-27T10:24:43Z</time>
      </trkpt>
      <trkpt lat="44.33619" lon="1.04879">
        <ele>252.48</ele>
        <time>2015-09-27T10:24:46Z</time>
      </trkpt>
      <trkpt lat="44.33618" lon="1.04839">
        <ele>247.68</ele>
        <time>2015-09-27T10:24:53Z</time>
      </trkpt>
      <trkpt lat="44.33621" lon="1.048">
        <ele>246.23</ele>
        <time>2015-09-27T10:24:59Z</time>
      </trkpt>
      <trkpt lat="44.33599" lon="1.04763">
        <ele>242.87</ele>
        <time>2015-09-27T10:25:05Z</time>
      </trkpt>
      <trkpt lat="44.33578" lon="1.0475">
        <ele>241.43</ele>
        <time>2015-09-27T10:25:08Z</time>
      </trkpt>
      <trkpt lat="44.33548" lon="1.04714">
        <ele>237.1</ele>
        <time>2015-09-27T10:25:14Z</time>
      </trkpt>
      <trkpt lat="44.33534" lon="1.04681">
        <ele>233.26</ele>
        <time>2015-09-27T10:25:19Z</time>
      </trkpt>
      <trkpt lat="44.33531" lon="1.04661">
        <ele>230.37</ele>
        <time>2015-09-27T10:25:22Z</time>
      </trkpt>
      <trkpt lat="44.33525" lon="1.0465">
        <ele>228.93</ele>
        <time>2015-09-27T10:25:24Z</time>
      </trkpt>
      <trkpt lat="44.33521" lon="1.04646">
        <ele>227.97</ele>
        <time>2015-09-27T10:25:25Z</time>
      </trkpt>
      <trkpt lat="44.33515" lon="1.04644">
        <ele>227.49</ele>
        <time>2015-09-27T10:25:26Z</time>
      </trkpt>
      <trkpt lat="44.33509" lon="1.04643">
        <ele>227.01</ele>
        <time>2015-09-27T10:25:27Z</time>
      </trkpt>
      <trkpt lat="44.33503" lon="1.04642">
        <ele>226.53</ele>
        <time>2015-09-27T10:25:28Z</time>
      </trkpt>
      <trkpt lat="44.33488" lon="1.04637">
        <ele>224.61</ele>
        <time>2015-09-27T10:25:31Z</time>
      </trkpt>
      <trkpt lat="44.33464" lon="1.0463">
        <ele>221.72</ele>
        <time>2015-09-27T10:25:35Z</time>
      </trkpt>
      <trkpt lat="44.33451" lon="1.04618">
        <ele>219.8</ele>
        <time>2015-09-27T10:25:39Z</time>
      </trkpt>
      <trkpt lat="44.33433" lon="1.04591">
        <ele>214.99</ele>
        <time>2015-09-27T10:25:46Z</time>
      </trkpt>
      <trkpt lat="44.33428" lon="1.04589">
        <ele>214.99</ele>
        <time>2015-09-27T10:25:47Z</time>
      </trkpt>
      <trkpt lat="44.33414" lon="1.04564">
        <ele>214.03</ele>
        <time>2015-09-27T10:25:53Z</time>
      </trkpt>
      <trkpt lat="44.33417" lon="1.04535">
        <ele>214.03</ele>
        <time>2015-09-27T10:25:57Z</time>
      </trkpt>
      <trkpt lat="44.33417" lon="1.04516">
        <ele>214.03</ele>
        <time>2015-09-27T10:26:00Z</time>
      </trkpt>
      <trkpt lat="44.33416" lon="1.04504">
        <ele>214.03</ele>
        <time>2015-09-27T10:26:02Z</time>
      </trkpt>
      <trkpt lat="44.3341" lon="1.04454">
        <ele>214.51</ele>
        <time>2015-09-27T10:26:09Z</time>
      </trkpt>
      <trkpt lat="44.33397" lon="1.04396">
        <ele>213.07</ele>
        <time>2015-09-27T10:26:16Z</time>
      </trkpt>
      <trkpt lat="44.33413" lon="1.04364">
        <ele>209.7</ele>
        <time>2015-09-27T10:26:23Z</time>
      </trkpt>
      <trkpt lat="44.33409" lon="1.04282">
        <ele>205.86</ele>
        <time>2015-09-27T10:26:34Z</time>
      </trkpt>
      <trkpt lat="44.33412" lon="1.04257">
        <ele>205.86</ele>
        <time>2015-09-27T10:26:37Z</time>
      </trkpt>
      <trkpt lat="44.3341" lon="1.04214">
        <ele>206.34</ele>
        <time>2015-09-27T10:26:42Z</time>
      </trkpt>
      <trkpt lat="44.33386" lon="1.04088">
        <ele>207.3</ele>
        <time>2015-09-27T10:26:56Z</time>
      </trkpt>
      <trkpt lat="44.33385" lon="1.04079">
        <ele>207.3</ele>
        <time>2015-09-27T10:26:57Z</time>
      </trkpt>
      <trkpt lat="44.33383" lon="1.04062">
        <ele>207.3</ele>
        <time>2015-09-27T10:26:59Z</time>
      </trkpt>
      <trkpt lat="44.3339" lon="1.03931">
        <ele>206.82</ele>
        <time>2015-09-27T10:27:13Z</time>
      </trkpt>
      <trkpt lat="44.33393" lon="1.03822">
        <ele>210.67</ele>
        <time>2015-09-27T10:27:25Z</time>
      </trkpt>
      <trkpt lat="44.3342" lon="1.0374">
        <ele>211.15</ele>
        <time>2015-09-27T10:27:36Z</time>
      </trkpt>
      <trkpt lat="44.33445" lon="1.03688">
        <ele>211.15</ele>
        <time>2015-09-27T10:27:45Z</time>
      </trkpt>
      <trkpt lat="44.33447" lon="1.03681">
        <ele>211.15</ele>
        <time>2015-09-27T10:27:46Z</time>
      </trkpt>
      <trkpt lat="44.33449" lon="1.03675">
        <ele>211.15</ele>
        <time>2015-09-27T10:27:47Z</time>
      </trkpt>
      <trkpt lat="44.33464" lon="1.03619">
        <ele>205.86</ele>
        <time>2015-09-27T10:27:55Z</time>
      </trkpt>
      <trkpt lat="44.33467" lon="1.03602">
        <ele>202.98</ele>
        <time>2015-09-27T10:27:59Z</time>
      </trkpt>
      <trkpt lat="44.33464" lon="1.03605">
        <ele>201.53</ele>
        <time>2015-09-27T10:28:02Z</time>
      </trkpt>
      <trkpt lat="44.33463" lon="1.03609">
        <ele>201.53</ele>
        <time>2015-09-27T10:28:03Z</time>
      </trkpt>
      <trkpt lat="44.33462" lon="1.03613">
        <ele>201.05</ele>
        <time>2015-09-27T10:28:04Z</time>
      </trkpt>
      <trkpt lat="44.33459" lon="1.03624">
        <ele>200.57</ele>
        <time>2015-09-27T10:28:06Z</time>
      </trkpt>
      <trkpt lat="44.3345" lon="1.03644">
        <ele>200.09</ele>
        <time>2015-09-27T10:28:10Z</time>
      </trkpt>
      <trkpt lat="44.33447" lon="1.03649">
        <ele>200.09</ele>
        <time>2015-09-27T10:28:11Z</time>
      </trkpt>
      <trkpt lat="44.3343" lon="1.03668">
        <ele>200.09</ele>
        <time>2015-09-27T10:28:15Z</time>
      </trkpt>
      <trkpt lat="44.33425" lon="1.0367">
        <ele>200.09</ele>
        <time>2015-09-27T10:28:16Z</time>
      </trkpt>
      <trkpt lat="44.3342" lon="1.0367">
        <ele>200.09</ele>
        <time>2015-09-27T10:28:17Z</time>
      </trkpt>
      <trkpt lat="44.33414" lon="1.03669">
        <ele>200.09</ele>
        <time>2015-09-27T10:28:18Z</time>
      </trkpt>
      <trkpt lat="44.3341" lon="1.03667">
        <ele>199.13</ele>
        <time>2015-09-27T10:28:19Z</time>
      </trkpt>
      <trkpt lat="44.33407" lon="1.03665">
        <ele>197.69</ele>
        <time>2015-09-27T10:28:20Z</time>
      </trkpt>
      <trkpt lat="44.33404" lon="1.03661">
        <ele>196.73</ele>
        <time>2015-09-27T10:28:21Z</time>
      </trkpt>
      <trkpt lat="44.334" lon="1.03656">
        <ele>196.73</ele>
        <time>2015-09-27T10:28:22Z</time>
      </trkpt>
      <trkpt lat="44.33397" lon="1.03651">
        <ele>196.25</ele>
        <time>2015-09-27T10:28:23Z</time>
      </trkpt>
      <trkpt lat="44.33393" lon="1.03646">
        <ele>196.25</ele>
        <time>2015-09-27T10:28:24Z</time>
      </trkpt>
      <trkpt lat="44.33386" lon="1.03636">
        <ele>195.77</ele>
        <time>2015-09-27T10:28:26Z</time>
      </trkpt>
      <trkpt lat="44.33383" lon="1.0363">
        <ele>195.77</ele>
        <time>2015-09-27T10:28:27Z</time>
      </trkpt>
      <trkpt lat="44.33381" lon="1.03624">
        <ele>195.28</ele>
        <time>2015-09-27T10:28:28Z</time>
      </trkpt>
      <trkpt lat="44.33379" lon="1.03617">
        <ele>195.28</ele>
        <time>2015-09-27T10:28:29Z</time>
      </trkpt>
      <trkpt lat="44.33378" lon="1.0361">
        <ele>195.28</ele>
        <time>2015-09-27T10:28:30Z</time>
      </trkpt>
      <trkpt lat="44.33377" lon="1.03602">
        <ele>194.8</ele>
        <time>2015-09-27T10:28:31Z</time>
      </trkpt>
      <trkpt lat="44.33377" lon="1.03594">
        <ele>194.8</ele>
        <time>2015-09-27T10:28:32Z</time>
      </trkpt>
      <trkpt lat="44.33378" lon="1.03586">
        <ele>195.28</ele>
        <time>2015-09-27T10:28:33Z</time>
      </trkpt>
      <trkpt lat="44.3338" lon="1.0358">
        <ele>195.28</ele>
        <time>2015-09-27T10:28:34Z</time>
      </trkpt>
      <trkpt lat="44.33382" lon="1.03574">
        <ele>195.28</ele>
        <time>2015-09-27T10:28:35Z</time>
      </trkpt>
      <trkpt lat="44.33386" lon="1.0357">
        <ele>195.77</ele>
        <time>2015-09-27T10:28:36Z</time>
      </trkpt>
      <trkpt lat="44.3339" lon="1.03565">
        <ele>195.77</ele>
        <time>2015-09-27T10:28:37Z</time>
      </trkpt>
      <trkpt lat="44.33394" lon="1.0356">
        <ele>195.77</ele>
        <time>2015-09-27T10:28:38Z</time>
      </trkpt>
      <trkpt lat="44.33397" lon="1.03555">
        <ele>195.77</ele>
        <time>2015-09-27T10:28:39Z</time>
      </trkpt>
      <trkpt lat="44.33401" lon="1.03549">
        <ele>195.28</ele>
        <time>2015-09-27T10:28:40Z</time>
      </trkpt>
      <trkpt lat="44.33425" lon="1.03488">
        <ele>193.36</ele>
        <time>2015-09-27T10:28:48Z</time>
      </trkpt>
      <trkpt lat="44.33426" lon="1.03479">
        <ele>193.36</ele>
        <time>2015-09-27T10:28:49Z</time>
      </trkpt>
      <trkpt lat="44.33427" lon="1.0347">
        <ele>192.88</ele>
        <time>2015-09-27T10:28:50Z</time>
      </trkpt>
      <trkpt lat="44.33425" lon="1.03395">
        <ele>192.88</ele>
        <time>2015-09-27T10:28:59Z</time>
      </trkpt>
      <trkpt lat="44.33428" lon="1.03389">
        <ele>193.36</ele>
        <time>2015-09-27T10:29:00Z</time>
      </trkpt>
      <trkpt lat="44.33432" lon="1.03386">
        <ele>193.36</ele>
        <time>2015-09-27T10:29:01Z</time>
      </trkpt>
      <trkpt lat="44.33437" lon="1.03384">
        <ele>193.84</ele>
        <time>2015-09-27T10:29:02Z</time>
      </trkpt>
      <trkpt lat="44.33442" lon="1.03383">
        <ele>193.84</ele>
        <time>2015-09-27T10:29:03Z</time>
      </trkpt>
      <trkpt lat="44.33447" lon="1.03383">
        <ele>194.32</ele>
        <time>2015-09-27T10:29:04Z</time>
      </trkpt>
      <trkpt lat="44.33473" lon="1.03379">
        <ele>194.8</ele>
        <time>2015-09-27T10:29:09Z</time>
      </trkpt>
      <trkpt lat="44.33478" lon="1.03377">
        <ele>194.8</ele>
        <time>2015-09-27T10:29:10Z</time>
      </trkpt>
      <trkpt lat="44.33484" lon="1.03374">
        <ele>194.32</ele>
        <time>2015-09-27T10:29:11Z</time>
      </trkpt>
      <trkpt lat="44.33489" lon="1.0337">
        <ele>194.32</ele>
        <time>2015-09-27T10:29:12Z</time>
      </trkpt>
      <trkpt lat="44.33493" lon="1.03366">
        <ele>194.32</ele>
        <time>2015-09-27T10:29:13Z</time>
      </trkpt>
      <trkpt lat="44.33498" lon="1.03361">
        <ele>194.32</ele>
        <time>2015-09-27T10:29:14Z</time>
      </trkpt>
      <trkpt lat="44.33502" lon="1.03355">
        <ele>194.32</ele>
        <time>2015-09-27T10:29:15Z</time>
      </trkpt>
      <trkpt lat="44.33506" lon="1.03349">
        <ele>194.32</ele>
        <time>2015-09-27T10:29:16Z</time>
      </trkpt>
      <trkpt lat="44.33523" lon="1.03325">
        <ele>193.84</ele>
        <time>2015-09-27T10:29:20Z</time>
      </trkpt>
      <trkpt lat="44.3353" lon="1.03312">
        <ele>193.84</ele>
        <time>2015-09-27T10:29:22Z</time>
      </trkpt>
      <trkpt lat="44.33536" lon="1.03307">
        <ele>193.36</ele>
        <time>2015-09-27T10:29:23Z</time>
      </trkpt>
      <trkpt lat="44.33542" lon="1.03306">
        <ele>192.88</ele>
        <time>2015-09-27T10:29:24Z</time>
      </trkpt>
      <trkpt lat="44.33548" lon="1.03307">
        <ele>192.88</ele>
        <time>2015-09-27T10:29:25Z</time>
      </trkpt>
      <trkpt lat="44.33555" lon="1.03312">
        <ele>191.92</ele>
        <time>2015-09-27T10:29:26Z</time>
      </trkpt>
      <trkpt lat="44.33562" lon="1.03318">
        <ele>191.92</ele>
        <time>2015-09-27T10:29:27Z</time>
      </trkpt>
      <trkpt lat="44.33568" lon="1.03324">
        <ele>191.44</ele>
        <time>2015-09-27T10:29:28Z</time>
      </trkpt>
      <trkpt lat="44.33591" lon="1.03344">
        <ele>190.96</ele>
        <time>2015-09-27T10:29:32Z</time>
      </trkpt>
      <trkpt lat="44.33597" lon="1.03348">
        <ele>190.96</ele>
        <time>2015-09-27T10:29:33Z</time>
      </trkpt>
      <trkpt lat="44.33639" lon="1.03387">
        <ele>189.52</ele>
        <time>2015-09-27T10:29:44Z</time>
      </trkpt>
      <trkpt lat="44.33651" lon="1.03387">
        <ele>189.52</ele>
        <time>2015-09-27T10:29:55Z</time>
      </trkpt>
      <trkpt lat="44.33653" lon="1.03386">
        <ele>186.63</ele>
        <time>2015-09-27T10:30:09Z</time>
      </trkpt>
      <trkpt lat="44.33652" lon="1.03383">
        <ele>187.11</ele>
        <time>2015-09-27T10:30:44Z</time>
      </trkpt>
    </trkseg>
  </trk>
</gpx>